Time,TemperatureF,DewpointF,PressureIn,WindDirection,WindDirectionDegrees,WindSpeedMPH,WindSpeedGustMPH,Humidity,HourlyPrecipIn,Conditions,Clouds,dailyrainin,SoftwareType,DateUTC
2013-02-15 00:00:00,40.5,32.2,30.06,North,360,0.0,0.0,72,0.00,,SKC,0.00,VWS V14.00,2013-02-15 05:00:00,
2013-02-15 00:01:00,40.5,32.2,30.06,North,360,0.0,0.0,72,0.00,,SKC,0.00,VWS V14.00,2013-02-15 05:01:00,
2013-02-15 00:02:00,40.5,32.2,30.06,North,360,0.0,1.0,72,0.00,,SKC,0.00,VWS V14.00,2013-02-15 05:02:00,
2013-02-15 00:03:00,40.5,32.2,30.06,North,360,0.0,1.0,72,0.00,,SKC,0.00,VWS V14.00,2013-02-15 05:03:00,
2013-02-15 00:04:00,41.1,32.4,30.06,North,360,0.0,0.0,71,0.00,,SKC,0.02,VWS V14.00,2013-02-15 05:04:00,
2013-02-15 00:05:00,40.5,32.2,30.06,North,360,0.0,1.0,72,0.00,,SKC,0.00,VWS V14.00,2013-02-15 05:05:00,
2013-02-15 00:06:00,40.3,32.0,30.06,North,360,0.0,1.0,72,0.00,,SKC,0.00,VWS V14.00,2013-02-15 05:06:00,
2013-02-15 00:07:00,40.3,32.0,30.06,North,360,0.0,1.0,72,0.00,,SKC,0.00,VWS V14.00,2013-02-15 05:07:00,
2013-02-15 00:08:00,40.3,32.0,30.06,North,360,0.0,1.0,72,0.00,,SKC,0.00,VWS V14.00,2013-02-15 05:08:00,
2013-02-15 00:09:00,41.1,32.4,30.06,North,360,0.0,0.0,71,0.00,,SKC,0.02,VWS V14.00,2013-02-15 05:09:00,
2013-02-15 00:10:00,40.3,32.3,30.06,North,360,0.0,1.0,73,0.00,,SKC,0.00,VWS V14.00,2013-02-15 05:10:00,
2013-02-15 00:11:00,40.2,32.2,30.06,North,360,0.0,0.0,73,0.00,,SKC,0.00,VWS V14.00,2013-02-15 05:11:00,
2013-02-15 00:12:00,40.2,32.2,30.06,North,360,0.0,0.0,73,0.00,,SKC,0.00,VWS V14.00,2013-02-15 05:12:00,
2013-02-15 00:13:00,40.2,32.2,30.06,North,360,0.0,0.0,73,0.00,,SKC,0.00,VWS V14.00,2013-02-15 05:13:00,
2013-02-15 00:14:00,40.1,32.2,30.06,North,360,0.0,0.0,73,0.00,,SKC,0.00,VWS V14.00,2013-02-15 05:14:00,
2013-02-15 00:15:00,40.1,32.2,30.06,North,360,0.0,0.0,73,0.00,,SKC,0.00,VWS V14.00,2013-02-15 05:15:00,
2013-02-15 00:16:00,40.1,32.2,30.06,North,360,0.0,0.0,73,0.00,,SKC,0.00,VWS V14.00,2013-02-15 05:16:00,
2013-02-15 00:17:00,40.1,32.2,30.06,North,360,0.0,0.0,73,0.00,,SKC,0.00,VWS V14.00,2013-02-15 05:17:00,
2013-02-15 00:18:00,39.9,32.3,30.06,North,360,0.0,0.0,74,0.00,,SKC,0.00,VWS V14.00,2013-02-15 05:18:00,
2013-02-15 00:19:00,39.9,32.3,30.06,North,360,0.0,0.0,74,0.00,,SKC,0.00,VWS V14.00,2013-02-15 05:19:00,
2013-02-15 00:20:00,39.9,32.3,30.06,North,360,0.0,0.0,74,0.00,,SKC,0.00,VWS V14.00,2013-02-15 05:20:00,
2013-02-15 00:21:00,39.8,32.2,30.06,North,360,0.0,0.0,74,0.00,,SKC,0.00,VWS V14.00,2013-02-15 05:21:00,
2013-02-15 00:22:00,39.8,32.2,30.06,North,360,0.0,0.0,74,0.00,,SKC,0.00,VWS V14.00,2013-02-15 05:22:00,
2013-02-15 00:23:00,39.8,32.2,30.06,North,360,0.0,0.0,74,0.00,,SKC,0.00,VWS V14.00,2013-02-15 05:23:00,
2013-02-15 00:24:00,39.6,32.0,30.06,North,360,0.0,0.0,74,0.00,,SKC,0.00,VWS V14.00,2013-02-15 05:24:00,
2013-02-15 00:25:00,39.6,32.0,30.06,North,360,0.0,0.0,74,0.00,,SKC,0.00,VWS V14.00,2013-02-15 05:25:00,
2013-02-15 00:26:00,39.6,32.0,30.06,North,360,0.0,0.0,74,0.00,,SKC,0.00,VWS V14.00,2013-02-15 05:26:00,
2013-02-15 00:27:00,39.6,32.0,30.06,North,360,0.0,0.0,74,0.00,,SKC,0.00,VWS V14.00,2013-02-15 05:27:00,
2013-02-15 00:28:00,39.5,31.9,30.06,North,360,0.0,0.0,74,0.00,,SKC,0.00,VWS V14.00,2013-02-15 05:28:00,
2013-02-15 00:29:00,39.5,31.9,30.06,North,360,0.0,0.0,74,0.00,,SKC,0.00,VWS V14.00,2013-02-15 05:29:00,
2013-02-15 00:30:00,39.5,31.9,30.06,North,360,0.0,0.0,74,0.00,,SKC,0.00,VWS V14.00,2013-02-15 05:30:00,
2013-02-15 00:31:00,39.3,31.7,30.06,North,360,0.0,0.0,74,0.00,,SKC,0.00,VWS V14.00,2013-02-15 05:31:00,
2013-02-15 00:32:00,39.3,32.0,30.06,North,360,0.0,0.0,75,0.00,,SKC,0.00,VWS V14.00,2013-02-15 05:32:00,
2013-02-15 00:33:00,39.3,32.0,30.06,North,360,0.0,0.0,75,0.00,,SKC,0.00,VWS V14.00,2013-02-15 05:33:00,
2013-02-15 00:34:00,39.2,32.0,30.06,North,360,0.0,0.0,75,0.00,,SKC,0.00,VWS V14.00,2013-02-15 05:34:00,
2013-02-15 00:35:00,39.2,32.0,30.06,North,360,0.0,0.0,75,0.00,,SKC,0.00,VWS V14.00,2013-02-15 05:35:00,
2013-02-15 00:36:00,39.2,32.0,30.06,North,360,0.0,0.0,75,0.00,,SKC,0.00,VWS V14.00,2013-02-15 05:36:00,
2013-02-15 00:37:00,39.2,32.0,30.06,North,360,0.0,0.0,75,0.00,,SKC,0.00,VWS V14.00,2013-02-15 05:37:00,
2013-02-15 00:38:00,39.1,32.2,30.06,North,360,0.0,0.0,76,0.00,,SKC,0.00,VWS V14.00,2013-02-15 05:38:00,
2013-02-15 00:39:00,39.1,32.2,30.06,North,360,0.0,0.0,76,0.00,,SKC,0.00,VWS V14.00,2013-02-15 05:39:00,
2013-02-15 00:40:00,39.1,32.2,30.06,North,360,0.0,0.0,76,0.00,,SKC,0.00,VWS V14.00,2013-02-15 05:40:00,
2013-02-15 00:41:00,39.1,32.2,30.06,North,360,0.0,0.0,76,0.00,,SKC,0.00,VWS V14.00,2013-02-15 05:41:00,
2013-02-15 00:42:00,39.1,32.2,30.06,North,360,0.0,0.0,76,0.00,,SKC,0.00,VWS V14.00,2013-02-15 05:42:00,
2013-02-15 00:43:00,39.1,32.2,30.06,North,360,0.0,0.0,76,0.00,,SKC,0.00,VWS V14.00,2013-02-15 05:43:00,
2013-02-15 00:44:00,39.1,32.2,30.06,North,360,0.0,0.0,76,0.00,,SKC,0.00,VWS V14.00,2013-02-15 05:44:00,
2013-02-15 00:45:00,38.9,32.3,30.06,North,360,0.0,0.0,77,0.00,,SKC,0.00,VWS V14.00,2013-02-15 05:45:00,
2013-02-15 00:46:00,38.9,32.3,30.06,North,360,0.0,0.0,77,0.00,,SKC,0.00,VWS V14.00,2013-02-15 05:46:00,
2013-02-15 00:47:00,38.9,32.3,30.06,North,360,0.0,0.0,77,0.00,,SKC,0.00,VWS V14.00,2013-02-15 05:47:00,
2013-02-15 00:48:00,38.9,32.3,30.06,North,360,0.0,0.0,77,0.00,,SKC,0.00,VWS V14.00,2013-02-15 05:48:00,
2013-02-15 00:49:00,38.9,32.3,30.06,North,360,0.0,0.0,77,0.00,,SKC,0.00,VWS V14.00,2013-02-15 05:49:00,
2013-02-15 00:50:00,38.9,32.3,30.06,North,360,0.0,0.0,77,0.00,,SKC,0.00,VWS V14.00,2013-02-15 05:50:00,
2013-02-15 00:51:00,38.8,32.2,30.06,North,360,0.0,0.0,77,0.00,,SKC,0.00,VWS V14.00,2013-02-15 05:51:00,
2013-02-15 00:52:00,38.8,32.2,30.06,North,360,0.0,0.0,77,0.00,,SKC,0.00,VWS V14.00,2013-02-15 05:52:00,
2013-02-15 00:53:00,38.8,32.2,30.06,North,360,0.0,0.0,77,0.00,,SKC,0.00,VWS V14.00,2013-02-15 05:53:00,
2013-02-15 00:54:00,38.8,32.2,30.06,North,360,0.0,0.0,77,0.00,,SKC,0.00,VWS V14.00,2013-02-15 05:54:00,
2013-02-15 00:55:00,38.8,32.2,30.06,North,360,0.0,0.0,77,0.00,,SKC,0.00,VWS V14.00,2013-02-15 05:55:00,
2013-02-15 00:56:00,38.8,32.2,30.06,North,360,0.0,0.0,77,0.00,,SKC,0.00,VWS V14.00,2013-02-15 05:56:00,
2013-02-15 00:57:00,38.8,32.2,30.06,North,360,0.0,0.0,77,0.00,,SKC,0.00,VWS V14.00,2013-02-15 05:57:00,
2013-02-15 00:58:00,38.8,32.2,30.06,North,360,0.0,0.0,77,0.00,,SKC,0.00,VWS V14.00,2013-02-15 05:58:00,
2013-02-15 00:59:00,38.8,32.2,30.06,North,360,0.0,0.0,77,0.00,,SKC,0.00,VWS V14.00,2013-02-15 05:59:00,
2013-02-15 01:00:00,38.8,32.2,30.06,North,360,0.0,0.0,77,0.00,,SKC,0.00,VWS V14.00,2013-02-15 06:00:00,
2013-02-15 01:01:00,38.6,32.0,30.06,North,360,0.0,0.0,77,0.00,,SKC,0.00,VWS V14.00,2013-02-15 06:01:00,
2013-02-15 01:02:00,38.6,32.0,30.06,North,360,0.0,0.0,77,0.00,,SKC,0.00,VWS V14.00,2013-02-15 06:02:00,
2013-02-15 01:03:00,38.6,32.0,30.06,North,360,0.0,0.0,77,0.00,,SKC,0.00,VWS V14.00,2013-02-15 06:03:00,
2013-02-15 01:04:00,38.6,32.0,30.06,North,360,0.0,0.0,77,0.00,,SKC,0.00,VWS V14.00,2013-02-15 06:04:00,
2013-02-15 01:05:00,38.6,32.0,30.06,North,360,0.0,0.0,77,0.00,,SKC,0.00,VWS V14.00,2013-02-15 06:05:00,
2013-02-15 01:06:00,38.6,32.0,30.06,North,360,0.0,0.0,77,0.00,,SKC,0.00,VWS V14.00,2013-02-15 06:06:00,
2013-02-15 01:07:00,38.5,31.9,30.06,North,360,0.0,0.0,77,0.00,,SKC,0.00,VWS V14.00,2013-02-15 06:07:00,
2013-02-15 01:08:00,38.5,31.9,30.06,North,360,0.0,0.0,77,0.00,,SKC,0.00,VWS V14.00,2013-02-15 06:08:00,
2013-02-15 01:09:00,38.5,31.9,30.06,North,360,0.0,0.0,77,0.00,,SKC,0.00,VWS V14.00,2013-02-15 06:09:00,
2013-02-15 01:10:00,38.5,31.9,30.06,North,360,0.0,0.0,77,0.00,,SKC,0.00,VWS V14.00,2013-02-15 06:10:00,
2013-02-15 01:11:00,38.5,31.9,30.06,North,360,0.0,0.0,77,0.00,,SKC,0.00,VWS V14.00,2013-02-15 06:11:00,
2013-02-15 01:12:00,38.5,32.2,30.06,North,360,0.0,0.0,78,0.00,,SKC,0.00,VWS V14.00,2013-02-15 06:12:00,
2013-02-15 01:13:00,38.3,31.7,30.06,North,360,0.0,0.0,77,0.00,,SKC,0.00,VWS V14.00,2013-02-15 06:13:00,
2013-02-15 01:14:00,38.3,31.7,30.06,North,360,0.0,0.0,77,0.00,,SKC,0.00,VWS V14.00,2013-02-15 06:14:00,
2013-02-15 01:15:00,38.3,31.7,30.06,North,360,0.0,0.0,77,0.00,,SKC,0.00,VWS V14.00,2013-02-15 06:15:00,
2013-02-15 01:16:00,38.3,31.7,30.06,North,360,0.0,0.0,77,0.00,,SKC,0.00,VWS V14.00,2013-02-15 06:16:00,
2013-02-15 01:17:00,38.2,31.6,30.06,North,360,0.0,0.0,77,0.00,,SKC,0.00,VWS V14.00,2013-02-15 06:17:00,
2013-02-15 01:18:00,38.2,31.6,30.06,North,360,0.0,0.0,77,0.00,,SKC,0.00,VWS V14.00,2013-02-15 06:18:00,
2013-02-15 01:19:00,38.2,31.6,30.06,North,360,0.0,0.0,77,0.00,,SKC,0.00,VWS V14.00,2013-02-15 06:19:00,
2013-02-15 01:20:00,38.2,32.0,30.06,North,360,0.0,0.0,78,0.00,,SKC,0.00,VWS V14.00,2013-02-15 06:20:00,
2013-02-15 01:21:00,38.2,32.0,30.06,North,360,0.0,0.0,78,0.00,,SKC,0.00,VWS V14.00,2013-02-15 06:21:00,
2013-02-15 01:22:00,38.0,31.8,30.06,North,360,0.0,0.0,78,0.00,,SKC,0.00,VWS V14.00,2013-02-15 06:22:00,
2013-02-15 01:23:00,38.0,31.8,30.06,North,360,0.0,0.0,78,0.00,,SKC,0.00,VWS V14.00,2013-02-15 06:23:00,
2013-02-15 01:24:00,38.0,31.8,30.06,North,360,0.0,0.0,78,0.00,,SKC,0.00,VWS V14.00,2013-02-15 06:24:00,
2013-02-15 01:25:00,38.0,32.1,30.06,North,360,0.0,0.0,79,0.00,,SKC,0.00,VWS V14.00,2013-02-15 06:25:00,
2013-02-15 01:26:00,37.9,32.0,30.06,North,360,0.0,0.0,79,0.00,,SKC,0.00,VWS V14.00,2013-02-15 06:26:00,
2013-02-15 01:27:00,37.9,32.0,30.06,North,360,0.0,0.0,79,0.00,,SKC,0.00,VWS V14.00,2013-02-15 06:27:00,
2013-02-15 01:28:00,37.9,32.0,30.06,North,360,0.0,0.0,79,0.00,,SKC,0.00,VWS V14.00,2013-02-15 06:28:00,
2013-02-15 01:29:00,37.9,32.0,30.06,North,360,0.0,0.0,79,0.00,,SKC,0.00,VWS V14.00,2013-02-15 06:29:00,
2013-02-15 01:30:00,37.9,32.0,30.06,North,360,0.0,0.0,79,0.00,,SKC,0.00,VWS V14.00,2013-02-15 06:30:00,
2013-02-15 01:40:00,35.5,30.9,30.06,North,360,0.0,0.0,83,0.00,,SKC,0.00,VWS V14.00,2013-02-15 06:40:00,
2013-02-15 01:50:00,34.9,30.3,30.07,North,360,0.0,0.0,83,0.00,,SKC,0.00,VWS V14.00,2013-02-15 06:50:00,
2013-02-15 01:51:00,37.2,31.6,30.05,North,360,0.0,0.0,80,0.00,,SKC,0.00,VWS V14.00,2013-02-15 06:51:00,
2013-02-15 01:52:00,37.2,31.6,30.05,North,360,0.0,0.0,80,0.00,,SKC,0.00,VWS V14.00,2013-02-15 06:52:00,
2013-02-15 01:53:00,37.2,31.6,30.05,North,360,0.0,0.0,80,0.00,,SKC,0.00,VWS V14.00,2013-02-15 06:53:00,
2013-02-15 01:54:00,37.0,31.4,30.05,North,360,0.0,0.0,80,0.00,,SKC,0.00,VWS V14.00,2013-02-15 06:54:00,
2013-02-15 01:55:00,37.0,31.4,30.05,North,360,0.0,0.0,80,0.00,,SKC,0.00,VWS V14.00,2013-02-15 06:55:00,
2013-02-15 01:56:00,36.9,31.3,30.05,North,360,0.0,0.0,80,0.00,,SKC,0.00,VWS V14.00,2013-02-15 06:56:00,
2013-02-15 01:57:00,37.9,32.0,30.06,North,360,0.0,0.0,79,0.00,,SKC,0.00,VWS V14.00,2013-02-15 06:57:00,
2013-02-15 01:58:00,36.9,31.3,30.05,North,360,0.0,0.0,80,0.00,,SKC,0.00,VWS V14.00,2013-02-15 06:58:00,
2013-02-15 01:59:00,36.9,31.3,30.05,North,360,0.0,0.0,80,0.00,,SKC,0.00,VWS V14.00,2013-02-15 06:59:00,
2013-02-15 02:00:00,36.9,31.3,30.05,North,360,0.0,0.0,80,0.00,,SKC,0.00,VWS V14.00,2013-02-15 07:00:00,
2013-02-15 02:01:00,36.8,31.2,30.06,North,360,0.0,0.0,80,0.00,,SKC,0.00,VWS V14.00,2013-02-15 07:01:00,
2013-02-15 02:02:00,37.9,32.0,30.06,North,360,0.0,0.0,79,0.00,,SKC,0.00,VWS V14.00,2013-02-15 07:02:00,
2013-02-15 02:03:00,36.8,31.5,30.06,North,360,0.0,0.0,81,0.00,,SKC,0.00,VWS V14.00,2013-02-15 07:03:00,
2013-02-15 02:04:00,36.6,31.3,30.06,North,360,0.0,0.0,81,0.00,,SKC,0.00,VWS V14.00,2013-02-15 07:04:00,
2013-02-15 02:05:00,36.6,31.3,30.06,North,360,0.0,0.0,81,0.00,,SKC,0.00,VWS V14.00,2013-02-15 07:05:00,
2013-02-15 02:06:00,36.6,31.6,30.06,North,360,0.0,0.0,82,0.00,,SKC,0.00,VWS V14.00,2013-02-15 07:06:00,
2013-02-15 02:07:00,37.9,32.0,30.06,North,360,0.0,0.0,79,0.00,,SKC,0.00,VWS V14.00,2013-02-15 07:07:00,
2013-02-15 02:08:00,36.5,31.5,30.06,North,360,0.0,0.0,82,0.00,,SKC,0.00,VWS V14.00,2013-02-15 07:08:00,
2013-02-15 02:09:00,36.5,31.5,30.06,North,360,0.0,0.0,82,0.00,,SKC,0.00,VWS V14.00,2013-02-15 07:09:00,
2013-02-15 02:10:00,36.5,31.5,30.06,North,360,0.0,0.0,82,0.00,,SKC,0.00,VWS V14.00,2013-02-15 07:10:00,
2013-02-15 02:11:00,36.5,31.5,30.06,North,360,0.0,0.0,82,0.00,,SKC,0.00,VWS V14.00,2013-02-15 07:11:00,
2013-02-15 02:12:00,36.3,31.6,30.06,North,360,0.0,0.0,83,0.00,,SKC,0.00,VWS V14.00,2013-02-15 07:12:00,
2013-02-15 02:13:00,36.3,31.6,30.06,North,360,0.0,0.0,83,0.00,,SKC,0.00,VWS V14.00,2013-02-15 07:13:00,
2013-02-15 02:14:00,36.3,31.6,30.06,North,360,0.0,0.0,83,0.00,,SKC,0.00,VWS V14.00,2013-02-15 07:14:00,
2013-02-15 02:15:00,36.3,31.6,30.06,North,360,0.0,0.0,83,0.00,,SKC,0.00,VWS V14.00,2013-02-15 07:15:00,
2013-02-15 02:16:00,36.3,31.6,30.06,North,360,0.0,0.0,83,0.00,,SKC,0.00,VWS V14.00,2013-02-15 07:16:00,
2013-02-15 02:17:00,36.2,31.5,30.06,North,360,0.0,0.0,83,0.00,,SKC,0.00,VWS V14.00,2013-02-15 07:17:00,
2013-02-15 02:18:00,36.2,31.5,30.06,North,360,0.0,0.0,83,0.00,,SKC,0.00,VWS V14.00,2013-02-15 07:18:00,
2013-02-15 02:19:00,36.2,31.5,30.06,North,360,0.0,0.0,83,0.00,,SKC,0.00,VWS V14.00,2013-02-15 07:19:00,
2013-02-15 02:20:00,36.2,31.5,30.06,North,360,0.0,0.0,83,0.00,,SKC,0.00,VWS V14.00,2013-02-15 07:20:00,
2013-02-15 02:21:00,36.2,31.5,30.06,North,360,0.0,0.0,83,0.00,,SKC,0.00,VWS V14.00,2013-02-15 07:21:00,
2013-02-15 02:22:00,36.0,31.4,30.06,North,360,0.0,0.0,83,0.00,,SKC,0.00,VWS V14.00,2013-02-15 07:22:00,
2013-02-15 02:23:00,36.0,31.4,30.06,North,360,0.0,0.0,83,0.00,,SKC,0.00,VWS V14.00,2013-02-15 07:23:00,
2013-02-15 02:24:00,35.9,31.2,30.06,North,360,0.0,0.0,83,0.00,,SKC,0.00,VWS V14.00,2013-02-15 07:24:00,
2013-02-15 02:25:00,35.9,31.2,30.06,North,360,0.0,0.0,83,0.00,,SKC,0.00,VWS V14.00,2013-02-15 07:25:00,
2013-02-15 02:26:00,35.9,31.2,30.06,North,360,0.0,0.0,83,0.00,,SKC,0.00,VWS V14.00,2013-02-15 07:26:00,
2013-02-15 02:27:00,35.9,31.2,30.06,North,360,0.0,0.0,83,0.00,,SKC,0.00,VWS V14.00,2013-02-15 07:27:00,
2013-02-15 02:28:00,35.9,31.2,30.06,North,360,0.0,0.0,83,0.00,,SKC,0.00,VWS V14.00,2013-02-15 07:28:00,
2013-02-15 02:29:00,35.8,31.5,30.06,North,360,0.0,0.0,84,0.00,,SKC,0.00,VWS V14.00,2013-02-15 07:29:00,
2013-02-15 02:30:00,35.8,31.5,30.06,North,360,0.0,0.0,84,0.00,,SKC,0.00,VWS V14.00,2013-02-15 07:30:00,
2013-02-15 02:31:00,35.8,31.5,30.06,North,360,0.0,0.0,84,0.00,,SKC,0.00,VWS V14.00,2013-02-15 07:31:00,
2013-02-15 02:32:00,35.8,31.5,30.06,North,360,0.0,0.0,84,0.00,,SKC,0.00,VWS V14.00,2013-02-15 07:32:00,
2013-02-15 02:33:00,35.8,31.5,30.06,North,360,0.0,0.0,84,0.00,,SKC,0.00,VWS V14.00,2013-02-15 07:33:00,
2013-02-15 02:34:00,35.6,31.2,30.06,North,360,0.0,0.0,84,0.00,,SKC,0.00,VWS V14.00,2013-02-15 07:34:00,
2013-02-15 02:35:00,35.6,31.2,30.06,North,360,0.0,0.0,84,0.00,,SKC,0.00,VWS V14.00,2013-02-15 07:35:00,
2013-02-15 02:36:00,35.6,31.2,30.06,North,360,0.0,0.0,84,0.00,,SKC,0.00,VWS V14.00,2013-02-15 07:36:00,
2013-02-15 02:37:00,35.5,31.1,30.06,North,360,0.0,0.0,84,0.00,,SKC,0.00,VWS V14.00,2013-02-15 07:37:00,
2013-02-15 02:38:00,35.5,30.9,30.06,North,360,0.0,0.0,83,0.00,,SKC,0.00,VWS V14.00,2013-02-15 07:38:00,
2013-02-15 02:39:00,35.5,30.9,30.06,North,360,0.0,0.0,83,0.00,,SKC,0.00,VWS V14.00,2013-02-15 07:39:00,
2013-02-15 02:40:00,35.5,30.9,30.06,North,360,0.0,0.0,83,0.00,,SKC,0.00,VWS V14.00,2013-02-15 07:40:00,
2013-02-15 02:41:00,35.5,30.9,30.06,North,360,0.0,0.0,83,0.00,,SKC,0.00,VWS V14.00,2013-02-15 07:41:00,
2013-02-15 02:42:00,35.3,30.7,30.06,North,360,0.0,0.0,83,0.00,,SKC,0.00,VWS V14.00,2013-02-15 07:42:00,
2013-02-15 02:43:00,35.3,30.7,30.06,North,360,0.0,0.0,83,0.00,,SKC,0.00,VWS V14.00,2013-02-15 07:43:00,
2013-02-15 02:44:00,35.2,30.6,30.06,North,360,0.0,0.0,83,0.00,,SKC,0.00,VWS V14.00,2013-02-15 07:44:00,
2013-02-15 02:45:00,35.2,30.6,30.07,North,360,0.0,0.0,83,0.00,,SKC,0.00,VWS V14.00,2013-02-15 07:45:00,
2013-02-15 02:46:00,35.2,30.6,30.07,North,360,0.0,0.0,83,0.00,,SKC,0.00,VWS V14.00,2013-02-15 07:46:00,
2013-02-15 02:47:00,35.0,30.4,30.07,North,360,0.0,0.0,83,0.00,,SKC,0.00,VWS V14.00,2013-02-15 07:47:00,
2013-02-15 02:48:00,35.0,30.4,30.07,North,360,0.0,0.0,83,0.00,,SKC,0.00,VWS V14.00,2013-02-15 07:48:00,
2013-02-15 02:49:00,34.9,30.3,30.07,North,360,0.0,0.0,83,0.00,,SKC,0.00,VWS V14.00,2013-02-15 07:49:00,
2013-02-15 02:50:00,34.9,30.3,30.07,North,360,0.0,0.0,83,0.00,,SKC,0.00,VWS V14.00,2013-02-15 07:50:00,
2013-02-15 02:51:00,34.9,30.3,30.07,North,360,0.0,0.0,83,0.00,,SKC,0.00,VWS V14.00,2013-02-15 07:51:00,
2013-02-15 02:52:00,34.7,30.1,30.07,North,360,0.0,0.0,83,0.00,,SKC,0.00,VWS V14.00,2013-02-15 07:52:00,
2013-02-15 02:53:00,34.7,30.1,30.07,North,360,0.0,0.0,83,0.00,,SKC,0.00,VWS V14.00,2013-02-15 07:53:00,
2013-02-15 02:54:00,34.7,30.1,30.07,North,360,0.0,0.0,83,0.00,,SKC,0.00,VWS V14.00,2013-02-15 07:54:00,
2013-02-15 02:55:00,34.7,30.1,30.07,North,360,0.0,0.0,83,0.00,,SKC,0.00,VWS V14.00,2013-02-15 07:55:00,
2013-02-15 02:56:00,34.6,30.0,30.07,North,360,0.0,0.0,83,0.00,,SKC,0.00,VWS V14.00,2013-02-15 07:56:00,
2013-02-15 02:57:00,34.6,30.0,30.07,North,360,0.0,0.0,83,0.00,,SKC,0.00,VWS V14.00,2013-02-15 07:57:00,
2013-02-15 02:58:00,34.6,30.0,30.07,North,360,0.0,0.0,83,0.00,,SKC,0.00,VWS V14.00,2013-02-15 07:58:00,
2013-02-15 02:59:00,34.6,30.0,30.07,North,360,0.0,0.0,83,0.00,,SKC,0.00,VWS V14.00,2013-02-15 07:59:00,
2013-02-15 03:00:00,34.6,30.0,30.07,North,360,0.0,0.0,83,0.00,,SKC,0.00,VWS V14.00,2013-02-15 08:00:00,
2013-02-15 03:01:00,34.4,29.8,30.07,North,360,0.0,0.0,83,0.00,,SKC,0.00,VWS V14.00,2013-02-15 08:01:00,
2013-02-15 03:02:00,34.4,29.8,30.07,North,360,0.0,0.0,83,0.00,,SKC,0.00,VWS V14.00,2013-02-15 08:02:00,
2013-02-15 03:03:00,34.4,29.8,30.07,North,360,0.0,0.0,83,0.00,,SKC,0.00,VWS V14.00,2013-02-15 08:03:00,
2013-02-15 03:04:00,34.4,29.8,30.07,North,360,0.0,0.0,83,0.00,,SKC,0.00,VWS V14.00,2013-02-15 08:04:00,
2013-02-15 03:05:00,34.3,30.0,30.07,North,360,0.0,0.0,84,0.00,,SKC,0.00,VWS V14.00,2013-02-15 08:05:00,
2013-02-15 03:06:00,34.3,30.0,30.07,North,360,0.0,0.0,84,0.00,,SKC,0.00,VWS V14.00,2013-02-15 08:06:00,
2013-02-15 03:07:00,34.3,30.0,30.07,North,360,0.0,0.0,84,0.00,,SKC,0.00,VWS V14.00,2013-02-15 08:07:00,
2013-02-15 03:08:00,34.3,30.0,30.07,North,360,0.0,0.0,84,0.00,,SKC,0.00,VWS V14.00,2013-02-15 08:08:00,
2013-02-15 03:09:00,34.3,30.0,30.07,North,360,0.0,0.0,84,0.00,,SKC,0.00,VWS V14.00,2013-02-15 08:09:00,
2013-02-15 03:10:00,34.3,30.3,30.07,North,360,0.0,0.0,85,0.00,,SKC,0.00,VWS V14.00,2013-02-15 08:10:00,
2013-02-15 03:11:00,34.3,30.3,30.07,North,360,0.0,0.0,85,0.00,,SKC,0.00,VWS V14.00,2013-02-15 08:11:00,
2013-02-15 03:12:00,34.3,30.3,30.07,North,360,0.0,0.0,85,0.00,,SKC,0.00,VWS V14.00,2013-02-15 08:12:00,
2013-02-15 03:13:00,34.1,30.1,30.07,North,360,0.0,0.0,85,0.00,,SKC,0.00,VWS V14.00,2013-02-15 08:13:00,
2013-02-15 03:14:00,34.1,30.1,30.07,North,360,0.0,0.0,85,0.00,,SKC,0.00,VWS V14.00,2013-02-15 08:14:00,
2013-02-15 03:15:00,34.1,30.1,30.06,North,360,0.0,0.0,85,0.00,,SKC,0.00,VWS V14.00,2013-02-15 08:15:00,
2013-02-15 03:16:00,34.1,30.1,30.06,North,360,0.0,0.0,85,0.00,,SKC,0.00,VWS V14.00,2013-02-15 08:16:00,
2013-02-15 03:17:00,34.1,30.1,30.06,North,360,0.0,0.0,85,0.00,,SKC,0.00,VWS V14.00,2013-02-15 08:17:00,
2013-02-15 03:18:00,34.1,30.1,30.06,North,360,0.0,0.0,85,0.00,,SKC,0.00,VWS V14.00,2013-02-15 08:18:00,
2013-02-15 03:19:00,34.1,30.1,30.06,North,360,0.0,0.0,85,0.00,,SKC,0.00,VWS V14.00,2013-02-15 08:19:00,
2013-02-15 03:20:00,34.0,30.0,30.06,North,360,0.0,0.0,85,0.00,,SKC,0.00,VWS V14.00,2013-02-15 08:20:00,
2013-02-15 03:21:00,34.0,30.0,30.06,North,360,0.0,0.0,85,0.00,,SKC,0.00,VWS V14.00,2013-02-15 08:21:00,
2013-02-15 03:22:00,34.0,30.0,30.06,North,360,0.0,0.0,85,0.00,,SKC,0.00,VWS V14.00,2013-02-15 08:22:00,
2013-02-15 03:23:00,34.0,30.0,30.06,North,360,0.0,0.0,85,0.00,,SKC,0.00,VWS V14.00,2013-02-15 08:23:00,
2013-02-15 03:24:00,33.8,29.8,30.06,North,360,0.0,0.0,85,0.00,,SKC,0.00,VWS V14.00,2013-02-15 08:24:00,
2013-02-15 03:25:00,33.8,30.1,30.06,North,360,0.0,0.0,86,0.00,,SKC,0.00,VWS V14.00,2013-02-15 08:25:00,
2013-02-15 03:26:00,33.8,30.1,30.06,North,360,0.0,0.0,86,0.00,,SKC,0.00,VWS V14.00,2013-02-15 08:26:00,
2013-02-15 03:27:00,33.8,30.1,30.06,North,360,0.0,0.0,86,0.00,,SKC,0.00,VWS V14.00,2013-02-15 08:27:00,
2013-02-15 03:28:00,33.8,30.1,30.06,North,360,0.0,0.0,86,0.00,,SKC,0.00,VWS V14.00,2013-02-15 08:28:00,
2013-02-15 03:29:00,33.8,30.1,30.06,North,360,0.0,0.0,86,0.00,,SKC,0.00,VWS V14.00,2013-02-15 08:29:00,
2013-02-15 03:30:00,33.8,30.1,30.06,North,360,0.0,0.0,86,0.00,,SKC,0.00,VWS V14.00,2013-02-15 08:30:00,
2013-02-15 03:31:00,33.8,30.1,30.06,North,360,0.0,0.0,86,0.00,,SKC,0.00,VWS V14.00,2013-02-15 08:31:00,
2013-02-15 03:32:00,33.7,30.0,30.06,North,360,0.0,0.0,86,0.00,,SKC,0.00,VWS V14.00,2013-02-15 08:32:00,
2013-02-15 03:33:00,33.7,30.0,30.06,North,360,0.0,0.0,86,0.00,,SKC,0.00,VWS V14.00,2013-02-15 08:33:00,
2013-02-15 03:34:00,33.7,30.0,30.06,North,360,0.0,0.0,86,0.00,,SKC,0.00,VWS V14.00,2013-02-15 08:34:00,
2013-02-15 03:35:00,33.7,30.0,30.06,North,360,0.0,0.0,86,0.00,,SKC,0.00,VWS V14.00,2013-02-15 08:35:00,
2013-02-15 03:36:00,33.7,30.0,30.06,North,360,0.0,0.0,86,0.00,,SKC,0.00,VWS V14.00,2013-02-15 08:36:00,
2013-02-15 03:37:00,33.7,30.0,30.06,North,360,0.0,0.0,86,0.00,,SKC,0.00,VWS V14.00,2013-02-15 08:37:00,
2013-02-15 03:38:00,33.7,30.0,30.06,North,360,0.0,0.0,86,0.00,,SKC,0.00,VWS V14.00,2013-02-15 08:38:00,
2013-02-15 03:39:00,33.5,29.8,30.06,North,360,0.0,0.0,86,0.00,,SKC,0.00,VWS V14.00,2013-02-15 08:39:00,
2013-02-15 03:40:00,33.5,29.8,30.06,North,360,0.0,0.0,86,0.00,,SKC,0.00,VWS V14.00,2013-02-15 08:40:00,
2013-02-15 03:41:00,33.5,29.8,30.06,North,360,0.0,0.0,86,0.00,,SKC,0.00,VWS V14.00,2013-02-15 08:41:00,
2013-02-15 03:42:00,33.5,29.8,30.06,North,360,0.0,0.0,86,0.00,,SKC,0.00,VWS V14.00,2013-02-15 08:42:00,
2013-02-15 03:43:00,33.5,29.8,30.06,North,360,0.0,0.0,86,0.00,,SKC,0.00,VWS V14.00,2013-02-15 08:43:00,
2013-02-15 03:44:00,33.5,29.8,30.06,North,360,0.0,0.0,86,0.00,,SKC,0.00,VWS V14.00,2013-02-15 08:44:00,
2013-02-15 03:45:00,33.5,29.8,30.06,North,360,0.0,0.0,86,0.00,,SKC,0.00,VWS V14.00,2013-02-15 08:45:00,
2013-02-15 03:46:00,33.4,29.7,30.06,North,360,0.0,0.0,86,0.00,,SKC,0.00,VWS V14.00,2013-02-15 08:46:00,
2013-02-15 03:47:00,33.4,29.7,30.06,North,360,0.0,0.0,86,0.00,,SKC,0.00,VWS V14.00,2013-02-15 08:47:00,
2013-02-15 03:48:00,33.4,29.7,30.06,North,360,0.0,0.0,86,0.00,,SKC,0.00,VWS V14.00,2013-02-15 08:48:00,
2013-02-15 03:49:00,33.4,29.7,30.06,North,360,0.0,0.0,86,0.00,,SKC,0.00,VWS V14.00,2013-02-15 08:49:00,
2013-02-15 03:50:00,33.4,29.7,30.06,North,360,0.0,0.0,86,0.00,,SKC,0.00,VWS V14.00,2013-02-15 08:50:00,
2013-02-15 03:51:00,33.4,29.7,30.06,North,360,0.0,0.0,86,0.00,,SKC,0.00,VWS V14.00,2013-02-15 08:51:00,
2013-02-15 03:52:00,33.2,29.5,30.06,North,360,0.0,0.0,86,0.00,,SKC,0.00,VWS V14.00,2013-02-15 08:52:00,
2013-02-15 03:53:00,33.2,29.5,30.06,North,360,0.0,0.0,86,0.00,,SKC,0.00,VWS V14.00,2013-02-15 08:53:00,
2013-02-15 03:54:00,33.2,29.5,30.06,North,360,0.0,0.0,86,0.00,,SKC,0.00,VWS V14.00,2013-02-15 08:54:00,
2013-02-15 03:55:00,33.2,29.5,30.06,North,360,0.0,0.0,86,0.00,,SKC,0.00,VWS V14.00,2013-02-15 08:55:00,
2013-02-15 03:56:00,33.2,29.5,30.06,North,360,0.0,0.0,86,0.00,,SKC,0.00,VWS V14.00,2013-02-15 08:56:00,
2013-02-15 03:57:00,33.1,29.4,30.06,North,360,0.0,0.0,86,0.00,,SKC,0.00,VWS V14.00,2013-02-15 08:57:00,
2013-02-15 03:58:00,33.1,29.4,30.06,North,360,0.0,0.0,86,0.00,,SKC,0.00,VWS V14.00,2013-02-15 08:58:00,
2013-02-15 03:59:00,33.1,29.4,30.06,North,360,0.0,0.0,86,0.00,,SKC,0.00,VWS V14.00,2013-02-15 08:59:00,
2013-02-15 04:00:00,32.9,28.9,30.07,North,360,0.0,0.0,85,0.00,,SKC,0.00,VWS V14.00,2013-02-15 09:00:00,
2013-02-15 04:01:00,32.9,29.2,30.07,North,360,0.0,0.0,86,0.00,,SKC,0.00,VWS V14.00,2013-02-15 09:01:00,
2013-02-15 04:02:00,32.8,28.8,30.07,North,360,0.0,0.0,85,0.00,,SKC,0.00,VWS V14.00,2013-02-15 09:02:00,
2013-02-15 04:03:00,32.8,28.8,30.07,North,360,0.0,0.0,85,0.00,,SKC,0.00,VWS V14.00,2013-02-15 09:03:00,
2013-02-15 04:04:00,32.8,28.8,30.07,North,360,0.0,0.0,85,0.00,,SKC,0.00,VWS V14.00,2013-02-15 09:04:00,
2013-02-15 04:05:00,32.7,28.7,30.07,North,360,0.0,0.0,85,0.00,,SKC,0.00,VWS V14.00,2013-02-15 09:05:00,
2013-02-15 04:06:00,32.7,28.7,30.07,North,360,0.0,0.0,85,0.00,,SKC,0.00,VWS V14.00,2013-02-15 09:06:00,
2013-02-15 04:07:00,32.5,28.5,30.07,North,360,0.0,0.0,85,0.00,,SKC,0.00,VWS V14.00,2013-02-15 09:07:00,
2013-02-15 04:08:00,32.5,28.5,30.07,North,360,0.0,0.0,85,0.00,,SKC,0.00,VWS V14.00,2013-02-15 09:08:00,
2013-02-15 04:09:00,32.5,28.5,30.07,North,360,0.0,0.0,85,0.00,,SKC,0.00,VWS V14.00,2013-02-15 09:09:00,
2013-02-15 04:10:00,32.5,28.5,30.07,North,360,0.0,0.0,85,0.00,,SKC,0.00,VWS V14.00,2013-02-15 09:10:00,
2013-02-15 04:11:00,32.4,28.4,30.07,North,360,0.0,0.0,85,0.00,,SKC,0.00,VWS V14.00,2013-02-15 09:11:00,
2013-02-15 04:12:00,32.4,28.4,30.07,North,360,0.0,0.0,85,0.00,,SKC,0.00,VWS V14.00,2013-02-15 09:12:00,
2013-02-15 04:13:00,32.2,28.2,30.07,North,360,0.0,0.0,85,0.00,,SKC,0.00,VWS V14.00,2013-02-15 09:13:00,
2013-02-15 04:14:00,32.2,28.5,30.07,North,360,0.0,0.0,86,0.00,,SKC,0.00,VWS V14.00,2013-02-15 09:14:00,
2013-02-15 04:15:00,32.2,28.5,30.08,North,360,0.0,0.0,86,0.00,,SKC,0.00,VWS V14.00,2013-02-15 09:15:00,
2013-02-15 04:16:00,32.1,28.4,30.08,North,360,0.0,0.0,86,0.00,,SKC,0.00,VWS V14.00,2013-02-15 09:16:00,
2013-02-15 04:17:00,32.1,28.4,30.08,North,360,0.0,0.0,86,0.00,,SKC,0.00,VWS V14.00,2013-02-15 09:17:00,
2013-02-15 04:18:00,32.1,28.4,30.08,North,360,0.0,0.0,86,0.00,,SKC,0.00,VWS V14.00,2013-02-15 09:18:00,
2013-02-15 04:19:00,31.9,28.2,30.08,North,360,0.0,0.0,86,0.00,,SKC,0.00,VWS V14.00,2013-02-15 09:19:00,
2013-02-15 04:20:00,31.9,28.2,30.08,North,360,0.0,0.0,86,0.00,,SKC,0.00,VWS V14.00,2013-02-15 09:20:00,
2013-02-15 04:21:00,31.9,28.2,30.08,North,360,0.0,0.0,86,0.00,,SKC,0.00,VWS V14.00,2013-02-15 09:21:00,
2013-02-15 04:22:00,31.8,28.1,30.08,North,360,0.0,0.0,86,0.00,,SKC,0.00,VWS V14.00,2013-02-15 09:22:00,
2013-02-15 04:23:00,31.8,28.1,30.08,North,360,0.0,0.0,86,0.00,,SKC,0.00,VWS V14.00,2013-02-15 09:23:00,
2013-02-15 04:24:00,31.8,28.1,30.08,North,360,0.0,0.0,86,0.00,,SKC,0.00,VWS V14.00,2013-02-15 09:24:00,
2013-02-15 04:25:00,31.8,28.1,30.08,North,360,0.0,0.0,86,0.00,,SKC,0.00,VWS V14.00,2013-02-15 09:25:00,
2013-02-15 04:26:00,31.8,28.1,30.08,North,360,0.0,0.0,86,0.00,,SKC,0.00,VWS V14.00,2013-02-15 09:26:00,
2013-02-15 04:27:00,31.6,27.9,30.08,North,360,0.0,0.0,86,0.00,,SKC,0.00,VWS V14.00,2013-02-15 09:27:00,
2013-02-15 04:28:00,31.5,27.8,30.08,North,360,0.0,0.0,86,0.00,,SKC,0.00,VWS V14.00,2013-02-15 09:28:00,
2013-02-15 04:29:00,31.5,27.8,30.08,North,360,0.0,0.0,86,0.00,,SKC,0.00,VWS V14.00,2013-02-15 09:29:00,
2013-02-15 04:30:00,31.5,27.8,30.07,North,360,0.0,0.0,86,0.00,,SKC,0.00,VWS V14.00,2013-02-15 09:30:00,
2013-02-15 04:31:00,31.3,27.6,30.07,North,360,0.0,0.0,86,0.00,,SKC,0.00,VWS V14.00,2013-02-15 09:31:00,
2013-02-15 04:32:00,31.3,27.9,30.07,North,360,0.0,0.0,87,0.00,,SKC,0.00,VWS V14.00,2013-02-15 09:32:00,
2013-02-15 04:33:00,31.3,27.9,30.07,North,360,0.0,0.0,87,0.00,,SKC,0.00,VWS V14.00,2013-02-15 09:33:00,
2013-02-15 04:34:00,31.2,27.8,30.07,North,360,0.0,0.0,87,0.00,,SKC,0.00,VWS V14.00,2013-02-15 09:34:00,
2013-02-15 04:35:00,31.2,27.8,30.07,North,360,0.0,0.0,87,0.00,,SKC,0.00,VWS V14.00,2013-02-15 09:35:00,
2013-02-15 04:36:00,31.2,27.8,30.07,North,360,0.0,0.0,87,0.00,,SKC,0.00,VWS V14.00,2013-02-15 09:36:00,
2013-02-15 04:37:00,31.2,27.8,30.07,North,360,0.0,0.0,87,0.00,,SKC,0.00,VWS V14.00,2013-02-15 09:37:00,
2013-02-15 04:38:00,31.0,27.6,30.07,North,360,0.0,0.0,87,0.00,,SKC,0.00,VWS V14.00,2013-02-15 09:38:00,
2013-02-15 04:39:00,31.0,27.6,30.07,North,360,0.0,0.0,87,0.00,,SKC,0.00,VWS V14.00,2013-02-15 09:39:00,
2013-02-15 04:40:00,31.0,27.6,30.07,North,360,0.0,0.0,87,0.00,,SKC,0.00,VWS V14.00,2013-02-15 09:40:00,
2013-02-15 04:41:00,31.0,27.6,30.07,North,360,0.0,0.0,87,0.00,,SKC,0.00,VWS V14.00,2013-02-15 09:41:00,
2013-02-15 04:42:00,31.0,27.6,30.07,North,360,0.0,0.0,87,0.00,,SKC,0.00,VWS V14.00,2013-02-15 09:42:00,
2013-02-15 04:43:00,30.9,27.8,30.07,North,360,0.0,0.0,88,0.00,,SKC,0.00,VWS V14.00,2013-02-15 09:43:00,
2013-02-15 04:44:00,30.9,27.8,30.07,North,360,0.0,0.0,88,0.00,,SKC,0.00,VWS V14.00,2013-02-15 09:44:00,
2013-02-15 04:45:00,30.9,27.8,30.07,North,360,0.0,0.0,88,0.00,,SKC,0.00,VWS V14.00,2013-02-15 09:45:00,
2013-02-15 04:46:00,30.9,27.8,30.07,North,360,0.0,0.0,88,0.00,,SKC,0.00,VWS V14.00,2013-02-15 09:46:00,
2013-02-15 04:47:00,30.7,27.6,30.07,North,360,0.0,0.0,88,0.00,,SKC,0.00,VWS V14.00,2013-02-15 09:47:00,
2013-02-15 04:48:00,30.7,27.6,30.07,North,360,0.0,0.0,88,0.00,,SKC,0.00,VWS V14.00,2013-02-15 09:48:00,
2013-02-15 04:49:00,30.7,27.6,30.07,North,360,0.0,0.0,88,0.00,,SKC,0.00,VWS V14.00,2013-02-15 09:49:00,
2013-02-15 04:50:00,30.7,27.6,30.07,North,360,0.0,0.0,88,0.00,,SKC,0.00,VWS V14.00,2013-02-15 09:50:00,
2013-02-15 04:51:00,30.7,27.6,30.07,North,360,0.0,0.0,88,0.00,,SKC,0.00,VWS V14.00,2013-02-15 09:51:00,
2013-02-15 04:52:00,30.7,27.6,30.07,North,360,0.0,0.0,88,0.00,,SKC,0.00,VWS V14.00,2013-02-15 09:52:00,
2013-02-15 04:53:00,30.6,27.5,30.07,North,360,0.0,0.0,88,0.00,,SKC,0.00,VWS V14.00,2013-02-15 09:53:00,
2013-02-15 04:54:00,30.6,27.5,30.07,North,360,0.0,0.0,88,0.00,,SKC,0.00,VWS V14.00,2013-02-15 09:54:00,
2013-02-15 04:55:00,30.6,27.5,30.07,North,360,0.0,0.0,88,0.00,,SKC,0.00,VWS V14.00,2013-02-15 09:55:00,
2013-02-15 04:56:00,30.6,27.5,30.07,North,360,0.0,0.0,88,0.00,,SKC,0.00,VWS V14.00,2013-02-15 09:56:00,
2013-02-15 04:57:00,30.6,27.5,30.07,North,360,0.0,0.0,88,0.00,,SKC,0.00,VWS V14.00,2013-02-15 09:57:00,
2013-02-15 04:58:00,30.4,27.3,30.07,North,360,0.0,0.0,88,0.00,,SKC,0.00,VWS V14.00,2013-02-15 09:58:00,
2013-02-15 04:59:00,30.4,27.3,30.07,North,360,0.0,0.0,88,0.00,,SKC,0.00,VWS V14.00,2013-02-15 09:59:00,
2013-02-15 05:00:00,30.4,27.3,30.08,North,360,0.0,0.0,88,0.00,,SKC,0.00,VWS V14.00,2013-02-15 10:00:00,
2013-02-15 05:01:00,30.4,27.3,30.08,North,360,0.0,0.0,88,0.00,,SKC,0.00,VWS V14.00,2013-02-15 10:01:00,
2013-02-15 05:02:00,30.4,27.3,30.08,North,360,0.0,0.0,88,0.00,,SKC,0.00,VWS V14.00,2013-02-15 10:02:00,
2013-02-15 05:03:00,30.4,27.3,30.08,North,360,0.0,0.0,88,0.00,,SKC,0.00,VWS V14.00,2013-02-15 10:03:00,
2013-02-15 05:04:00,30.4,27.3,30.08,North,360,0.0,0.0,88,0.00,,SKC,0.00,VWS V14.00,2013-02-15 10:04:00,
2013-02-15 05:05:00,30.3,27.2,30.08,North,360,0.0,0.0,88,0.00,,SKC,0.00,VWS V14.00,2013-02-15 10:05:00,
2013-02-15 05:06:00,30.3,27.2,30.08,North,360,0.0,0.0,88,0.00,,SKC,0.00,VWS V14.00,2013-02-15 10:06:00,
2013-02-15 05:07:00,30.3,27.5,30.08,North,360,0.0,0.0,89,0.00,,SKC,0.00,VWS V14.00,2013-02-15 10:07:00,
2013-02-15 05:08:00,30.3,27.5,30.08,North,360,0.0,0.0,89,0.00,,SKC,0.00,VWS V14.00,2013-02-15 10:08:00,
2013-02-15 05:09:00,30.3,27.5,30.08,North,360,0.0,0.0,89,0.00,,SKC,0.00,VWS V14.00,2013-02-15 10:09:00,
2013-02-15 05:10:00,30.3,27.5,30.08,North,360,0.0,0.0,89,0.00,,SKC,0.00,VWS V14.00,2013-02-15 10:10:00,
2013-02-15 05:11:00,30.3,27.5,30.08,North,360,0.0,0.0,89,0.00,,SKC,0.00,VWS V14.00,2013-02-15 10:11:00,
2013-02-15 05:12:00,30.1,27.3,30.08,North,360,0.0,0.0,89,0.00,,SKC,0.00,VWS V14.00,2013-02-15 10:12:00,
2013-02-15 05:13:00,30.1,27.3,30.08,North,360,0.0,0.0,89,0.00,,SKC,0.00,VWS V14.00,2013-02-15 10:13:00,
2013-02-15 05:14:00,30.1,27.3,30.08,North,360,0.0,0.0,89,0.00,,SKC,0.00,VWS V14.00,2013-02-15 10:14:00,
2013-02-15 05:15:00,30.1,27.3,30.09,North,360,0.0,0.0,89,0.00,,SKC,0.00,VWS V14.00,2013-02-15 10:15:00,
2013-02-15 05:16:00,30.1,27.3,30.09,North,360,0.0,0.0,89,0.00,,SKC,0.00,VWS V14.00,2013-02-15 10:16:00,
2013-02-15 05:17:00,30.1,27.3,30.09,North,360,0.0,0.0,89,0.00,,SKC,0.00,VWS V14.00,2013-02-15 10:17:00,
2013-02-15 05:18:00,30.0,27.2,30.09,North,360,0.0,0.0,89,0.00,,SKC,0.00,VWS V14.00,2013-02-15 10:18:00,
2013-02-15 05:19:00,30.0,27.2,30.09,North,360,0.0,0.0,89,0.00,,SKC,0.00,VWS V14.00,2013-02-15 10:19:00,
2013-02-15 05:20:00,30.0,27.2,30.09,North,360,0.0,0.0,89,0.00,,SKC,0.00,VWS V14.00,2013-02-15 10:20:00,
2013-02-15 05:21:00,30.0,27.2,30.09,North,360,0.0,0.0,89,0.00,,SKC,0.00,VWS V14.00,2013-02-15 10:21:00,
2013-02-15 05:22:00,30.0,27.2,30.09,North,360,0.0,0.0,89,0.00,,SKC,0.00,VWS V14.00,2013-02-15 10:22:00,
2013-02-15 05:23:00,30.0,27.2,30.09,North,360,0.0,0.0,89,0.00,,SKC,0.00,VWS V14.00,2013-02-15 10:23:00,
2013-02-15 05:24:00,30.0,27.2,30.09,North,360,0.0,0.0,89,0.00,,SKC,0.00,VWS V14.00,2013-02-15 10:24:00,
2013-02-15 05:25:00,30.0,27.2,30.09,North,360,0.0,0.0,89,0.00,,SKC,0.00,VWS V14.00,2013-02-15 10:25:00,
2013-02-15 05:26:00,29.8,27.0,30.09,North,360,0.0,0.0,89,0.00,,SKC,0.00,VWS V14.00,2013-02-15 10:26:00,
2013-02-15 05:27:00,29.8,27.0,30.09,North,360,0.0,0.0,89,0.00,,SKC,0.00,VWS V14.00,2013-02-15 10:27:00,
2013-02-15 05:28:00,29.8,27.0,30.09,North,360,0.0,0.0,89,0.00,,SKC,0.00,VWS V14.00,2013-02-15 10:28:00,
2013-02-15 05:29:00,29.8,27.0,30.09,North,360,0.0,0.0,89,0.00,,SKC,0.00,VWS V14.00,2013-02-15 10:29:00,
2013-02-15 05:30:00,29.8,27.0,30.09,North,360,0.0,0.0,89,0.00,,SKC,0.00,VWS V14.00,2013-02-15 10:30:00,
2013-02-15 05:31:00,29.8,27.0,30.09,North,360,0.0,0.0,89,0.00,,SKC,0.00,VWS V14.00,2013-02-15 10:31:00,
2013-02-15 05:32:00,29.8,27.0,30.09,North,360,0.0,1.0,89,0.00,,SKC,0.00,VWS V14.00,2013-02-15 10:32:00,
2013-02-15 05:33:00,29.7,26.9,30.09,North,360,0.0,1.0,89,0.00,,SKC,0.00,VWS V14.00,2013-02-15 10:33:00,
2013-02-15 05:34:00,29.7,27.1,30.09,North,360,0.0,1.0,90,0.00,,SKC,0.00,VWS V14.00,2013-02-15 10:34:00,
2013-02-15 05:35:00,29.7,27.1,30.09,North,360,0.0,1.0,90,0.00,,SKC,0.00,VWS V14.00,2013-02-15 10:35:00,
2013-02-15 05:36:00,29.7,27.1,30.09,North,360,0.0,1.0,90,0.00,,SKC,0.00,VWS V14.00,2013-02-15 10:36:00,
2013-02-15 05:37:00,29.7,27.1,30.09,North,360,0.0,1.0,90,0.00,,SKC,0.00,VWS V14.00,2013-02-15 10:37:00,
2013-02-15 05:38:00,29.7,27.1,30.09,North,360,0.0,1.0,90,0.00,,SKC,0.00,VWS V14.00,2013-02-15 10:38:00,
2013-02-15 05:39:00,29.5,26.9,30.09,North,360,0.0,1.0,90,0.00,,SKC,0.00,VWS V14.00,2013-02-15 10:39:00,
2013-02-15 05:40:00,29.5,26.9,30.09,North,360,0.0,1.0,90,0.00,,SKC,0.00,VWS V14.00,2013-02-15 10:40:00,
2013-02-15 05:41:00,29.5,26.9,30.09,North,360,0.0,0.0,90,0.00,,SKC,0.00,VWS V14.00,2013-02-15 10:41:00,
2013-02-15 05:42:00,29.5,26.9,30.09,North,360,0.0,0.0,90,0.00,,SKC,0.00,VWS V14.00,2013-02-15 10:42:00,
2013-02-15 05:43:00,29.5,26.9,30.09,North,360,0.0,0.0,90,0.00,,SKC,0.00,VWS V14.00,2013-02-15 10:43:00,
2013-02-15 05:44:00,29.5,26.9,30.09,North,360,0.0,0.0,90,0.00,,SKC,0.00,VWS V14.00,2013-02-15 10:44:00,
2013-02-15 05:45:00,29.5,26.9,30.09,North,360,0.0,0.0,90,0.00,,SKC,0.00,VWS V14.00,2013-02-15 10:45:00,
2013-02-15 05:46:00,29.5,26.9,30.09,North,360,0.0,0.0,90,0.00,,SKC,0.00,VWS V14.00,2013-02-15 10:46:00,
2013-02-15 05:47:00,29.5,26.9,30.09,North,360,0.0,0.0,90,0.00,,SKC,0.00,VWS V14.00,2013-02-15 10:47:00,
2013-02-15 05:48:00,29.5,26.9,30.09,North,360,0.0,0.0,90,0.00,,SKC,0.00,VWS V14.00,2013-02-15 10:48:00,
2013-02-15 05:49:00,29.4,26.8,30.09,North,360,0.0,0.0,90,0.00,,SKC,0.00,VWS V14.00,2013-02-15 10:49:00,
2013-02-15 05:50:00,29.4,26.8,30.09,North,360,0.0,0.0,90,0.00,,SKC,0.00,VWS V14.00,2013-02-15 10:50:00,
2013-02-15 05:51:00,29.4,26.8,30.09,North,360,0.0,0.0,90,0.00,,SKC,0.00,VWS V14.00,2013-02-15 10:51:00,
2013-02-15 05:52:00,29.4,26.8,30.09,North,360,0.0,0.0,90,0.00,,SKC,0.00,VWS V14.00,2013-02-15 10:52:00,
2013-02-15 05:53:00,29.4,26.8,30.09,North,360,0.0,1.0,90,0.00,,SKC,0.00,VWS V14.00,2013-02-15 10:53:00,
2013-02-15 05:54:00,29.4,26.8,30.09,North,360,0.0,1.0,90,0.00,,SKC,0.00,VWS V14.00,2013-02-15 10:54:00,
2013-02-15 05:55:00,29.4,26.8,30.09,North,360,0.0,1.0,90,0.00,,SKC,0.00,VWS V14.00,2013-02-15 10:55:00,
2013-02-15 05:56:00,29.4,26.8,30.09,North,360,0.0,1.0,90,0.00,,SKC,0.00,VWS V14.00,2013-02-15 10:56:00,
2013-02-15 05:57:00,29.4,26.8,30.09,North,360,0.0,1.0,90,0.00,,SKC,0.00,VWS V14.00,2013-02-15 10:57:00,
2013-02-15 05:58:00,29.4,26.8,30.09,North,360,0.0,1.0,90,0.00,,SKC,0.00,VWS V14.00,2013-02-15 10:58:00,
2013-02-15 05:59:00,29.3,26.7,30.09,North,360,0.0,1.0,90,0.00,,SKC,0.00,VWS V14.00,2013-02-15 10:59:00,
2013-02-15 06:00:00,29.3,26.7,30.09,North,360,0.0,1.0,90,0.00,,SKC,0.00,VWS V14.00,2013-02-15 11:00:00,
2013-02-15 06:01:00,29.3,26.7,30.10,North,360,0.0,0.0,90,0.00,,SKC,0.00,VWS V14.00,2013-02-15 11:01:00,
2013-02-15 06:02:00,29.3,26.7,30.10,North,360,0.0,0.0,90,0.00,,SKC,0.00,VWS V14.00,2013-02-15 11:02:00,
2013-02-15 06:03:00,29.3,26.7,30.10,North,360,0.0,0.0,90,0.00,,SKC,0.00,VWS V14.00,2013-02-15 11:03:00,
2013-02-15 06:04:00,29.3,26.7,30.10,North,360,0.0,0.0,90,0.00,,SKC,0.00,VWS V14.00,2013-02-15 11:04:00,
2013-02-15 06:05:00,29.1,26.5,30.10,North,360,0.0,0.0,90,0.00,,SKC,0.00,VWS V14.00,2013-02-15 11:05:00,
2013-02-15 06:06:00,29.1,26.5,30.10,North,360,0.0,0.0,90,0.00,,SKC,0.00,VWS V14.00,2013-02-15 11:06:00,
2013-02-15 06:07:00,29.1,26.5,30.10,North,360,0.0,0.0,90,0.00,,SKC,0.00,VWS V14.00,2013-02-15 11:07:00,
2013-02-15 06:08:00,29.1,26.5,30.10,North,360,0.0,0.0,90,0.00,,SKC,0.00,VWS V14.00,2013-02-15 11:08:00,
2013-02-15 06:09:00,29.1,26.5,30.10,North,360,0.0,0.0,90,0.00,,SKC,0.00,VWS V14.00,2013-02-15 11:09:00,
2013-02-15 06:10:00,29.1,26.5,30.10,North,360,0.0,0.0,90,0.00,,SKC,0.00,VWS V14.00,2013-02-15 11:10:00,
2013-02-15 06:11:00,29.1,26.5,30.10,North,360,0.0,0.0,90,0.00,,SKC,0.00,VWS V14.00,2013-02-15 11:11:00,
2013-02-15 06:12:00,29.1,26.5,30.10,North,360,0.0,0.0,90,0.00,,SKC,0.00,VWS V14.00,2013-02-15 11:12:00,
2013-02-15 06:13:00,29.1,26.5,30.10,North,360,0.0,0.0,90,0.00,,SKC,0.00,VWS V14.00,2013-02-15 11:13:00,
2013-02-15 06:14:00,29.1,26.8,30.10,North,360,0.0,0.0,91,0.00,,SKC,0.00,VWS V14.00,2013-02-15 11:14:00,
2013-02-15 06:15:00,29.1,26.8,30.11,North,360,0.0,0.0,91,0.00,,SKC,0.00,VWS V14.00,2013-02-15 11:15:00,
2013-02-15 06:16:00,29.1,26.8,30.11,North,360,0.0,0.0,91,0.00,,SKC,0.00,VWS V14.00,2013-02-15 11:16:00,
2013-02-15 06:17:00,29.1,26.8,30.11,North,360,0.0,0.0,91,0.00,,SKC,0.00,VWS V14.00,2013-02-15 11:17:00,
2013-02-15 06:18:00,29.1,26.8,30.11,North,360,0.0,0.0,91,0.00,,SKC,0.00,VWS V14.00,2013-02-15 11:18:00,
2013-02-15 06:19:00,29.1,26.8,30.11,North,360,0.0,0.0,91,0.00,,SKC,0.00,VWS V14.00,2013-02-15 11:19:00,
2013-02-15 06:20:00,29.1,26.8,30.11,North,360,0.0,0.0,91,0.00,,SKC,0.00,VWS V14.00,2013-02-15 11:20:00,
2013-02-15 06:21:00,29.1,26.8,30.11,North,360,0.0,0.0,91,0.00,,SKC,0.00,VWS V14.00,2013-02-15 11:21:00,
2013-02-15 06:22:00,29.1,26.8,30.11,North,360,0.0,0.0,91,0.00,,SKC,0.00,VWS V14.00,2013-02-15 11:22:00,
2013-02-15 06:23:00,29.1,26.8,30.11,North,360,0.0,0.0,91,0.00,,SKC,0.00,VWS V14.00,2013-02-15 11:23:00,
2013-02-15 06:24:00,29.1,26.8,30.11,North,360,0.0,0.0,91,0.00,,SKC,0.00,VWS V14.00,2013-02-15 11:24:00,
2013-02-15 06:25:00,29.1,26.8,30.11,North,360,0.0,0.0,91,0.00,,SKC,0.00,VWS V14.00,2013-02-15 11:25:00,
2013-02-15 06:26:00,29.1,26.8,30.11,North,360,0.0,0.0,91,0.00,,SKC,0.00,VWS V14.00,2013-02-15 11:26:00,
2013-02-15 06:27:00,29.1,26.8,30.11,North,360,0.0,0.0,91,0.00,,SKC,0.00,VWS V14.00,2013-02-15 11:27:00,
2013-02-15 06:28:00,29.1,26.8,30.11,North,360,0.0,0.0,91,0.00,,SKC,0.00,VWS V14.00,2013-02-15 11:28:00,
2013-02-15 06:29:00,29.1,26.8,30.11,North,360,0.0,0.0,91,0.00,,SKC,0.00,VWS V14.00,2013-02-15 11:29:00,
2013-02-15 06:30:00,29.1,26.8,30.11,North,360,0.0,0.0,91,0.00,,SKC,0.00,VWS V14.00,2013-02-15 11:30:00,
2013-02-15 06:31:00,29.0,26.7,30.11,North,360,0.0,0.0,91,0.00,,SKC,0.00,VWS V14.00,2013-02-15 11:31:00,
2013-02-15 06:32:00,29.0,26.7,30.11,North,360,0.0,0.0,91,0.00,,SKC,0.00,VWS V14.00,2013-02-15 11:32:00,
2013-02-15 06:33:00,29.0,26.7,30.11,North,360,0.0,0.0,91,0.00,,SKC,0.00,VWS V14.00,2013-02-15 11:33:00,
2013-02-15 06:34:00,29.0,26.7,30.11,North,360,0.0,0.0,91,0.00,,SKC,0.00,VWS V14.00,2013-02-15 11:34:00,
2013-02-15 06:35:00,29.0,26.7,30.11,North,360,0.0,0.0,91,0.00,,SKC,0.00,VWS V14.00,2013-02-15 11:35:00,
2013-02-15 06:36:00,29.0,26.7,30.11,North,360,0.0,0.0,91,0.00,,SKC,0.00,VWS V14.00,2013-02-15 11:36:00,
2013-02-15 06:37:00,29.0,26.7,30.11,North,360,0.0,0.0,91,0.00,,SKC,0.00,VWS V14.00,2013-02-15 11:37:00,
2013-02-15 06:38:00,29.0,26.7,30.11,North,360,0.0,0.0,91,0.00,,SKC,0.00,VWS V14.00,2013-02-15 11:38:00,
2013-02-15 06:39:00,29.0,26.7,30.11,North,360,0.0,0.0,91,0.00,,SKC,0.00,VWS V14.00,2013-02-15 11:39:00,
2013-02-15 06:40:00,29.0,26.7,30.11,North,360,0.0,0.0,91,0.00,,SKC,0.00,VWS V14.00,2013-02-15 11:40:00,
2013-02-15 06:41:00,29.0,26.7,30.11,North,360,0.0,0.0,91,0.00,,SKC,0.00,VWS V14.00,2013-02-15 11:41:00,
2013-02-15 06:42:00,29.0,26.7,30.11,North,360,0.0,0.0,91,0.00,,SKC,0.00,VWS V14.00,2013-02-15 11:42:00,
2013-02-15 06:43:00,28.8,26.5,30.11,North,360,0.0,0.0,91,0.00,,SKC,0.00,VWS V14.00,2013-02-15 11:43:00,
2013-02-15 06:44:00,28.8,26.5,30.11,North,360,0.0,0.0,91,0.00,,SKC,0.00,VWS V14.00,2013-02-15 11:44:00,
2013-02-15 06:45:00,28.8,26.5,30.11,North,360,0.0,0.0,91,0.00,,SKC,0.00,VWS V14.00,2013-02-15 11:45:00,
2013-02-15 06:46:00,28.8,26.5,30.11,North,360,0.0,0.0,91,0.00,,SKC,0.00,VWS V14.00,2013-02-15 11:46:00,
2013-02-15 06:47:00,28.8,26.5,30.11,North,360,0.0,0.0,91,0.00,,SKC,0.00,VWS V14.00,2013-02-15 11:47:00,
2013-02-15 06:48:00,28.8,26.5,30.11,North,360,0.0,0.0,91,0.00,,SKC,0.00,VWS V14.00,2013-02-15 11:48:00,
2013-02-15 06:49:00,28.8,26.5,30.11,North,360,0.0,0.0,91,0.00,,SKC,0.00,VWS V14.00,2013-02-15 11:49:00,
2013-02-15 06:50:00,28.8,26.5,30.11,North,360,0.0,0.0,91,0.00,,SKC,0.00,VWS V14.00,2013-02-15 11:50:00,
2013-02-15 06:51:00,28.8,26.5,30.11,North,360,0.0,0.0,91,0.00,,SKC,0.00,VWS V14.00,2013-02-15 11:51:00,
2013-02-15 06:52:00,28.8,26.5,30.11,North,360,0.0,0.0,91,0.00,,SKC,0.00,VWS V14.00,2013-02-15 11:52:00,
2013-02-15 06:53:00,28.8,26.5,30.11,North,360,0.0,0.0,91,0.00,,SKC,0.00,VWS V14.00,2013-02-15 11:53:00,
2013-02-15 06:54:00,28.7,26.4,30.11,North,360,0.0,1.0,91,0.00,,SKC,0.00,VWS V14.00,2013-02-15 11:54:00,
2013-02-15 06:55:00,28.7,26.4,30.11,North,360,0.0,1.0,91,0.00,,SKC,0.00,VWS V14.00,2013-02-15 11:55:00,
2013-02-15 06:56:00,28.7,26.4,30.11,North,360,0.0,1.0,91,0.00,,SKC,0.00,VWS V14.00,2013-02-15 11:56:00,
2013-02-15 06:57:00,28.7,26.4,30.11,North,360,0.0,1.0,91,0.00,,SKC,0.00,VWS V14.00,2013-02-15 11:57:00,
2013-02-15 06:58:00,28.7,26.4,30.11,North,360,0.0,1.0,91,0.00,,SKC,0.00,VWS V14.00,2013-02-15 11:58:00,
2013-02-15 07:00:00,28.7,26.4,30.11,North,360,0.0,1.0,91,0.00,,SKC,0.00,VWS V14.00,2013-02-15 12:00:00,
2013-02-15 07:01:00,28.7,26.4,30.11,North,360,0.0,0.0,91,0.00,,SKC,0.00,VWS V14.00,2013-02-15 12:01:00,
2013-02-15 07:02:00,28.7,26.4,30.11,North,360,0.0,0.0,91,0.00,,SKC,0.00,VWS V14.00,2013-02-15 12:02:00,
2013-02-15 07:03:00,28.7,26.4,30.11,North,360,0.0,0.0,91,0.00,,SKC,0.00,VWS V14.00,2013-02-15 12:03:00,
2013-02-15 07:04:00,28.7,26.4,30.11,North,360,0.0,0.0,91,0.00,,SKC,0.00,VWS V14.00,2013-02-15 12:04:00,
2013-02-15 07:05:00,28.7,26.4,30.11,North,360,0.0,0.0,91,0.00,,SKC,0.00,VWS V14.00,2013-02-15 12:05:00,
2013-02-15 07:06:00,28.7,26.4,30.11,North,360,0.0,1.0,91,0.00,,SKC,0.00,VWS V14.00,2013-02-15 12:06:00,
2013-02-15 07:07:00,28.7,26.4,30.11,North,360,0.0,1.0,91,0.00,,SKC,0.00,VWS V14.00,2013-02-15 12:07:00,
2013-02-15 07:08:00,28.5,26.2,30.11,North,360,0.0,1.0,91,0.00,,SKC,0.00,VWS V14.00,2013-02-15 12:08:00,
2013-02-15 07:09:00,28.5,26.2,30.11,North,360,0.0,1.0,91,0.00,,SKC,0.00,VWS V14.00,2013-02-15 12:09:00,
2013-02-15 07:10:00,28.5,26.2,30.11,North,360,0.0,1.0,91,0.00,,SKC,0.00,VWS V14.00,2013-02-15 12:10:00,
2013-02-15 07:11:00,28.5,26.2,30.11,North,360,0.0,0.0,91,0.00,,SKC,0.00,VWS V14.00,2013-02-15 12:11:00,
2013-02-15 07:12:00,28.5,26.2,30.11,North,360,0.0,0.0,91,0.00,,SKC,0.00,VWS V14.00,2013-02-15 12:12:00,
2013-02-15 07:13:00,28.5,26.2,30.11,North,360,0.0,0.0,91,0.00,,SKC,0.00,VWS V14.00,2013-02-15 12:13:00,
2013-02-15 07:14:00,28.5,26.2,30.11,North,360,0.0,0.0,91,0.00,,SKC,0.00,VWS V14.00,2013-02-15 12:14:00,
2013-02-15 07:15:00,28.5,26.2,30.11,North,360,0.0,0.0,91,0.00,,SKC,0.00,VWS V14.00,2013-02-15 12:15:00,
2013-02-15 07:16:00,28.5,26.2,30.11,North,360,0.0,0.0,91,0.00,,SKC,0.00,VWS V14.00,2013-02-15 12:16:00,
2013-02-15 07:17:00,28.5,26.2,30.11,North,360,0.0,0.0,91,0.00,,SKC,0.00,VWS V14.00,2013-02-15 12:17:00,
2013-02-15 07:18:00,28.5,26.2,30.11,North,360,0.0,0.0,91,0.00,,SKC,0.00,VWS V14.00,2013-02-15 12:18:00,
2013-02-15 07:19:00,28.5,26.2,30.11,North,360,0.0,0.0,91,0.00,,SKC,0.00,VWS V14.00,2013-02-15 12:19:00,
2013-02-15 07:20:00,28.5,26.2,30.11,North,360,0.0,0.0,91,0.00,,SKC,0.00,VWS V14.00,2013-02-15 12:20:00,
2013-02-15 07:21:00,28.5,26.5,30.11,North,360,0.0,0.0,92,0.00,,SKC,0.00,VWS V14.00,2013-02-15 12:21:00,
2013-02-15 07:22:00,28.5,26.2,30.11,North,360,0.0,0.0,91,0.00,,SKC,0.00,VWS V14.00,2013-02-15 12:22:00,
2013-02-15 07:23:00,28.5,26.5,30.11,North,360,0.0,0.0,92,0.00,,SKC,0.00,VWS V14.00,2013-02-15 12:23:00,
2013-02-15 07:24:00,28.5,26.5,30.11,North,360,0.0,0.0,92,0.00,,SKC,0.00,VWS V14.00,2013-02-15 12:24:00,
2013-02-15 07:25:00,28.5,26.5,30.11,North,360,0.0,0.0,92,0.00,,SKC,0.00,VWS V14.00,2013-02-15 12:25:00,
2013-02-15 07:26:00,28.5,26.5,30.11,North,360,0.0,0.0,92,0.00,,SKC,0.00,VWS V14.00,2013-02-15 12:26:00,
2013-02-15 07:27:00,28.7,26.7,30.11,North,360,0.0,0.0,92,0.00,,SKC,0.00,VWS V14.00,2013-02-15 12:27:00,
2013-02-15 07:28:00,28.7,26.7,30.11,North,360,0.0,0.0,92,0.00,,SKC,0.00,VWS V14.00,2013-02-15 12:28:00,
2013-02-15 07:29:00,28.7,26.7,30.11,North,360,0.0,0.0,92,0.00,,SKC,0.00,VWS V14.00,2013-02-15 12:29:00,
2013-02-15 07:30:00,28.7,26.7,30.12,North,360,0.0,0.0,92,0.00,,SKC,0.00,VWS V14.00,2013-02-15 12:30:00,
2013-02-15 07:31:00,28.7,26.7,30.12,North,360,0.0,0.0,92,0.00,,SKC,0.00,VWS V14.00,2013-02-15 12:31:00,
2013-02-15 07:32:00,28.7,26.7,30.12,North,360,0.0,0.0,92,0.00,,SKC,0.00,VWS V14.00,2013-02-15 12:32:00,
2013-02-15 07:33:00,28.7,26.7,30.12,North,360,0.0,0.0,92,0.00,,SKC,0.00,VWS V14.00,2013-02-15 12:33:00,
2013-02-15 07:34:00,28.7,26.7,30.12,North,360,0.0,0.0,92,0.00,,SKC,0.00,VWS V14.00,2013-02-15 12:34:00,
2013-02-15 07:35:00,28.8,26.8,30.12,North,360,0.0,0.0,92,0.00,,SKC,0.00,VWS V14.00,2013-02-15 12:35:00,
2013-02-15 07:36:00,28.8,26.8,30.12,North,360,0.0,0.0,92,0.00,,SKC,0.00,VWS V14.00,2013-02-15 12:36:00,
2013-02-15 07:37:00,28.8,26.8,30.12,North,360,0.0,0.0,92,0.00,,SKC,0.00,VWS V14.00,2013-02-15 12:37:00,
2013-02-15 07:38:00,28.8,26.8,30.12,North,360,0.0,0.0,92,0.00,,SKC,0.00,VWS V14.00,2013-02-15 12:38:00,
2013-02-15 07:39:00,28.8,26.8,30.12,North,360,0.0,0.0,92,0.00,,SKC,0.00,VWS V14.00,2013-02-15 12:39:00,
2013-02-15 07:40:00,28.8,26.8,30.12,North,360,0.0,0.0,92,0.00,,SKC,0.00,VWS V14.00,2013-02-15 12:40:00,
2013-02-15 07:41:00,28.8,26.8,30.12,North,360,0.0,0.0,92,0.00,,SKC,0.00,VWS V14.00,2013-02-15 12:41:00,
2013-02-15 07:42:00,28.8,26.8,30.12,North,360,0.0,0.0,92,0.00,,SKC,0.00,VWS V14.00,2013-02-15 12:42:00,
2013-02-15 07:43:00,29.0,27.0,30.12,North,360,0.0,0.0,92,0.00,,SKC,0.00,VWS V14.00,2013-02-15 12:43:00,
2013-02-15 07:44:00,29.0,27.0,30.12,North,360,0.0,0.0,92,0.00,,SKC,0.00,VWS V14.00,2013-02-15 12:44:00,
2013-02-15 07:45:00,29.0,27.0,30.13,North,360,0.0,0.0,92,0.00,,SKC,0.00,VWS V14.00,2013-02-15 12:45:00,
2013-02-15 07:46:00,29.0,27.0,30.13,North,360,0.0,0.0,92,0.00,,SKC,0.00,VWS V14.00,2013-02-15 12:46:00,
2013-02-15 07:47:00,29.0,27.0,30.13,North,360,0.0,0.0,92,0.00,,SKC,0.00,VWS V14.00,2013-02-15 12:47:00,
2013-02-15 07:48:00,29.1,27.1,30.13,North,360,0.0,0.0,92,0.00,,SKC,0.00,VWS V14.00,2013-02-15 12:48:00,
2013-02-15 07:49:00,29.1,27.1,30.13,North,360,0.0,1.0,92,0.00,,SKC,0.00,VWS V14.00,2013-02-15 12:49:00,
2013-02-15 07:50:00,29.1,27.1,30.13,North,360,0.0,1.0,92,0.00,,SKC,0.00,VWS V14.00,2013-02-15 12:50:00,
2013-02-15 07:51:00,29.1,27.1,30.13,North,360,0.0,0.0,92,0.00,,SKC,0.00,VWS V14.00,2013-02-15 12:51:00,
2013-02-15 07:52:00,29.1,27.1,30.13,North,360,0.0,0.0,92,0.00,,SKC,0.00,VWS V14.00,2013-02-15 12:52:00,
2013-02-15 07:53:00,29.1,27.1,30.13,North,360,0.0,0.0,92,0.00,,SKC,0.00,VWS V14.00,2013-02-15 12:53:00,
2013-02-15 07:54:00,29.3,27.3,30.13,North,360,0.0,2.0,92,0.00,,SKC,0.00,VWS V14.00,2013-02-15 12:54:00,
2013-02-15 07:55:00,29.4,27.4,30.13,North,360,0.0,2.0,92,0.00,,SKC,0.00,VWS V14.00,2013-02-15 12:55:00,
2013-02-15 07:56:00,29.4,27.4,30.13,North,360,1.0,2.0,92,0.00,,SKC,0.00,VWS V14.00,2013-02-15 12:56:00,
2013-02-15 07:57:00,29.5,27.7,30.13,North,360,0.0,2.0,93,0.00,,SKC,0.00,VWS V14.00,2013-02-15 12:57:00,
2013-02-15 07:58:00,29.7,27.9,30.13,North,360,0.0,3.0,93,0.00,,SKC,0.00,VWS V14.00,2013-02-15 12:58:00,
2013-02-15 07:59:00,29.7,27.9,30.13,North,360,0.0,3.0,93,0.00,,SKC,0.00,VWS V14.00,2013-02-15 12:59:00,
2013-02-15 08:00:00,29.8,28.0,30.12,North,360,0.0,3.0,93,0.00,,SKC,0.00,VWS V14.00,2013-02-15 13:00:00,
2013-02-15 08:01:00,29.8,28.0,30.12,North,360,2.0,2.0,93,0.00,,SKC,0.00,VWS V14.00,2013-02-15 13:01:00,
2013-02-15 08:02:00,30.0,28.2,30.12,North,360,0.0,2.0,93,0.00,,SKC,0.00,VWS V14.00,2013-02-15 13:02:00,
2013-02-15 08:03:00,30.1,28.3,30.12,North,360,0.0,2.0,93,0.00,,SKC,0.00,VWS V14.00,2013-02-15 13:03:00,
2013-02-15 08:04:00,30.1,28.3,30.12,North,360,0.0,2.0,93,0.00,,SKC,0.00,VWS V14.00,2013-02-15 13:04:00,
2013-02-15 08:05:00,30.3,28.5,30.12,North,360,0.0,2.0,93,0.00,,SKC,0.00,VWS V14.00,2013-02-15 13:05:00,
2013-02-15 08:06:00,30.3,28.5,30.12,North,360,0.0,2.0,93,0.00,,SKC,0.00,VWS V14.00,2013-02-15 13:06:00,
2013-02-15 08:07:00,30.4,28.6,30.12,North,360,0.0,2.0,93,0.00,,SKC,0.00,VWS V14.00,2013-02-15 13:07:00,
2013-02-15 08:08:00,30.6,28.8,30.12,North,360,0.0,2.0,93,0.00,,SKC,0.00,VWS V14.00,2013-02-15 13:08:00,
2013-02-15 08:09:00,30.6,28.8,30.12,North,360,0.0,2.0,93,0.00,,SKC,0.00,VWS V14.00,2013-02-15 13:09:00,
2013-02-15 08:10:00,30.7,28.9,30.12,North,360,0.0,2.0,93,0.00,,SKC,0.00,VWS V14.00,2013-02-15 13:10:00,
2013-02-15 08:11:00,30.9,29.1,30.12,North,360,0.0,0.0,93,0.00,,SKC,0.00,VWS V14.00,2013-02-15 13:11:00,
2013-02-15 08:12:00,30.9,29.1,30.12,North,360,0.0,0.0,93,0.00,,SKC,0.00,VWS V14.00,2013-02-15 13:12:00,
2013-02-15 08:13:00,31.0,29.2,30.12,North,360,0.0,0.0,93,0.00,,SKC,0.00,VWS V14.00,2013-02-15 13:13:00,
2013-02-15 08:14:00,31.0,29.2,30.12,North,360,0.0,0.0,93,0.00,,SKC,0.00,VWS V14.00,2013-02-15 13:14:00,
2013-02-15 08:15:00,31.2,29.4,30.12,North,360,0.0,0.0,93,0.00,,SKC,0.00,VWS V14.00,2013-02-15 13:15:00,
2013-02-15 08:16:00,31.2,29.4,30.12,North,360,0.0,0.0,93,0.00,,SKC,0.00,VWS V14.00,2013-02-15 13:16:00,
2013-02-15 08:17:00,31.3,29.5,30.12,North,360,0.0,0.0,93,0.00,,SKC,0.00,VWS V14.00,2013-02-15 13:17:00,
2013-02-15 08:18:00,31.5,29.7,30.12,North,360,0.0,0.0,93,0.00,,SKC,0.00,VWS V14.00,2013-02-15 13:18:00,
2013-02-15 08:19:00,31.5,29.7,30.12,North,360,0.0,0.0,93,0.00,,SKC,0.00,VWS V14.00,2013-02-15 13:19:00,
2013-02-15 08:20:00,31.6,29.8,30.12,North,360,0.0,0.0,93,0.00,,SKC,0.00,VWS V14.00,2013-02-15 13:20:00,
2013-02-15 08:21:00,31.6,29.8,30.12,North,360,0.0,0.0,93,0.00,,SKC,0.00,VWS V14.00,2013-02-15 13:21:00,
2013-02-15 08:22:00,31.8,30.0,30.12,North,360,0.0,0.0,93,0.00,,SKC,0.00,VWS V14.00,2013-02-15 13:22:00,
2013-02-15 08:23:00,31.8,30.0,30.12,North,360,0.0,0.0,93,0.00,,SKC,0.00,VWS V14.00,2013-02-15 13:23:00,
2013-02-15 08:24:00,31.9,30.1,30.12,North,360,0.0,0.0,93,0.00,,SKC,0.00,VWS V14.00,2013-02-15 13:24:00,
2013-02-15 08:25:00,32.1,30.3,30.12,North,360,0.0,0.0,93,0.00,,SKC,0.00,VWS V14.00,2013-02-15 13:25:00,
2013-02-15 08:26:00,32.1,30.3,30.12,North,360,0.0,0.0,93,0.00,,SKC,0.00,VWS V14.00,2013-02-15 13:26:00,
2013-02-15 08:27:00,32.2,30.4,30.12,North,360,0.0,0.0,93,0.00,,SKC,0.00,VWS V14.00,2013-02-15 13:27:00,
2013-02-15 08:28:00,32.2,30.4,30.12,North,360,0.0,0.0,93,0.00,,SKC,0.00,VWS V14.00,2013-02-15 13:28:00,
2013-02-15 08:29:00,32.4,30.6,30.12,North,360,0.0,0.0,93,0.00,,SKC,0.00,VWS V14.00,2013-02-15 13:29:00,
2013-02-15 08:30:00,32.5,30.7,30.12,North,360,0.0,0.0,93,0.00,,SKC,0.00,VWS V14.00,2013-02-15 13:30:00,
2013-02-15 08:31:00,32.5,30.7,30.12,North,360,0.0,0.0,93,0.00,,SKC,0.00,VWS V14.00,2013-02-15 13:31:00,
2013-02-15 08:32:00,32.7,30.9,30.12,North,360,0.0,0.0,93,0.00,,SKC,0.00,VWS V14.00,2013-02-15 13:32:00,
2013-02-15 08:33:00,32.7,30.9,30.12,North,360,0.0,0.0,93,0.00,,SKC,0.00,VWS V14.00,2013-02-15 13:33:00,
2013-02-15 08:34:00,32.8,31.0,30.12,North,360,0.0,0.0,93,0.01,,SKC,0.01,VWS V14.00,2013-02-15 13:34:00,
2013-02-15 08:35:00,32.9,31.1,30.12,North,360,0.0,0.0,93,0.01,,SKC,0.01,VWS V14.00,2013-02-15 13:35:00,
2013-02-15 08:36:00,32.9,31.1,30.12,North,360,0.0,0.0,93,0.01,,SKC,0.01,VWS V14.00,2013-02-15 13:36:00,
2013-02-15 08:37:00,33.1,31.3,30.12,North,360,0.0,0.0,93,0.01,,SKC,0.01,VWS V14.00,2013-02-15 13:37:00,
2013-02-15 08:38:00,33.2,31.4,30.12,North,360,0.0,0.0,93,0.01,,SKC,0.01,VWS V14.00,2013-02-15 13:38:00,
2013-02-15 08:39:00,33.2,31.7,30.12,North,360,0.0,0.0,94,0.01,,SKC,0.01,VWS V14.00,2013-02-15 13:39:00,
2013-02-15 08:40:00,33.5,32.0,30.12,North,360,0.0,0.0,94,0.01,,SKC,0.01,VWS V14.00,2013-02-15 13:40:00,
2013-02-15 08:41:00,33.7,32.2,30.12,North,360,0.0,0.0,94,0.01,,SKC,0.01,VWS V14.00,2013-02-15 13:41:00,
2013-02-15 08:42:00,33.8,32.3,30.12,North,360,0.0,0.0,94,0.01,,SKC,0.01,VWS V14.00,2013-02-15 13:42:00,
2013-02-15 08:43:00,34.0,32.5,30.12,North,360,0.0,0.0,94,0.01,,SKC,0.01,VWS V14.00,2013-02-15 13:43:00,
2013-02-15 08:44:00,34.0,32.5,30.12,North,360,0.0,0.0,94,0.01,,SKC,0.01,VWS V14.00,2013-02-15 13:44:00,
2013-02-15 08:45:00,34.0,32.5,30.12,North,360,0.0,0.0,94,0.01,,SKC,0.01,VWS V14.00,2013-02-15 13:45:00,
2013-02-15 08:46:00,34.6,33.0,30.12,North,360,0.0,0.0,94,0.01,,SKC,0.01,VWS V14.00,2013-02-15 13:46:00,
2013-02-15 08:47:00,34.7,33.2,30.12,North,360,0.0,0.0,94,0.01,,SKC,0.01,VWS V14.00,2013-02-15 13:47:00,
2013-02-15 08:48:00,34.9,33.3,30.12,North,360,0.0,0.0,94,0.01,,SKC,0.01,VWS V14.00,2013-02-15 13:48:00,
2013-02-15 08:49:00,34.9,33.1,30.12,North,360,0.0,0.0,93,0.01,,SKC,0.01,VWS V14.00,2013-02-15 13:49:00,
2013-02-15 08:50:00,35.0,33.2,30.12,North,360,0.0,0.0,93,0.01,,SKC,0.01,VWS V14.00,2013-02-15 13:50:00,
2013-02-15 08:51:00,35.3,33.5,30.12,North,360,0.0,0.0,93,0.01,,SKC,0.01,VWS V14.00,2013-02-15 13:51:00,
2013-02-15 08:52:00,35.5,33.7,30.12,North,360,0.0,0.0,93,0.01,,SKC,0.01,VWS V14.00,2013-02-15 13:52:00,
2013-02-15 08:53:00,35.5,33.7,30.12,North,360,0.0,0.0,93,0.01,,SKC,0.01,VWS V14.00,2013-02-15 13:53:00,
2013-02-15 08:54:00,35.8,34.0,30.12,North,360,0.0,0.0,93,0.01,,SKC,0.01,VWS V14.00,2013-02-15 13:54:00,
2013-02-15 08:55:00,35.9,33.8,30.12,North,360,0.0,0.0,92,0.01,,SKC,0.01,VWS V14.00,2013-02-15 13:55:00,
2013-02-15 08:56:00,36.0,33.9,30.12,North,360,0.0,0.0,92,0.01,,SKC,0.01,VWS V14.00,2013-02-15 13:56:00,
2013-02-15 08:57:00,36.2,34.1,30.12,North,360,0.0,0.0,92,0.01,,SKC,0.01,VWS V14.00,2013-02-15 13:57:00,
2013-02-15 08:58:00,36.2,34.1,30.12,North,360,0.0,0.0,92,0.01,,SKC,0.01,VWS V14.00,2013-02-15 13:58:00,
2013-02-15 08:59:00,36.5,34.1,30.12,North,360,0.0,0.0,91,0.01,,SKC,0.01,VWS V14.00,2013-02-15 13:59:00,
2013-02-15 09:00:00,36.6,34.2,30.12,North,360,0.0,0.0,91,0.01,,SKC,0.01,VWS V14.00,2013-02-15 14:00:00,
2013-02-15 09:01:00,36.8,34.4,30.12,North,360,0.0,0.0,91,0.01,,SKC,0.01,VWS V14.00,2013-02-15 14:01:00,
2013-02-15 09:02:00,36.9,34.5,30.12,North,360,0.0,0.0,91,0.02,,SKC,0.02,VWS V14.00,2013-02-15 14:02:00,
2013-02-15 09:03:00,37.0,34.3,30.12,North,360,0.0,0.0,90,0.02,,SKC,0.02,VWS V14.00,2013-02-15 14:03:00,
2013-02-15 09:04:00,37.3,34.6,30.12,North,360,0.0,0.0,90,0.02,,SKC,0.02,VWS V14.00,2013-02-15 14:04:00,
2013-02-15 09:05:00,37.5,34.8,30.12,North,360,0.0,0.0,90,0.02,,SKC,0.02,VWS V14.00,2013-02-15 14:05:00,
2013-02-15 09:06:00,37.8,35.1,30.12,North,360,0.0,0.0,90,0.02,,SKC,0.02,VWS V14.00,2013-02-15 14:06:00,
2013-02-15 09:07:00,37.9,35.0,30.12,North,360,0.0,0.0,89,0.02,,SKC,0.02,VWS V14.00,2013-02-15 14:07:00,
2013-02-15 09:08:00,38.0,35.0,30.12,North,360,0.0,0.0,89,0.02,,SKC,0.02,VWS V14.00,2013-02-15 14:08:00,
2013-02-15 09:09:00,38.2,35.0,30.12,North,360,0.0,0.0,88,0.02,,SKC,0.02,VWS V14.00,2013-02-15 14:09:00,
2013-02-15 09:10:00,38.3,35.1,30.12,North,360,0.0,0.0,88,0.02,,SKC,0.02,VWS V14.00,2013-02-15 14:10:00,
2013-02-15 09:11:00,38.6,35.4,30.12,North,360,0.0,0.0,88,0.02,,SKC,0.02,VWS V14.00,2013-02-15 14:11:00,
2013-02-15 09:12:00,38.8,35.6,30.12,North,360,0.0,0.0,88,0.02,,SKC,0.02,VWS V14.00,2013-02-15 14:12:00,
2013-02-15 09:13:00,39.2,35.7,30.12,North,360,0.0,0.0,87,0.02,,SKC,0.02,VWS V14.00,2013-02-15 14:13:00,
2013-02-15 09:14:00,39.3,35.8,30.12,North,360,0.0,0.0,87,0.02,,SKC,0.02,VWS V14.00,2013-02-15 14:14:00,
2013-02-15 09:15:00,39.6,35.8,30.12,North,360,0.0,1.0,86,0.02,,SKC,0.02,VWS V14.00,2013-02-15 14:15:00,
2013-02-15 09:16:00,39.9,36.1,30.12,North,360,0.0,1.0,86,0.02,,SKC,0.02,VWS V14.00,2013-02-15 14:16:00,
2013-02-15 09:17:00,40.1,36.3,30.12,North,360,0.0,1.0,86,0.02,,SKC,0.02,VWS V14.00,2013-02-15 14:17:00,
2013-02-15 09:18:00,40.3,36.2,30.12,North,360,0.0,1.0,85,0.02,,SKC,0.02,VWS V14.00,2013-02-15 14:18:00,
2013-02-15 09:19:00,40.5,36.3,30.12,North,360,0.0,1.0,85,0.02,,SKC,0.02,VWS V14.00,2013-02-15 14:19:00,
2013-02-15 09:20:00,40.5,36.3,30.12,North,360,0.0,1.0,85,0.02,,SKC,0.02,VWS V14.00,2013-02-15 14:20:00,
2013-02-15 09:21:00,40.9,36.1,30.12,North,360,2.0,3.0,83,0.02,,SKC,0.02,VWS V14.00,2013-02-15 14:21:00,
2013-02-15 09:22:00,41.1,36.0,30.12,North,360,3.0,3.0,82,0.02,,SKC,0.02,VWS V14.00,2013-02-15 14:22:00,
2013-02-15 09:23:00,41.3,36.2,30.12,North,360,1.0,3.0,82,0.02,,SKC,0.02,VWS V14.00,2013-02-15 14:23:00,
2013-02-15 09:24:00,41.5,36.1,30.12,North,360,0.0,3.0,81,0.02,,SKC,0.02,VWS V14.00,2013-02-15 14:24:00,
2013-02-15 09:25:00,41.8,36.1,30.12,North,360,2.0,5.0,80,0.02,,SKC,0.02,VWS V14.00,2013-02-15 14:25:00,
2013-02-15 09:26:00,42.1,36.1,30.12,North,360,4.0,5.0,79,0.02,,SKC,0.02,VWS V14.00,2013-02-15 14:26:00,
2013-02-15 09:27:00,42.2,36.2,30.12,North,360,2.0,5.0,79,0.03,,SKC,0.03,VWS V14.00,2013-02-15 14:27:00,
2013-02-15 09:28:00,42.2,36.2,30.12,North,360,2.0,5.0,79,0.03,,SKC,0.03,VWS V14.00,2013-02-15 14:28:00,
2013-02-15 09:29:00,42.2,36.2,30.12,North,360,2.0,5.0,79,0.03,,SKC,0.03,VWS V14.00,2013-02-15 14:29:00,
2013-02-15 09:30:00,42.8,36.8,30.11,North,360,2.0,5.0,79,0.03,,SKC,0.03,VWS V14.00,2013-02-15 14:30:00,
2013-02-15 09:31:00,43.1,37.0,30.11,North,360,0.0,2.0,79,0.03,,SKC,0.03,VWS V14.00,2013-02-15 14:31:00,
2013-02-15 09:32:00,43.3,35.9,30.11,North,360,4.0,5.0,75,0.03,,SKC,0.03,VWS V14.00,2013-02-15 14:32:00,
2013-02-15 09:33:00,43.5,35.8,30.11,North,360,4.0,6.0,74,0.03,,SKC,0.03,VWS V14.00,2013-02-15 14:33:00,
2013-02-15 09:34:00,43.6,35.9,30.11,North,360,0.0,6.0,74,0.03,,SKC,0.03,VWS V14.00,2013-02-15 14:34:00,
2013-02-15 09:35:00,43.8,36.1,30.11,North,360,6.0,6.0,74,0.03,,SKC,0.03,VWS V14.00,2013-02-15 14:35:00,
2013-02-15 09:36:00,44.1,36.0,30.11,North,360,4.0,6.0,73,0.03,,SKC,0.03,VWS V14.00,2013-02-15 14:36:00,
2013-02-15 09:37:00,44.2,35.8,30.11,North,360,0.0,6.0,72,0.03,,SKC,0.03,VWS V14.00,2013-02-15 14:37:00,
2013-02-15 09:38:00,44.5,36.0,30.11,North,360,4.0,6.0,72,0.03,,SKC,0.03,VWS V14.00,2013-02-15 14:38:00,
2013-02-15 09:39:00,44.6,36.2,30.11,North,360,4.0,6.0,72,0.03,,SKC,0.03,VWS V14.00,2013-02-15 14:39:00,
2013-02-15 09:40:00,44.8,36.0,30.11,North,360,5.0,6.0,71,0.03,,SKC,0.03,VWS V14.00,2013-02-15 14:40:00,
2013-02-15 09:41:00,44.9,36.1,30.11,North,360,5.0,6.0,71,0.02,,SKC,0.03,VWS V14.00,2013-02-15 14:41:00,
2013-02-15 09:42:00,44.9,35.7,30.11,North,360,3.0,6.0,70,0.02,,SKC,0.03,VWS V14.00,2013-02-15 14:42:00,
2013-02-15 09:43:00,45.2,35.7,30.11,North,360,3.0,6.0,69,0.02,,SKC,0.03,VWS V14.00,2013-02-15 14:43:00,
2013-02-15 09:44:00,45.5,35.9,30.11,North,360,0.0,6.0,69,0.02,,SKC,0.03,VWS V14.00,2013-02-15 14:44:00,
2013-02-15 09:45:00,45.7,36.1,30.11,North,360,3.0,6.0,69,0.02,,SKC,0.03,VWS V14.00,2013-02-15 14:45:00,
2013-02-15 09:46:00,46.0,36.4,30.11,North,360,4.0,6.0,69,0.02,,SKC,0.03,VWS V14.00,2013-02-15 14:46:00,
2013-02-15 09:47:00,46.1,36.1,30.11,North,360,0.0,6.0,68,0.02,,SKC,0.03,VWS V14.00,2013-02-15 14:47:00,
2013-02-15 09:48:00,46.2,36.2,30.11,North,360,2.0,6.0,68,0.02,,SKC,0.03,VWS V14.00,2013-02-15 14:48:00,
2013-02-15 09:49:00,46.4,36.4,30.11,North,360,2.0,6.0,68,0.02,,SKC,0.03,VWS V14.00,2013-02-15 14:49:00,
2013-02-15 09:50:00,46.4,36.4,30.11,North,360,2.0,6.0,68,0.02,,SKC,0.03,VWS V14.00,2013-02-15 14:50:00,
2013-02-15 09:51:00,46.4,36.4,30.11,North,360,2.0,2.0,68,0.02,,SKC,0.03,VWS V14.00,2013-02-15 14:51:00,
2013-02-15 09:52:00,46.4,36.4,30.11,North,360,2.0,2.0,68,0.02,,SKC,0.03,VWS V14.00,2013-02-15 14:52:00,
2013-02-15 09:53:00,47.0,36.2,30.11,North,360,5.0,6.0,66,0.03,,SKC,0.04,VWS V14.00,2013-02-15 14:53:00,
2013-02-15 09:54:00,47.1,36.0,30.11,North,360,5.0,7.0,65,0.03,,SKC,0.04,VWS V14.00,2013-02-15 14:54:00,
2013-02-15 09:55:00,47.1,36.0,30.11,North,360,6.0,7.0,65,0.03,,SKC,0.04,VWS V14.00,2013-02-15 14:55:00,
2013-02-15 09:56:00,47.3,36.2,30.11,North,360,4.0,7.0,65,0.03,,SKC,0.04,VWS V14.00,2013-02-15 14:56:00,
2013-02-15 09:57:00,47.3,36.2,30.11,North,360,3.0,7.0,65,0.03,,SKC,0.04,VWS V14.00,2013-02-15 14:57:00,
2013-02-15 09:58:00,47.4,36.2,30.11,North,360,2.0,7.0,65,0.03,,SKC,0.04,VWS V14.00,2013-02-15 14:58:00,
2013-02-15 09:59:00,47.4,36.2,30.11,North,360,2.0,7.0,65,0.03,,SKC,0.04,VWS V14.00,2013-02-15 14:59:00,
2013-02-15 10:00:00,47.4,36.2,30.11,North,360,2.0,7.0,65,0.03,,SKC,0.04,VWS V14.00,2013-02-15 15:00:00,
2013-02-15 10:01:00,47.7,36.1,30.10,North,360,2.0,5.0,64,0.03,,SKC,0.04,VWS V14.00,2013-02-15 15:01:00,
2013-02-15 10:02:00,48.0,36.4,30.10,North,360,3.0,5.0,64,0.03,,SKC,0.04,VWS V14.00,2013-02-15 15:02:00,
2013-02-15 10:03:00,48.2,36.6,30.10,North,360,5.0,6.0,64,0.03,,SKC,0.04,VWS V14.00,2013-02-15 15:03:00,
2013-02-15 10:04:00,48.2,36.2,30.10,North,360,0.0,6.0,63,0.03,,SKC,0.04,VWS V14.00,2013-02-15 15:04:00,
2013-02-15 10:05:00,48.5,36.5,30.10,North,360,0.0,6.0,63,0.03,,SKC,0.04,VWS V14.00,2013-02-15 15:05:00,
2013-02-15 10:06:00,48.8,36.4,30.10,North,360,4.0,6.0,62,0.03,,SKC,0.04,VWS V14.00,2013-02-15 15:06:00,
2013-02-15 10:07:00,48.9,36.5,30.10,North,360,4.0,6.0,62,0.03,,SKC,0.04,VWS V14.00,2013-02-15 15:07:00,
2013-02-15 10:08:00,49.1,36.2,30.10,North,360,0.0,6.0,61,0.03,,SKC,0.04,VWS V14.00,2013-02-15 15:08:00,
2013-02-15 10:09:00,49.2,36.3,30.10,North,360,0.0,6.0,61,0.03,,SKC,0.04,VWS V14.00,2013-02-15 15:09:00,
2013-02-15 10:10:00,49.4,36.5,30.10,North,360,7.0,7.0,61,0.03,,SKC,0.04,VWS V14.00,2013-02-15 15:10:00,
2013-02-15 10:11:00,49.5,36.6,30.10,North,360,4.0,7.0,61,0.02,,SKC,0.04,VWS V14.00,2013-02-15 15:11:00,
2013-02-15 10:12:00,49.6,35.9,30.10,North,360,3.0,7.0,59,0.02,,SKC,0.04,VWS V14.00,2013-02-15 15:12:00,
2013-02-15 10:13:00,49.6,35.9,30.10,North,360,4.0,7.0,59,0.02,,SKC,0.04,VWS V14.00,2013-02-15 15:13:00,
2013-02-15 10:14:00,49.8,36.1,30.10,North,360,3.0,7.0,59,0.02,,SKC,0.04,VWS V14.00,2013-02-15 15:14:00,
2013-02-15 10:15:00,49.9,36.2,30.10,North,360,1.0,7.0,59,0.02,,SKC,0.04,VWS V14.00,2013-02-15 15:15:00,
2013-02-15 10:16:00,50.2,36.0,30.10,North,360,0.0,7.0,58,0.02,,SKC,0.04,VWS V14.00,2013-02-15 15:16:00,
2013-02-15 10:17:00,50.4,36.6,30.10,North,360,7.0,7.0,59,0.02,,SKC,0.04,VWS V14.00,2013-02-15 15:17:00,
2013-02-15 10:18:00,50.4,35.8,30.10,North,360,4.0,10.0,57,0.02,,SKC,0.04,VWS V14.00,2013-02-15 15:18:00,
2013-02-15 10:19:00,50.4,35.8,30.10,North,360,2.0,10.0,57,0.02,,SKC,0.04,VWS V14.00,2013-02-15 15:19:00,
2013-02-15 10:20:00,50.4,35.8,30.10,North,360,2.0,10.0,57,0.02,,SKC,0.04,VWS V14.00,2013-02-15 15:20:00,
2013-02-15 10:21:00,50.5,36.3,30.10,North,360,3.0,4.0,58,0.02,,SKC,0.04,VWS V14.00,2013-02-15 15:21:00,
2013-02-15 10:22:00,50.5,36.3,30.10,North,360,9.0,10.0,58,0.02,,SKC,0.04,VWS V14.00,2013-02-15 15:22:00,
2013-02-15 10:23:00,50.7,36.0,30.10,North,360,8.0,10.0,57,0.02,,SKC,0.04,VWS V14.00,2013-02-15 15:23:00,
2013-02-15 10:24:00,50.7,36.0,30.10,North,360,7.0,10.0,57,0.02,,SKC,0.04,VWS V14.00,2013-02-15 15:24:00,
2013-02-15 10:25:00,50.7,36.0,30.10,North,360,4.0,10.0,57,0.02,,SKC,0.04,VWS V14.00,2013-02-15 15:25:00,
2013-02-15 10:26:00,50.8,36.6,30.10,North,360,4.0,10.0,58,0.02,,SKC,0.04,VWS V14.00,2013-02-15 15:26:00,
2013-02-15 10:27:00,50.8,36.6,30.10,North,360,0.0,10.0,58,0.02,,SKC,0.04,VWS V14.00,2013-02-15 15:27:00,
2013-02-15 10:28:00,51.0,36.8,30.10,North,360,4.0,10.0,58,0.02,,SKC,0.04,VWS V14.00,2013-02-15 15:28:00,
2013-02-15 10:29:00,51.1,36.0,30.10,North,360,0.0,10.0,56,0.02,,SKC,0.04,VWS V14.00,2013-02-15 15:29:00,
2013-02-15 10:30:00,51.3,36.2,30.10,North,360,5.0,10.0,56,0.02,,SKC,0.04,VWS V14.00,2013-02-15 15:30:00,
2013-02-15 10:31:00,51.3,36.2,30.10,North,360,2.0,4.0,56,0.01,,SKC,0.04,VWS V14.00,2013-02-15 15:31:00,
2013-02-15 10:32:00,51.4,36.2,30.10,North,360,0.0,6.0,56,0.01,,SKC,0.04,VWS V14.00,2013-02-15 15:32:00,
2013-02-15 10:33:00,51.6,36.0,30.10,North,360,4.0,6.0,55,0.01,,SKC,0.04,VWS V14.00,2013-02-15 15:33:00,
2013-02-15 10:34:00,51.6,36.0,30.10,North,360,4.0,6.0,55,0.01,,SKC,0.04,VWS V14.00,2013-02-15 15:34:00,
2013-02-15 10:35:00,51.6,36.0,30.10,North,360,4.0,6.0,55,0.01,,SKC,0.04,VWS V14.00,2013-02-15 15:35:00,
2013-02-15 10:36:00,51.9,36.3,30.10,North,360,1.0,6.0,55,0.01,,SKC,0.04,VWS V14.00,2013-02-15 15:36:00,
2013-02-15 10:37:00,52.0,36.3,30.10,North,360,4.0,6.0,55,0.01,,SKC,0.04,VWS V14.00,2013-02-15 15:37:00,
2013-02-15 10:38:00,52.2,36.1,30.10,North,360,0.0,6.0,54,0.01,,SKC,0.04,VWS V14.00,2013-02-15 15:38:00,
2013-02-15 10:39:00,52.3,36.2,30.10,North,360,1.0,6.0,54,0.01,,SKC,0.04,VWS V14.00,2013-02-15 15:39:00,
2013-02-15 10:40:00,52.5,35.9,30.10,North,360,1.0,6.0,53,0.01,,SKC,0.04,VWS V14.00,2013-02-15 15:40:00,
2013-02-15 10:41:00,52.6,36.0,30.10,North,360,0.0,1.0,53,0.01,,SKC,0.04,VWS V14.00,2013-02-15 15:41:00,
2013-02-15 10:42:00,52.9,36.2,30.10,North,360,3.0,4.0,53,0.01,,SKC,0.04,VWS V14.00,2013-02-15 15:42:00,
2013-02-15 10:43:00,52.9,35.8,30.10,North,360,3.0,4.0,52,0.01,,SKC,0.04,VWS V14.00,2013-02-15 15:43:00,
2013-02-15 10:44:00,53.2,36.0,30.10,North,360,5.0,6.0,52,0.01,,SKC,0.04,VWS V14.00,2013-02-15 15:44:00,
2013-02-15 10:45:00,53.2,35.6,30.09,North,360,1.0,6.0,51,0.01,,SKC,0.04,VWS V14.00,2013-02-15 15:45:00,
2013-02-15 10:46:00,53.3,35.7,30.09,North,360,0.0,6.0,51,0.01,,SKC,0.04,VWS V14.00,2013-02-15 15:46:00,
2013-02-15 10:47:00,53.5,35.8,30.09,North,360,4.0,10.0,51,0.01,,SKC,0.04,VWS V14.00,2013-02-15 15:47:00,
2013-02-15 10:48:00,53.6,35.9,30.09,North,360,5.0,10.0,51,0.01,,SKC,0.04,VWS V14.00,2013-02-15 15:48:00,
2013-02-15 10:49:00,53.6,35.9,30.09,North,360,7.0,10.0,51,0.01,,SKC,0.04,VWS V14.00,2013-02-15 15:49:00,
2013-02-15 10:50:00,53.6,35.9,30.09,North,360,5.0,10.0,51,0.01,,SKC,0.04,VWS V14.00,2013-02-15 15:50:00,
2013-02-15 10:51:00,53.6,35.9,30.09,North,360,2.0,5.0,51,0.01,,SKC,0.04,VWS V14.00,2013-02-15 15:51:00,
2013-02-15 10:52:00,53.8,35.6,30.09,North,360,5.0,7.0,50,0.01,,SKC,0.04,VWS V14.00,2013-02-15 15:52:00,
2013-02-15 10:53:00,53.8,36.1,30.09,North,360,6.0,9.0,51,0.01,,SKC,0.04,VWS V14.00,2013-02-15 15:53:00,
2013-02-15 10:54:00,53.8,36.1,30.09,North,360,5.0,9.0,51,0.01,,SKC,0.04,VWS V14.00,2013-02-15 15:54:00,
2013-02-15 10:55:00,53.8,36.1,30.09,North,360,6.0,9.0,51,0.01,,SKC,0.04,VWS V14.00,2013-02-15 15:55:00,
2013-02-15 10:56:00,53.8,35.1,30.09,North,360,5.0,10.0,49,0.01,,SKC,0.04,VWS V14.00,2013-02-15 15:56:00,
2013-02-15 10:57:00,53.6,34.9,30.09,North,360,11.0,11.0,49,0.01,,SKC,0.04,VWS V14.00,2013-02-15 15:57:00,
2013-02-15 10:58:00,53.6,34.9,30.09,North,360,5.0,12.0,49,0.01,,SKC,0.04,VWS V14.00,2013-02-15 15:58:00,
2013-02-15 11:00:00,53.6,35.4,30.09,North,360,4.0,12.0,50,0.01,,SKC,0.04,VWS V14.00,2013-02-15 16:00:00,
2013-02-15 11:01:00,53.6,35.9,30.09,North,360,5.0,6.0,51,0.00,,SKC,0.04,VWS V14.00,2013-02-15 16:01:00,
2013-02-15 11:02:00,53.6,35.9,30.09,North,360,0.0,6.0,51,0.00,,SKC,0.04,VWS V14.00,2013-02-15 16:02:00,
2013-02-15 11:03:00,53.8,35.1,30.09,North,360,0.0,6.0,49,0.00,,SKC,0.04,VWS V14.00,2013-02-15 16:03:00,
2013-02-15 11:04:00,53.9,35.7,30.09,North,360,1.0,6.0,50,0.00,,SKC,0.04,VWS V14.00,2013-02-15 16:04:00,
2013-02-15 11:05:00,53.9,34.2,30.09,North,360,1.0,6.0,47,0.00,,SKC,0.04,VWS V14.00,2013-02-15 16:05:00,
2013-02-15 11:06:00,54.1,34.9,30.09,North,360,6.0,7.0,48,0.00,,SKC,0.04,VWS V14.00,2013-02-15 16:06:00,
2013-02-15 11:07:00,54.1,34.9,30.09,North,360,7.0,10.0,48,0.00,,SKC,0.04,VWS V14.00,2013-02-15 16:07:00,
2013-02-15 11:08:00,54.1,34.3,30.09,North,360,9.0,13.0,47,0.00,,SKC,0.04,VWS V14.00,2013-02-15 16:08:00,
2013-02-15 11:09:00,54.1,33.2,30.09,North,360,4.0,13.0,45,0.00,,SKC,0.04,VWS V14.00,2013-02-15 16:09:00,
2013-02-15 11:10:00,54.1,34.3,30.09,North,360,4.0,13.0,47,0.00,,SKC,0.04,VWS V14.00,2013-02-15 16:10:00,
2013-02-15 11:11:00,54.1,34.3,30.09,North,360,4.0,4.0,47,0.00,,SKC,0.04,VWS V14.00,2013-02-15 16:11:00,
2013-02-15 11:12:00,54.1,34.3,30.09,North,360,4.0,4.0,47,0.00,,SKC,0.04,VWS V14.00,2013-02-15 16:12:00,
2013-02-15 11:13:00,54.1,34.3,30.09,North,360,11.0,13.0,47,0.00,,SKC,0.04,VWS V14.00,2013-02-15 16:13:00,
2013-02-15 11:14:00,54.1,33.2,30.09,North,360,12.0,13.0,45,0.00,,SKC,0.04,VWS V14.00,2013-02-15 16:14:00,
2013-02-15 11:15:00,54.1,33.2,30.09,North,360,6.0,13.0,45,0.00,,SKC,0.04,VWS V14.00,2013-02-15 16:15:00,
2013-02-15 11:16:00,54.1,33.8,30.09,North,360,3.0,13.0,46,0.00,,SKC,0.04,VWS V14.00,2013-02-15 16:16:00,
2013-02-15 11:17:00,54.1,34.3,30.09,North,360,7.0,13.0,47,0.00,,SKC,0.04,VWS V14.00,2013-02-15 16:17:00,
2013-02-15 11:18:00,54.1,33.8,30.09,North,360,9.0,13.0,46,0.00,,SKC,0.04,VWS V14.00,2013-02-15 16:18:00,
2013-02-15 11:19:00,54.1,33.8,30.09,North,360,5.0,14.0,46,0.00,,SKC,0.04,VWS V14.00,2013-02-15 16:19:00,
2013-02-15 11:20:00,54.1,33.2,30.09,North,360,3.0,14.0,45,0.00,,SKC,0.04,VWS V14.00,2013-02-15 16:20:00,
2013-02-15 11:21:00,54.1,33.2,30.09,North,360,10.0,10.0,45,0.00,,SKC,0.04,VWS V14.00,2013-02-15 16:21:00,
2013-02-15 11:22:00,54.2,33.3,30.09,North,360,5.0,10.0,45,0.00,,SKC,0.04,VWS V14.00,2013-02-15 16:22:00,
2013-02-15 11:23:00,54.2,33.3,30.09,North,360,2.0,10.0,45,0.00,,SKC,0.04,VWS V14.00,2013-02-15 16:23:00,
2013-02-15 11:24:00,54.2,33.3,30.09,North,360,5.0,10.0,45,0.00,,SKC,0.04,VWS V14.00,2013-02-15 16:24:00,
2013-02-15 11:25:00,54.4,33.5,30.09,North,360,5.0,10.0,45,0.00,,SKC,0.04,VWS V14.00,2013-02-15 16:25:00,
2013-02-15 11:26:00,54.4,33.5,30.09,North,360,9.0,12.0,45,0.00,,SKC,0.04,VWS V14.00,2013-02-15 16:26:00,
2013-02-15 11:27:00,54.5,33.0,30.09,North,360,1.0,12.0,44,0.00,,SKC,0.04,VWS V14.00,2013-02-15 16:27:00,
2013-02-15 11:28:00,54.7,32.7,30.09,North,360,7.0,12.0,43,0.00,,SKC,0.04,VWS V14.00,2013-02-15 16:28:00,
2013-02-15 11:29:00,55.0,32.9,30.09,North,360,8.0,12.0,43,0.00,,SKC,0.04,VWS V14.00,2013-02-15 16:29:00,
2013-02-15 11:30:00,55.0,32.9,30.08,North,360,6.0,12.0,43,0.00,,SKC,0.04,VWS V14.00,2013-02-15 16:30:00,
2013-02-15 11:31:00,55.1,33.0,30.08,North,360,11.0,11.0,43,0.00,,SKC,0.04,VWS V14.00,2013-02-15 16:31:00,
2013-02-15 11:32:00,55.1,31.8,30.08,North,360,4.0,11.0,41,0.00,,SKC,0.04,VWS V14.00,2013-02-15 16:32:00,
2013-02-15 11:33:00,55.1,31.8,30.08,North,360,2.0,11.0,41,0.00,,SKC,0.04,VWS V14.00,2013-02-15 16:33:00,
2013-02-15 11:34:00,55.3,32.0,30.08,North,360,7.0,11.0,41,0.00,,SKC,0.04,VWS V14.00,2013-02-15 16:34:00,
2013-02-15 11:35:00,55.4,31.5,30.08,North,360,4.0,11.0,40,0.00,,SKC,0.04,VWS V14.00,2013-02-15 16:35:00,
2013-02-15 11:36:00,55.4,28.9,30.08,North,360,9.0,11.0,36,0.00,,SKC,0.04,VWS V14.00,2013-02-15 16:36:00,
2013-02-15 11:37:00,55.6,31.7,30.08,North,360,0.0,11.0,40,0.00,,SKC,0.04,VWS V14.00,2013-02-15 16:37:00,
2013-02-15 11:38:00,55.7,32.4,30.08,North,360,4.0,11.0,41,0.00,,SKC,0.04,VWS V14.00,2013-02-15 16:38:00,
2013-02-15 11:39:00,55.7,32.4,30.08,North,360,8.0,11.0,41,0.00,,SKC,0.04,VWS V14.00,2013-02-15 16:39:00,
2013-02-15 11:40:00,55.9,33.2,30.08,North,360,8.0,11.0,42,0.00,,SKC,0.04,VWS V14.00,2013-02-15 16:40:00,
2013-02-15 11:41:00,55.9,33.2,30.08,North,360,8.0,9.0,42,0.00,,SKC,0.04,VWS V14.00,2013-02-15 16:41:00,
2013-02-15 11:42:00,55.9,33.2,30.08,North,360,7.0,9.0,42,0.00,,SKC,0.04,VWS V14.00,2013-02-15 16:42:00,
2013-02-15 11:43:00,55.7,32.4,30.08,North,360,3.0,10.0,41,0.00,,SKC,0.04,VWS V14.00,2013-02-15 16:43:00,
2013-02-15 11:44:00,55.7,32.4,30.08,North,360,6.0,10.0,41,0.00,,SKC,0.04,VWS V14.00,2013-02-15 16:44:00,
2013-02-15 11:45:00,55.7,32.4,30.07,North,360,2.0,10.0,41,0.00,,SKC,0.04,VWS V14.00,2013-02-15 16:45:00,
2013-02-15 11:46:00,55.7,33.0,30.07,North,360,1.0,10.0,42,0.00,,SKC,0.04,VWS V14.00,2013-02-15 16:46:00,
2013-02-15 11:47:00,55.7,33.0,30.07,North,360,5.0,10.0,42,0.00,,SKC,0.04,VWS V14.00,2013-02-15 16:47:00,
2013-02-15 11:48:00,55.7,33.0,30.07,North,360,9.0,10.0,42,0.00,,SKC,0.04,VWS V14.00,2013-02-15 16:48:00,
2013-02-15 11:49:00,55.7,33.0,30.07,North,360,9.0,10.0,42,0.00,,SKC,0.04,VWS V14.00,2013-02-15 16:49:00,
2013-02-15 11:50:00,55.7,33.0,30.07,North,360,9.0,10.0,42,0.00,,SKC,0.04,VWS V14.00,2013-02-15 16:50:00,
2013-02-15 11:51:00,55.7,33.0,30.07,North,360,4.0,9.0,42,0.00,,SKC,0.04,VWS V14.00,2013-02-15 16:51:00,
2013-02-15 11:52:00,56.3,31.7,30.07,North,360,4.0,9.0,39,0.00,,SKC,0.04,VWS V14.00,2013-02-15 16:52:00,
2013-02-15 11:53:00,56.3,31.7,30.07,North,360,5.0,9.0,39,0.00,,SKC,0.04,VWS V14.00,2013-02-15 16:53:00,
2013-02-15 11:54:00,56.3,31.7,30.07,North,360,3.0,9.0,39,0.00,,SKC,0.04,VWS V14.00,2013-02-15 16:54:00,
2013-02-15 11:55:00,56.5,32.5,30.07,North,360,4.0,13.0,40,0.00,,SKC,0.04,VWS V14.00,2013-02-15 16:55:00,
2013-02-15 11:56:00,56.5,32.5,30.07,North,360,5.0,13.0,40,0.00,,SKC,0.04,VWS V14.00,2013-02-15 16:56:00,
2013-02-15 11:57:00,56.5,31.9,30.07,North,360,8.0,13.0,39,0.00,,SKC,0.04,VWS V14.00,2013-02-15 16:57:00,
2013-02-15 11:58:00,56.3,31.7,30.07,North,360,10.0,13.0,39,0.00,,SKC,0.04,VWS V14.00,2013-02-15 16:58:00,
2013-02-15 11:59:00,56.3,32.3,30.07,North,360,6.0,13.0,40,0.00,,SKC,0.04,VWS V14.00,2013-02-15 16:59:00,
2013-02-15 12:00:00,56.5,32.5,30.07,North,360,8.0,13.0,40,0.00,,SKC,0.04,VWS V14.00,2013-02-15 17:00:00,
2013-02-15 12:01:00,56.5,31.9,30.07,North,360,11.0,11.0,39,0.00,,SKC,0.04,VWS V14.00,2013-02-15 17:01:00,
2013-02-15 12:02:00,56.5,31.9,30.07,North,360,9.0,11.0,39,0.00,,SKC,0.04,VWS V14.00,2013-02-15 17:02:00,
2013-02-15 12:03:00,56.5,31.9,30.07,North,360,3.0,11.0,39,0.00,,SKC,0.04,VWS V14.00,2013-02-15 17:03:00,
2013-02-15 12:04:00,56.5,31.9,30.07,North,360,10.0,11.0,39,0.00,,SKC,0.04,VWS V14.00,2013-02-15 17:04:00,
2013-02-15 12:05:00,56.5,31.9,30.07,North,360,3.0,11.0,39,0.00,,SKC,0.04,VWS V14.00,2013-02-15 17:05:00,
2013-02-15 12:06:00,56.5,31.9,30.07,North,360,9.0,11.0,39,0.00,,SKC,0.04,VWS V14.00,2013-02-15 17:06:00,
2013-02-15 12:07:00,56.5,31.9,30.07,North,360,8.0,12.0,39,0.00,,SKC,0.04,VWS V14.00,2013-02-15 17:07:00,
2013-02-15 12:08:00,56.6,32.6,30.07,North,360,6.0,12.0,40,0.00,,SKC,0.04,VWS V14.00,2013-02-15 17:08:00,
2013-02-15 12:09:00,56.6,32.0,30.07,North,360,8.0,12.0,39,0.00,,SKC,0.04,VWS V14.00,2013-02-15 17:09:00,
2013-02-15 12:10:00,56.6,32.0,30.07,North,360,7.0,12.0,39,0.00,,SKC,0.04,VWS V14.00,2013-02-15 17:10:00,
2013-02-15 12:11:00,56.5,33.1,30.07,North,360,11.0,11.0,41,0.00,,SKC,0.04,VWS V14.00,2013-02-15 17:11:00,
2013-02-15 12:12:00,56.5,31.9,30.07,North,360,4.0,11.0,39,0.00,,SKC,0.04,VWS V14.00,2013-02-15 17:12:00,
2013-02-15 12:13:00,56.5,31.9,30.07,North,360,5.0,11.0,39,0.00,,SKC,0.04,VWS V14.00,2013-02-15 17:13:00,
2013-02-15 12:14:00,56.5,33.1,30.07,North,360,3.0,12.0,41,0.00,,SKC,0.04,VWS V14.00,2013-02-15 17:14:00,
2013-02-15 12:15:00,56.6,32.0,30.06,North,360,11.0,12.0,39,0.00,,SKC,0.04,VWS V14.00,2013-02-15 17:15:00,
2013-02-15 12:16:00,56.6,31.3,30.06,North,360,14.0,17.0,38,0.00,,SKC,0.04,VWS V14.00,2013-02-15 17:16:00,
2013-02-15 12:17:00,56.6,31.3,30.06,North,360,4.0,17.0,38,0.00,,SKC,0.04,VWS V14.00,2013-02-15 17:17:00,
2013-02-15 12:18:00,56.7,31.4,30.06,North,360,10.0,17.0,38,0.00,,SKC,0.04,VWS V14.00,2013-02-15 17:18:00,
2013-02-15 12:19:00,56.9,31.6,30.06,North,360,3.0,17.0,38,0.00,,SKC,0.04,VWS V14.00,2013-02-15 17:19:00,
2013-02-15 12:20:00,57.0,31.0,30.06,North,360,3.0,17.0,37,0.00,,SKC,0.04,VWS V14.00,2013-02-15 17:20:00,
2013-02-15 12:21:00,57.2,31.2,30.06,North,360,10.0,10.0,37,0.00,,SKC,0.04,VWS V14.00,2013-02-15 17:21:00,
2013-02-15 12:22:00,57.3,30.6,30.06,North,360,6.0,16.0,36,0.00,,SKC,0.04,VWS V14.00,2013-02-15 17:22:00,
2013-02-15 12:23:00,57.5,31.5,30.06,North,360,6.0,16.0,37,0.00,,SKC,0.04,VWS V14.00,2013-02-15 17:23:00,
2013-02-15 12:24:00,57.6,31.5,30.06,North,360,10.0,16.0,37,0.00,,SKC,0.04,VWS V14.00,2013-02-15 17:24:00,
2013-02-15 12:25:00,57.6,31.5,30.06,North,360,12.0,16.0,37,0.00,,SKC,0.04,VWS V14.00,2013-02-15 17:25:00,
2013-02-15 12:26:00,57.6,30.9,30.06,North,360,5.0,16.0,36,0.00,,SKC,0.04,VWS V14.00,2013-02-15 17:26:00,
2013-02-15 12:27:00,57.6,30.9,30.06,North,360,2.0,16.0,36,0.00,,SKC,0.04,VWS V14.00,2013-02-15 17:27:00,
2013-02-15 12:28:00,57.6,30.9,30.06,North,360,11.0,16.0,36,0.00,,SKC,0.04,VWS V14.00,2013-02-15 17:28:00,
2013-02-15 12:29:00,57.8,31.0,30.06,North,360,7.0,16.0,36,0.00,,SKC,0.04,VWS V14.00,2013-02-15 17:29:00,
2013-02-15 12:30:00,57.8,31.0,30.05,North,360,0.0,16.0,36,0.00,,SKC,0.04,VWS V14.00,2013-02-15 17:30:00,
2013-02-15 12:31:00,57.6,30.9,30.05,North,360,1.0,6.0,36,0.00,,SKC,0.04,VWS V14.00,2013-02-15 17:31:00,
2013-02-15 12:32:00,57.6,31.5,30.05,North,360,5.0,6.0,37,0.00,,SKC,0.04,VWS V14.00,2013-02-15 17:32:00,
2013-02-15 12:33:00,57.6,31.5,30.05,North,360,5.0,6.0,37,0.00,,SKC,0.04,VWS V14.00,2013-02-15 17:33:00,
2013-02-15 12:34:00,57.6,31.5,30.05,North,360,5.0,6.0,37,0.00,,SKC,0.04,VWS V14.00,2013-02-15 17:34:00,
2013-02-15 12:35:00,58.3,31.5,30.05,North,360,7.0,13.0,36,0.00,,SKC,0.04,VWS V14.00,2013-02-15 17:35:00,
2013-02-15 12:36:00,58.3,30.8,30.05,North,360,9.0,13.0,35,0.00,,SKC,0.04,VWS V14.00,2013-02-15 17:36:00,
2013-02-15 12:37:00,58.3,31.5,30.05,North,360,9.0,13.0,36,0.00,,SKC,0.04,VWS V14.00,2013-02-15 17:37:00,
2013-02-15 12:38:00,58.3,31.5,30.05,North,360,12.0,14.0,36,0.00,,SKC,0.04,VWS V14.00,2013-02-15 17:38:00,
2013-02-15 12:39:00,58.1,30.6,30.05,North,360,10.0,14.0,35,0.00,,SKC,0.04,VWS V14.00,2013-02-15 17:39:00,
2013-02-15 12:40:00,58.1,31.3,30.05,North,360,13.0,15.0,36,0.00,,SKC,0.04,VWS V14.00,2013-02-15 17:40:00,
2013-02-15 12:41:00,58.1,29.9,30.05,North,360,10.0,14.0,34,0.00,,SKC,0.04,VWS V14.00,2013-02-15 17:41:00,
2013-02-15 12:42:00,58.0,29.8,30.05,North,360,7.0,14.0,34,0.00,,SKC,0.04,VWS V14.00,2013-02-15 17:42:00,
2013-02-15 12:43:00,58.0,29.8,30.05,North,360,5.0,14.0,34,0.00,,SKC,0.04,VWS V14.00,2013-02-15 17:43:00,
2013-02-15 12:44:00,58.1,31.3,30.05,North,360,5.0,14.0,36,0.00,,SKC,0.04,VWS V14.00,2013-02-15 17:44:00,
2013-02-15 12:45:00,58.1,31.3,30.05,North,360,5.0,14.0,36,0.00,,SKC,0.04,VWS V14.00,2013-02-15 17:45:00,
2013-02-15 12:46:00,58.3,31.5,30.05,North,360,7.0,14.0,36,0.00,,SKC,0.04,VWS V14.00,2013-02-15 17:46:00,
2013-02-15 12:47:00,58.4,31.6,30.05,North,360,11.0,14.0,36,0.00,,SKC,0.04,VWS V14.00,2013-02-15 17:47:00,
2013-02-15 12:48:00,58.4,32.2,30.05,North,360,7.0,14.0,37,0.00,,SKC,0.04,VWS V14.00,2013-02-15 17:48:00,
2013-02-15 12:49:00,58.6,31.0,30.05,North,360,9.0,14.0,35,0.00,,SKC,0.04,VWS V14.00,2013-02-15 17:49:00,
2013-02-15 12:50:00,58.6,31.0,30.05,North,360,3.0,14.0,35,0.00,,SKC,0.04,VWS V14.00,2013-02-15 17:50:00,
2013-02-15 12:51:00,58.7,31.8,30.05,North,360,7.0,9.0,36,0.00,,SKC,0.04,VWS V14.00,2013-02-15 17:51:00,
2013-02-15 12:52:00,58.7,32.5,30.05,North,360,6.0,9.0,37,0.00,,SKC,0.04,VWS V14.00,2013-02-15 17:52:00,
2013-02-15 12:53:00,58.9,32.0,30.05,North,360,13.0,16.0,36,0.00,,SKC,0.04,VWS V14.00,2013-02-15 17:53:00,
2013-02-15 12:54:00,58.9,32.0,30.05,North,360,11.0,16.0,36,0.00,,SKC,0.04,VWS V14.00,2013-02-15 17:54:00,
2013-02-15 12:55:00,58.9,32.0,30.05,North,360,11.0,16.0,36,0.00,,SKC,0.04,VWS V14.00,2013-02-15 17:55:00,
2013-02-15 12:56:00,58.9,32.0,30.05,North,360,11.0,16.0,36,0.00,,SKC,0.04,VWS V14.00,2013-02-15 17:56:00,
2013-02-15 12:57:00,58.4,30.9,30.05,North,360,14.0,16.0,35,0.00,,SKC,0.04,VWS V14.00,2013-02-15 17:57:00,
2013-02-15 12:58:00,58.3,30.8,30.05,North,360,4.0,16.0,35,0.00,,SKC,0.04,VWS V14.00,2013-02-15 17:58:00,
2013-02-15 12:59:00,58.1,31.3,30.05,North,360,14.0,17.0,36,0.00,,SKC,0.04,VWS V14.00,2013-02-15 17:59:00,
2013-02-15 13:00:00,58.1,31.3,30.05,North,360,14.0,17.0,36,0.00,,SKC,0.04,VWS V14.00,2013-02-15 18:00:00,
2013-02-15 13:01:00,57.6,30.2,30.04,North,360,14.0,15.0,35,0.00,,SKC,0.04,VWS V14.00,2013-02-15 18:01:00,
2013-02-15 13:02:00,57.6,30.2,30.04,North,360,6.0,15.0,35,0.00,,SKC,0.04,VWS V14.00,2013-02-15 18:02:00,
2013-02-15 13:03:00,57.6,30.9,30.04,North,360,7.0,15.0,36,0.00,,SKC,0.04,VWS V14.00,2013-02-15 18:03:00,
2013-02-15 13:04:00,57.6,29.5,30.04,North,360,6.0,15.0,34,0.00,,SKC,0.04,VWS V14.00,2013-02-15 18:04:00,
2013-02-15 13:05:00,57.6,29.5,30.04,North,360,6.0,15.0,34,0.00,,SKC,0.04,VWS V14.00,2013-02-15 18:05:00,
2013-02-15 13:06:00,57.8,28.9,30.04,North,360,11.0,15.0,33,0.00,,SKC,0.04,VWS V14.00,2013-02-15 18:06:00,
2013-02-15 13:07:00,58.0,29.8,30.04,North,360,10.0,15.0,34,0.00,,SKC,0.04,VWS V14.00,2013-02-15 18:07:00,
2013-02-15 13:08:00,58.1,29.9,30.04,North,360,9.0,17.0,34,0.00,,SKC,0.04,VWS V14.00,2013-02-15 18:08:00,
2013-02-15 13:09:00,58.1,29.9,30.04,North,360,11.0,17.0,34,0.00,,SKC,0.04,VWS V14.00,2013-02-15 18:09:00,
2013-02-15 13:10:00,58.1,29.9,30.04,North,360,11.0,17.0,34,0.00,,SKC,0.04,VWS V14.00,2013-02-15 18:10:00,
2013-02-15 13:11:00,58.3,30.1,30.04,North,360,14.0,14.0,34,0.00,,SKC,0.04,VWS V14.00,2013-02-15 18:11:00,
2013-02-15 13:12:00,58.3,29.3,30.04,North,360,10.0,14.0,33,0.00,,SKC,0.04,VWS V14.00,2013-02-15 18:12:00,
2013-02-15 13:13:00,58.3,29.3,30.04,North,360,8.0,14.0,33,0.00,,SKC,0.04,VWS V14.00,2013-02-15 18:13:00,
2013-02-15 13:14:00,58.3,28.6,30.04,North,360,10.0,14.0,32,0.00,,SKC,0.04,VWS V14.00,2013-02-15 18:14:00,
2013-02-15 13:15:00,58.3,28.6,30.03,North,360,9.0,14.0,32,0.00,,SKC,0.04,VWS V14.00,2013-02-15 18:15:00,
2013-02-15 13:16:00,58.1,29.2,30.03,North,360,6.0,14.0,33,0.00,,SKC,0.04,VWS V14.00,2013-02-15 18:16:00,
2013-02-15 13:17:00,58.1,29.2,30.03,North,360,9.0,14.0,33,0.00,,SKC,0.04,VWS V14.00,2013-02-15 18:17:00,
2013-02-15 13:18:00,58.1,29.2,30.03,North,360,9.0,14.0,33,0.00,,SKC,0.04,VWS V14.00,2013-02-15 18:18:00,
2013-02-15 13:19:00,58.1,29.2,30.03,North,360,11.0,14.0,33,0.00,,SKC,0.04,VWS V14.00,2013-02-15 18:19:00,
2013-02-15 13:20:00,58.1,29.2,30.03,North,360,5.0,14.0,33,0.00,,SKC,0.04,VWS V14.00,2013-02-15 18:20:00,
2013-02-15 13:21:00,58.1,28.4,30.03,North,360,9.0,13.0,32,0.00,,SKC,0.04,VWS V14.00,2013-02-15 18:21:00,
2013-02-15 13:22:00,58.3,28.6,30.03,North,360,10.0,16.0,32,0.00,,SKC,0.04,VWS V14.00,2013-02-15 18:22:00,
2013-02-15 13:23:00,58.3,29.3,30.03,North,360,12.0,16.0,33,0.00,,SKC,0.04,VWS V14.00,2013-02-15 18:23:00,
2013-02-15 13:24:00,58.4,30.2,30.03,North,360,10.0,16.0,34,0.00,,SKC,0.04,VWS V14.00,2013-02-15 18:24:00,
2013-02-15 13:25:00,58.4,30.2,30.03,North,360,11.0,16.0,34,0.00,,SKC,0.04,VWS V14.00,2013-02-15 18:25:00,
2013-02-15 13:26:00,58.4,30.2,30.03,North,360,10.0,16.0,34,0.00,,SKC,0.04,VWS V14.00,2013-02-15 18:26:00,
2013-02-15 13:27:00,58.4,30.2,30.03,North,360,7.0,16.0,34,0.00,,SKC,0.04,VWS V14.00,2013-02-15 18:27:00,
2013-02-15 13:28:00,58.7,30.4,30.03,North,360,9.0,16.0,34,0.00,,SKC,0.04,VWS V14.00,2013-02-15 18:28:00,
2013-02-15 13:29:00,58.9,29.9,30.03,North,360,7.0,16.0,33,0.00,,SKC,0.04,VWS V14.00,2013-02-15 18:29:00,
2013-02-15 13:30:00,58.9,29.9,30.02,North,360,11.0,16.0,33,0.00,,SKC,0.04,VWS V14.00,2013-02-15 18:30:00,
2013-02-15 13:31:00,58.9,29.9,30.02,North,360,9.0,14.0,33,0.00,,SKC,0.04,VWS V14.00,2013-02-15 18:31:00,
2013-02-15 13:32:00,58.9,29.9,30.02,North,360,10.0,14.0,33,0.00,,SKC,0.04,VWS V14.00,2013-02-15 18:32:00,
2013-02-15 13:33:00,58.9,29.9,30.02,North,360,5.0,14.0,33,0.00,,SKC,0.04,VWS V14.00,2013-02-15 18:33:00,
2013-02-15 13:34:00,58.9,30.6,30.02,North,360,4.0,14.0,34,0.00,,SKC,0.04,VWS V14.00,2013-02-15 18:34:00,
2013-02-15 13:35:00,58.9,29.9,30.02,North,360,5.0,14.0,33,0.00,,SKC,0.04,VWS V14.00,2013-02-15 18:35:00,
2013-02-15 13:36:00,58.9,30.6,30.02,North,360,11.0,14.0,34,0.00,,SKC,0.04,VWS V14.00,2013-02-15 18:36:00,
2013-02-15 13:37:00,58.9,30.6,30.02,North,360,6.0,14.0,34,0.00,,SKC,0.04,VWS V14.00,2013-02-15 18:37:00,
2013-02-15 13:38:00,58.9,30.6,30.02,North,360,3.0,14.0,34,0.00,,SKC,0.04,VWS V14.00,2013-02-15 18:38:00,
2013-02-15 13:39:00,59.0,30.7,30.02,North,360,5.0,14.0,34,0.00,,SKC,0.04,VWS V14.00,2013-02-15 18:39:00,
2013-02-15 13:40:00,59.0,30.7,30.02,North,360,9.0,14.0,34,0.00,,SKC,0.04,VWS V14.00,2013-02-15 18:40:00,
2013-02-15 13:41:00,59.0,29.2,30.02,North,360,10.0,13.0,32,0.00,,SKC,0.04,VWS V14.00,2013-02-15 18:41:00,
2013-02-15 13:42:00,59.0,30.0,30.02,North,360,10.0,13.0,33,0.00,,SKC,0.04,VWS V14.00,2013-02-15 18:42:00,
2013-02-15 13:43:00,59.0,30.0,30.02,North,360,0.0,13.0,33,0.00,,SKC,0.04,VWS V14.00,2013-02-15 18:43:00,
2013-02-15 13:44:00,59.0,30.0,30.00,North,360,3.0,13.0,33,0.00,,SKC,0.04,VWS V14.00,2013-02-15 18:44:00,
2013-02-15 13:45:00,59.0,30.7,30.00,North,360,7.0,17.0,34,0.00,,SKC,0.04,VWS V14.00,2013-02-15 18:45:00,
2013-02-15 13:46:00,59.0,29.2,30.00,North,360,7.0,17.0,32,0.00,,SKC,0.04,VWS V14.00,2013-02-15 18:46:00,
2013-02-15 13:47:00,59.0,29.2,30.00,North,360,5.0,17.0,32,0.00,,SKC,0.04,VWS V14.00,2013-02-15 18:47:00,
2013-02-15 13:48:00,59.2,30.1,30.00,North,360,12.0,17.0,33,0.00,,SKC,0.04,VWS V14.00,2013-02-15 18:48:00,
2013-02-15 13:49:00,59.2,30.1,30.00,North,360,12.0,17.0,33,0.00,,SKC,0.04,VWS V14.00,2013-02-15 18:49:00,
2013-02-15 13:50:00,59.0,30.0,30.00,North,360,6.0,17.0,33,0.00,,SKC,0.04,VWS V14.00,2013-02-15 18:50:00,
2013-02-15 13:51:00,59.0,30.0,30.00,North,360,4.0,6.0,33,0.00,,SKC,0.04,VWS V14.00,2013-02-15 18:51:00,
2013-02-15 13:52:00,59.0,30.0,30.00,North,360,9.0,11.0,33,0.00,,SKC,0.04,VWS V14.00,2013-02-15 18:52:00,
2013-02-15 13:53:00,59.2,30.1,30.00,North,360,13.0,13.0,33,0.00,,SKC,0.04,VWS V14.00,2013-02-15 18:53:00,
2013-02-15 13:54:00,59.2,29.4,30.00,North,360,5.0,15.0,32,0.00,,SKC,0.04,VWS V14.00,2013-02-15 18:54:00,
2013-02-15 13:55:00,59.3,29.5,30.00,North,360,8.0,15.0,32,0.00,,SKC,0.04,VWS V14.00,2013-02-15 18:55:00,
2013-02-15 13:56:00,59.3,28.7,30.00,North,360,6.0,15.0,31,0.00,,SKC,0.04,VWS V14.00,2013-02-15 18:56:00,
2013-02-15 13:57:00,59.5,29.6,30.00,North,360,11.0,16.0,32,0.00,,SKC,0.04,VWS V14.00,2013-02-15 18:57:00,
2013-02-15 13:58:00,59.5,29.6,30.00,North,360,10.0,17.0,32,0.00,,SKC,0.04,VWS V14.00,2013-02-15 18:58:00,
2013-02-15 14:00:00,59.5,29.6,30.00,North,360,6.0,17.0,32,0.00,,SKC,0.04,VWS V14.00,2013-02-15 19:00:00,
2013-02-15 14:01:00,59.5,29.6,30.00,North,360,6.0,11.0,32,0.00,,SKC,0.04,VWS V14.00,2013-02-15 19:01:00,
2013-02-15 14:02:00,59.5,29.6,30.00,North,360,3.0,11.0,32,0.00,,SKC,0.04,VWS V14.00,2013-02-15 19:02:00,
2013-02-15 14:03:00,59.6,29.7,30.00,North,360,6.0,13.0,32,0.00,,SKC,0.04,VWS V14.00,2013-02-15 19:03:00,
2013-02-15 14:04:00,59.6,29.7,30.00,North,360,5.0,13.0,32,0.00,,SKC,0.04,VWS V14.00,2013-02-15 19:04:00,
2013-02-15 14:05:00,59.6,29.0,30.00,North,360,9.0,15.0,31,0.00,,SKC,0.04,VWS V14.00,2013-02-15 19:05:00,
2013-02-15 14:06:00,59.8,29.9,30.00,North,360,16.0,16.0,32,0.00,,SKC,0.04,VWS V14.00,2013-02-15 19:06:00,
2013-02-15 14:07:00,59.8,29.1,30.00,North,360,8.0,16.0,31,0.00,,SKC,0.04,VWS V14.00,2013-02-15 19:07:00,
2013-02-15 14:08:00,59.6,29.0,30.00,North,360,18.0,18.0,31,0.00,,SKC,0.04,VWS V14.00,2013-02-15 19:08:00,
2013-02-15 14:09:00,59.6,29.0,30.00,North,360,11.0,21.0,31,0.00,,SKC,0.04,VWS V14.00,2013-02-15 19:09:00,
2013-02-15 14:10:00,59.5,28.9,30.00,North,360,11.0,21.0,31,0.00,,SKC,0.04,VWS V14.00,2013-02-15 19:10:00,
2013-02-15 14:11:00,59.5,28.9,30.00,North,360,13.0,14.0,31,0.00,,SKC,0.04,VWS V14.00,2013-02-15 19:11:00,
2013-02-15 14:12:00,59.5,29.6,30.00,North,360,5.0,15.0,32,0.00,,SKC,0.04,VWS V14.00,2013-02-15 19:12:00,
2013-02-15 14:13:00,59.3,29.5,30.00,North,360,12.0,15.0,32,0.00,,SKC,0.04,VWS V14.00,2013-02-15 19:13:00,
2013-02-15 14:14:00,59.3,28.7,30.00,North,360,10.0,15.0,31,0.00,,SKC,0.04,VWS V14.00,2013-02-15 19:14:00,
2013-02-15 14:15:00,59.2,29.4,30.00,North,360,6.0,15.0,32,0.00,,SKC,0.04,VWS V14.00,2013-02-15 19:15:00,
2013-02-15 14:16:00,59.2,29.4,30.00,North,360,5.0,15.0,32,0.00,,SKC,0.04,VWS V14.00,2013-02-15 19:16:00,
2013-02-15 14:17:00,59.2,29.4,30.00,North,360,5.0,15.0,32,0.00,,SKC,0.04,VWS V14.00,2013-02-15 19:17:00,
2013-02-15 14:18:00,59.2,29.4,30.00,North,360,5.0,15.0,32,0.00,,SKC,0.04,VWS V14.00,2013-02-15 19:18:00,
2013-02-15 14:19:00,59.2,30.1,30.00,North,360,19.0,21.0,33,0.00,,SKC,0.04,VWS V14.00,2013-02-15 19:19:00,
2013-02-15 14:20:00,59.2,29.4,30.00,North,360,5.0,21.0,32,0.00,,SKC,0.04,VWS V14.00,2013-02-15 19:20:00,
2013-02-15 14:21:00,59.0,29.2,30.00,North,360,9.0,16.0,32,0.00,,SKC,0.04,VWS V14.00,2013-02-15 19:21:00,
2013-02-15 14:22:00,59.2,30.1,30.00,North,360,10.0,16.0,33,0.00,,SKC,0.04,VWS V14.00,2013-02-15 19:22:00,
2013-02-15 14:23:00,59.2,30.1,30.00,North,360,11.0,16.0,33,0.00,,SKC,0.04,VWS V14.00,2013-02-15 19:23:00,
2013-02-15 14:24:00,59.0,29.2,30.00,North,360,15.0,16.0,32,0.00,,SKC,0.04,VWS V14.00,2013-02-15 19:24:00,
2013-02-15 14:25:00,59.0,30.0,30.00,North,360,6.0,16.0,33,0.00,,SKC,0.04,VWS V14.00,2013-02-15 19:25:00,
2013-02-15 14:26:00,59.0,29.2,30.00,North,360,7.0,16.0,32,0.00,,SKC,0.04,VWS V14.00,2013-02-15 19:26:00,
2013-02-15 14:27:00,59.0,30.0,30.00,North,360,12.0,16.0,33,0.00,,SKC,0.04,VWS V14.00,2013-02-15 19:27:00,
2013-02-15 14:28:00,59.2,29.4,30.00,North,360,11.0,16.0,32,0.00,,SKC,0.04,VWS V14.00,2013-02-15 19:28:00,
2013-02-15 14:29:00,59.2,29.4,30.00,North,360,11.0,16.0,32,0.00,,SKC,0.04,VWS V14.00,2013-02-15 19:29:00,
2013-02-15 14:30:00,59.2,29.4,29.99,North,360,14.0,16.0,32,0.00,,SKC,0.04,VWS V14.00,2013-02-15 19:30:00,
2013-02-15 14:31:00,59.2,29.4,29.99,North,360,14.0,14.0,32,0.00,,SKC,0.04,VWS V14.00,2013-02-15 19:31:00,
2013-02-15 14:32:00,59.3,29.5,29.99,North,360,5.0,14.0,32,0.00,,SKC,0.04,VWS V14.00,2013-02-15 19:32:00,
2013-02-15 14:33:00,59.3,30.2,29.99,North,360,5.0,14.0,33,0.00,,SKC,0.04,VWS V14.00,2013-02-15 19:33:00,
2013-02-15 14:34:00,59.5,29.6,29.99,North,360,10.0,16.0,32,0.00,,SKC,0.04,VWS V14.00,2013-02-15 19:34:00,
2013-02-15 14:35:00,59.5,29.6,29.99,North,360,8.0,17.0,32,0.00,,SKC,0.04,VWS V14.00,2013-02-15 19:35:00,
2013-02-15 14:36:00,59.5,30.4,29.99,North,360,13.0,17.0,33,0.00,,SKC,0.04,VWS V14.00,2013-02-15 19:36:00,
2013-02-15 14:37:00,59.5,29.6,29.99,North,360,12.0,17.0,32,0.00,,SKC,0.04,VWS V14.00,2013-02-15 19:37:00,
2013-02-15 14:38:00,59.5,29.6,29.99,North,360,5.0,17.0,32,0.00,,SKC,0.04,VWS V14.00,2013-02-15 19:38:00,
2013-02-15 14:39:00,59.6,29.7,29.99,North,360,11.0,17.0,32,0.00,,SKC,0.04,VWS V14.00,2013-02-15 19:39:00,
2013-02-15 14:40:00,59.6,29.7,29.99,North,360,7.0,17.0,32,0.00,,SKC,0.04,VWS V14.00,2013-02-15 19:40:00,
2013-02-15 14:41:00,59.5,30.4,29.99,North,360,7.0,9.0,33,0.00,,SKC,0.04,VWS V14.00,2013-02-15 19:41:00,
2013-02-15 14:42:00,59.5,29.6,29.99,North,360,6.0,10.0,32,0.00,,SKC,0.04,VWS V14.00,2013-02-15 19:42:00,
2013-02-15 14:43:00,59.5,30.4,29.99,North,360,12.0,14.0,33,0.00,,SKC,0.04,VWS V14.00,2013-02-15 19:43:00,
2013-02-15 14:44:00,59.5,30.4,29.99,North,360,9.0,14.0,33,0.00,,SKC,0.04,VWS V14.00,2013-02-15 19:44:00,
2013-02-15 14:45:00,59.5,30.4,29.99,North,360,7.0,18.0,33,0.00,,SKC,0.04,VWS V14.00,2013-02-15 19:45:00,
2013-02-15 14:46:00,59.5,30.4,29.99,North,360,10.0,18.0,33,0.00,,SKC,0.04,VWS V14.00,2013-02-15 19:46:00,
2013-02-15 14:47:00,59.6,30.5,29.99,North,360,7.0,18.0,33,0.00,,SKC,0.04,VWS V14.00,2013-02-15 19:47:00,
2013-02-15 14:48:00,59.6,31.2,29.99,North,360,5.0,18.0,34,0.00,,SKC,0.04,VWS V14.00,2013-02-15 19:48:00,
2013-02-15 14:49:00,59.6,30.5,29.99,North,360,9.0,18.0,33,0.00,,SKC,0.04,VWS V14.00,2013-02-15 19:49:00,
2013-02-15 14:50:00,59.6,31.2,29.99,North,360,12.0,18.0,34,0.00,,SKC,0.04,VWS V14.00,2013-02-15 19:50:00,
2013-02-15 14:51:00,59.6,30.5,29.99,North,360,11.0,15.0,33,0.00,,SKC,0.04,VWS V14.00,2013-02-15 19:51:00,
2013-02-15 14:52:00,59.6,30.5,29.99,North,360,11.0,15.0,33,0.00,,SKC,0.04,VWS V14.00,2013-02-15 19:52:00,
2013-02-15 14:53:00,59.5,30.4,29.99,North,360,10.0,15.0,33,0.00,,SKC,0.04,VWS V14.00,2013-02-15 19:53:00,
2013-02-15 14:54:00,59.5,31.1,29.99,North,360,11.0,17.0,34,0.00,,SKC,0.04,VWS V14.00,2013-02-15 19:54:00,
2013-02-15 14:55:00,59.5,31.1,29.99,North,360,3.0,17.0,34,0.00,,SKC,0.04,VWS V14.00,2013-02-15 19:55:00,
2013-02-15 14:56:00,59.3,31.7,29.99,North,360,6.0,17.0,35,0.00,,SKC,0.04,VWS V14.00,2013-02-15 19:56:00,
2013-02-15 14:57:00,59.5,31.1,29.99,North,360,5.0,17.0,34,0.00,,SKC,0.04,VWS V14.00,2013-02-15 19:57:00,
2013-02-15 14:58:00,59.5,31.1,29.99,North,360,16.0,17.0,34,0.00,,SKC,0.04,VWS V14.00,2013-02-15 19:58:00,
2013-02-15 14:59:00,59.5,31.1,29.99,North,360,11.0,19.0,34,0.00,,SKC,0.04,VWS V14.00,2013-02-15 19:59:00,
2013-02-15 15:00:00,59.5,31.1,29.99,North,360,11.0,19.0,34,0.00,,SKC,0.04,VWS V14.00,2013-02-15 20:00:00,
2013-02-15 15:01:00,59.5,30.4,29.98,North,360,9.0,14.0,33,0.00,,SKC,0.04,VWS V14.00,2013-02-15 20:01:00,
2013-02-15 15:02:00,59.3,31.0,29.98,North,360,11.0,14.0,34,0.00,,SKC,0.04,VWS V14.00,2013-02-15 20:02:00,
2013-02-15 15:03:00,59.3,31.0,29.98,North,360,7.0,15.0,34,0.00,,SKC,0.04,VWS V14.00,2013-02-15 20:03:00,
2013-02-15 15:04:00,59.2,30.9,29.98,North,360,10.0,15.0,34,0.00,,SKC,0.04,VWS V14.00,2013-02-15 20:04:00,
2013-02-15 15:05:00,59.0,31.4,29.98,North,360,10.0,15.0,35,0.00,,SKC,0.04,VWS V14.00,2013-02-15 20:05:00,
2013-02-15 15:06:00,59.0,30.7,29.98,North,360,13.0,15.0,34,0.00,,SKC,0.04,VWS V14.00,2013-02-15 20:06:00,
2013-02-15 15:07:00,58.9,30.6,29.98,North,360,12.0,17.0,34,0.00,,SKC,0.04,VWS V14.00,2013-02-15 20:07:00,
2013-02-15 15:08:00,58.7,31.1,29.98,North,360,14.0,17.0,35,0.00,,SKC,0.04,VWS V14.00,2013-02-15 20:08:00,
2013-02-15 15:09:00,58.6,31.0,29.98,North,360,10.0,17.0,35,0.00,,SKC,0.04,VWS V14.00,2013-02-15 20:09:00,
2013-02-15 15:10:00,58.4,30.9,29.98,North,360,11.0,17.0,35,0.00,,SKC,0.04,VWS V14.00,2013-02-15 20:10:00,
2013-02-15 15:11:00,58.3,31.5,29.98,North,360,5.0,16.0,36,0.00,,SKC,0.04,VWS V14.00,2013-02-15 20:11:00,
2013-02-15 15:12:00,58.1,31.3,29.98,North,360,4.0,16.0,36,0.00,,SKC,0.04,VWS V14.00,2013-02-15 20:12:00,
2013-02-15 15:13:00,58.1,31.3,29.98,North,360,11.0,16.0,36,0.00,,SKC,0.04,VWS V14.00,2013-02-15 20:13:00,
2013-02-15 15:14:00,58.0,31.2,29.98,North,360,4.0,16.0,36,0.00,,SKC,0.04,VWS V14.00,2013-02-15 20:14:00,
2013-02-15 15:15:00,57.8,31.7,29.99,North,360,14.0,16.0,37,0.00,,SKC,0.04,VWS V14.00,2013-02-15 20:15:00,
2013-02-15 15:16:00,57.8,31.7,29.99,North,360,4.0,16.0,37,0.00,,SKC,0.04,VWS V14.00,2013-02-15 20:16:00,
2013-02-15 15:17:00,57.6,31.5,29.99,North,360,1.0,16.0,37,0.00,,SKC,0.04,VWS V14.00,2013-02-15 20:17:00,
2013-02-15 15:18:00,57.6,31.5,29.99,North,360,5.0,16.0,37,0.00,,SKC,0.04,VWS V14.00,2013-02-15 20:18:00,
2013-02-15 15:19:00,57.6,31.5,29.99,North,360,13.0,16.0,37,0.00,,SKC,0.04,VWS V14.00,2013-02-15 20:19:00,
2013-02-15 15:20:00,57.6,31.5,29.99,North,360,7.0,16.0,37,0.00,,SKC,0.04,VWS V14.00,2013-02-15 20:20:00,
2013-02-15 15:21:00,57.6,30.9,29.99,North,360,5.0,9.0,36,0.00,,SKC,0.04,VWS V14.00,2013-02-15 20:21:00,
2013-02-15 15:22:00,57.6,30.9,29.99,North,360,11.0,11.0,36,0.00,,SKC,0.04,VWS V14.00,2013-02-15 20:22:00,
2013-02-15 15:23:00,57.6,30.2,29.99,North,360,11.0,14.0,35,0.00,,SKC,0.04,VWS V14.00,2013-02-15 20:23:00,
2013-02-15 15:24:00,57.6,30.9,29.99,North,360,8.0,14.0,36,0.00,,SKC,0.04,VWS V14.00,2013-02-15 20:24:00,
2013-02-15 15:25:00,57.8,30.4,29.99,North,360,12.0,16.0,35,0.00,,SKC,0.04,VWS V14.00,2013-02-15 20:25:00,
2013-02-15 15:26:00,57.8,31.0,29.99,North,360,9.0,16.0,36,0.00,,SKC,0.04,VWS V14.00,2013-02-15 20:26:00,
2013-02-15 15:27:00,58.0,31.2,29.99,North,360,8.0,16.0,36,0.00,,SKC,0.04,VWS V14.00,2013-02-15 20:27:00,
2013-02-15 15:28:00,58.0,31.9,29.99,North,360,14.0,16.0,37,0.00,,SKC,0.04,VWS V14.00,2013-02-15 20:28:00,
2013-02-15 15:29:00,58.0,31.2,29.99,North,360,11.0,16.0,36,0.00,,SKC,0.04,VWS V14.00,2013-02-15 20:29:00,
2013-02-15 15:30:00,58.0,31.2,29.98,North,360,11.0,16.0,36,0.00,,SKC,0.04,VWS V14.00,2013-02-15 20:30:00,
2013-02-15 15:31:00,57.8,31.0,29.98,North,360,7.0,11.0,36,0.00,,SKC,0.04,VWS V14.00,2013-02-15 20:31:00,
2013-02-15 15:32:00,57.8,31.0,29.98,North,360,5.0,11.0,36,0.00,,SKC,0.04,VWS V14.00,2013-02-15 20:32:00,
2013-02-15 15:33:00,57.8,31.7,29.98,North,360,5.0,11.0,37,0.00,,SKC,0.04,VWS V14.00,2013-02-15 20:33:00,
2013-02-15 15:34:00,58.0,31.9,29.98,North,360,4.0,11.0,37,0.00,,SKC,0.04,VWS V14.00,2013-02-15 20:34:00,
2013-02-15 15:35:00,58.0,31.9,29.98,North,360,9.0,13.0,37,0.00,,SKC,0.04,VWS V14.00,2013-02-15 20:35:00,
2013-02-15 15:36:00,58.0,31.9,29.98,North,360,6.0,13.0,37,0.00,,SKC,0.04,VWS V14.00,2013-02-15 20:36:00,
2013-02-15 15:37:00,57.8,32.4,29.98,North,360,8.0,15.0,38,0.00,,SKC,0.04,VWS V14.00,2013-02-15 20:37:00,
2013-02-15 15:38:00,57.8,31.7,29.98,North,360,12.0,15.0,37,0.00,,SKC,0.04,VWS V14.00,2013-02-15 20:38:00,
2013-02-15 15:39:00,57.8,31.7,29.98,North,360,7.0,15.0,37,0.00,,SKC,0.04,VWS V14.00,2013-02-15 20:39:00,
2013-02-15 15:40:00,57.8,32.4,29.98,North,360,11.0,15.0,38,0.00,,SKC,0.04,VWS V14.00,2013-02-15 20:40:00,
2013-02-15 15:41:00,57.8,31.7,29.98,North,360,11.0,13.0,37,0.00,,SKC,0.04,VWS V14.00,2013-02-15 20:41:00,
2013-02-15 15:42:00,57.6,31.5,29.98,North,360,5.0,13.0,37,0.00,,SKC,0.04,VWS V14.00,2013-02-15 20:42:00,
2013-02-15 15:43:00,57.6,31.5,29.98,North,360,4.0,13.0,37,0.00,,SKC,0.04,VWS V14.00,2013-02-15 20:43:00,
2013-02-15 15:44:00,57.6,31.5,29.98,North,360,11.0,13.0,37,0.00,,SKC,0.04,VWS V14.00,2013-02-15 20:44:00,
2013-02-15 15:45:00,57.6,31.5,29.98,North,360,7.0,13.0,37,0.00,,SKC,0.04,VWS V14.00,2013-02-15 20:45:00,
2013-02-15 15:46:00,57.5,32.1,29.98,North,360,12.0,13.0,38,0.00,,SKC,0.04,VWS V14.00,2013-02-15 20:46:00,
2013-02-15 15:47:00,57.3,31.3,29.98,North,360,5.0,14.0,37,0.00,,SKC,0.04,VWS V14.00,2013-02-15 20:47:00,
2013-02-15 15:48:00,57.2,31.8,29.98,North,360,10.0,14.0,38,0.00,,SKC,0.04,VWS V14.00,2013-02-15 20:48:00,
2013-02-15 15:49:00,57.2,31.8,29.98,North,360,7.0,14.0,38,0.00,,SKC,0.04,VWS V14.00,2013-02-15 20:49:00,
2013-02-15 15:50:00,57.2,31.8,29.98,North,360,7.0,14.0,38,0.00,,SKC,0.04,VWS V14.00,2013-02-15 20:50:00,
2013-02-15 15:51:00,57.0,31.7,29.98,North,360,4.0,7.0,38,0.00,,SKC,0.04,VWS V14.00,2013-02-15 20:51:00,
2013-02-15 15:52:00,57.0,32.3,29.98,North,360,4.0,9.0,39,0.00,,SKC,0.04,VWS V14.00,2013-02-15 20:52:00,
2013-02-15 15:53:00,57.0,31.7,29.98,North,360,6.0,10.0,38,0.00,,SKC,0.04,VWS V14.00,2013-02-15 20:53:00,
2013-02-15 15:54:00,57.0,31.7,29.98,North,360,7.0,10.0,38,0.00,,SKC,0.04,VWS V14.00,2013-02-15 20:54:00,
2013-02-15 15:55:00,57.0,31.7,29.98,North,360,4.0,10.0,38,0.00,,SKC,0.04,VWS V14.00,2013-02-15 20:55:00,
2013-02-15 15:56:00,57.0,31.7,29.98,North,360,3.0,10.0,38,0.00,,SKC,0.04,VWS V14.00,2013-02-15 20:56:00,
2013-02-15 15:57:00,57.0,32.3,29.98,North,360,6.0,10.0,39,0.00,,SKC,0.04,VWS V14.00,2013-02-15 20:57:00,
2013-02-15 15:58:00,57.2,31.2,29.98,North,360,5.0,10.0,37,0.00,,SKC,0.04,VWS V14.00,2013-02-15 20:58:00,
2013-02-15 15:59:00,57.2,31.8,29.98,North,360,5.0,10.0,38,0.00,,SKC,0.04,VWS V14.00,2013-02-15 20:59:00,
2013-02-15 16:00:00,57.2,31.8,29.98,North,360,5.0,10.0,38,0.00,,SKC,0.04,VWS V14.00,2013-02-15 21:00:00,
2013-02-15 16:01:00,57.3,30.6,29.98,North,360,4.0,11.0,36,0.00,,SKC,0.04,VWS V14.00,2013-02-15 21:01:00,
2013-02-15 16:02:00,57.5,31.5,29.98,North,360,7.0,12.0,37,0.00,,SKC,0.04,VWS V14.00,2013-02-15 21:02:00,
2013-02-15 16:03:00,57.5,31.5,29.98,North,360,6.0,12.0,37,0.00,,SKC,0.04,VWS V14.00,2013-02-15 21:03:00,
2013-02-15 16:04:00,57.6,30.2,29.98,North,360,9.0,12.0,35,0.00,,SKC,0.04,VWS V14.00,2013-02-15 21:04:00,
2013-02-15 16:05:00,57.6,30.2,29.98,North,360,9.0,12.0,35,0.00,,SKC,0.04,VWS V14.00,2013-02-15 21:05:00,
2013-02-15 16:06:00,57.6,30.2,29.98,North,360,5.0,12.0,35,0.00,,SKC,0.04,VWS V14.00,2013-02-15 21:06:00,
2013-02-15 16:07:00,57.8,30.4,29.98,North,360,3.0,12.0,35,0.00,,SKC,0.04,VWS V14.00,2013-02-15 21:07:00,
2013-02-15 16:08:00,57.8,31.0,29.98,North,360,12.0,13.0,36,0.00,,SKC,0.04,VWS V14.00,2013-02-15 21:08:00,
2013-02-15 16:09:00,58.0,29.8,29.98,North,360,9.0,13.0,34,0.00,,SKC,0.04,VWS V14.00,2013-02-15 21:09:00,
2013-02-15 16:10:00,58.1,29.2,29.98,North,360,10.0,13.0,33,0.00,,SKC,0.04,VWS V14.00,2013-02-15 21:10:00,
2013-02-15 16:11:00,58.1,29.2,29.98,North,360,13.0,16.0,33,0.00,,SKC,0.04,VWS V14.00,2013-02-15 21:11:00,
2013-02-15 16:12:00,58.1,28.4,29.98,North,360,4.0,16.0,32,0.00,,SKC,0.04,VWS V14.00,2013-02-15 21:12:00,
2013-02-15 16:13:00,58.3,28.6,29.98,North,360,8.0,16.0,32,0.00,,SKC,0.04,VWS V14.00,2013-02-15 21:13:00,
2013-02-15 16:14:00,58.3,27.8,29.98,North,360,12.0,16.0,31,0.00,,SKC,0.04,VWS V14.00,2013-02-15 21:14:00,
2013-02-15 16:15:00,58.3,27.8,29.98,North,360,7.0,16.0,31,0.00,,SKC,0.04,VWS V14.00,2013-02-15 21:15:00,
2013-02-15 16:16:00,58.1,28.4,29.98,North,360,12.0,17.0,32,0.00,,SKC,0.04,VWS V14.00,2013-02-15 21:16:00,
2013-02-15 16:17:00,58.1,28.4,29.98,North,360,19.0,19.0,32,0.00,,SKC,0.04,VWS V14.00,2013-02-15 21:17:00,
2013-02-15 16:18:00,58.1,27.6,29.98,North,360,9.0,19.0,31,0.00,,SKC,0.04,VWS V14.00,2013-02-15 21:18:00,
2013-02-15 16:19:00,58.1,28.4,29.98,North,360,12.0,19.0,32,0.00,,SKC,0.04,VWS V14.00,2013-02-15 21:19:00,
2013-02-15 16:20:00,58.1,28.4,29.98,North,360,9.0,19.0,32,0.00,,SKC,0.04,VWS V14.00,2013-02-15 21:20:00,
2013-02-15 16:21:00,58.1,28.4,29.98,North,360,5.0,13.0,32,0.00,,SKC,0.04,VWS V14.00,2013-02-15 21:21:00,
2013-02-15 16:22:00,58.1,28.4,29.98,North,360,5.0,13.0,32,0.00,,SKC,0.04,VWS V14.00,2013-02-15 21:22:00,
2013-02-15 16:23:00,58.0,29.1,29.98,North,360,5.0,13.0,33,0.00,,SKC,0.04,VWS V14.00,2013-02-15 21:23:00,
2013-02-15 16:24:00,58.0,28.3,29.98,North,360,5.0,13.0,32,0.00,,SKC,0.04,VWS V14.00,2013-02-15 21:24:00,
2013-02-15 16:25:00,58.0,29.1,29.98,North,360,11.0,13.0,33,0.00,,SKC,0.04,VWS V14.00,2013-02-15 21:25:00,
2013-02-15 16:26:00,58.0,29.1,29.98,North,360,11.0,16.0,33,0.00,,SKC,0.04,VWS V14.00,2013-02-15 21:26:00,
2013-02-15 16:27:00,58.0,29.1,29.98,North,360,7.0,16.0,33,0.00,,SKC,0.04,VWS V14.00,2013-02-15 21:27:00,
2013-02-15 16:28:00,58.0,29.8,29.98,North,360,11.0,16.0,34,0.00,,SKC,0.04,VWS V14.00,2013-02-15 21:28:00,
2013-02-15 16:29:00,58.0,29.8,29.98,North,360,6.0,16.0,34,0.00,,SKC,0.04,VWS V14.00,2013-02-15 21:29:00,
2013-02-15 16:30:00,58.0,29.8,29.99,North,360,10.0,19.0,34,0.00,,SKC,0.04,VWS V14.00,2013-02-15 21:30:00,
2013-02-15 16:31:00,58.0,29.1,29.99,North,360,15.0,19.0,33,0.00,,SKC,0.04,VWS V14.00,2013-02-15 21:31:00,
2013-02-15 16:32:00,58.0,29.1,29.99,North,360,11.0,19.0,33,0.00,,SKC,0.04,VWS V14.00,2013-02-15 21:32:00,
2013-02-15 16:33:00,58.0,29.8,29.99,North,360,12.0,19.0,34,0.00,,SKC,0.04,VWS V14.00,2013-02-15 21:33:00,
2013-02-15 16:34:00,58.0,29.1,29.99,North,360,10.0,19.0,33,0.00,,SKC,0.04,VWS V14.00,2013-02-15 21:34:00,
2013-02-15 16:35:00,58.0,29.1,29.99,North,360,16.0,19.0,33,0.00,,SKC,0.04,VWS V14.00,2013-02-15 21:35:00,
2013-02-15 16:36:00,58.0,29.1,29.99,North,360,9.0,19.0,33,0.00,,SKC,0.04,VWS V14.00,2013-02-15 21:36:00,
2013-02-15 16:37:00,58.0,29.1,29.99,North,360,9.0,19.0,33,0.00,,SKC,0.04,VWS V14.00,2013-02-15 21:37:00,
2013-02-15 16:38:00,58.0,29.8,29.99,North,360,7.0,19.0,34,0.00,,SKC,0.04,VWS V14.00,2013-02-15 21:38:00,
2013-02-15 16:39:00,58.0,30.5,29.99,North,360,10.0,19.0,35,0.00,,SKC,0.04,VWS V14.00,2013-02-15 21:39:00,
2013-02-15 16:40:00,58.0,29.8,29.99,North,360,7.0,19.0,34,0.00,,SKC,0.04,VWS V14.00,2013-02-15 21:40:00,
2013-02-15 16:41:00,58.0,29.8,29.99,North,360,9.0,15.0,34,0.00,,SKC,0.04,VWS V14.00,2013-02-15 21:41:00,
2013-02-15 16:42:00,58.0,29.8,29.99,North,360,12.0,17.0,34,0.00,,SKC,0.04,VWS V14.00,2013-02-15 21:42:00,
2013-02-15 16:43:00,58.0,29.8,29.99,North,360,9.0,17.0,34,0.00,,SKC,0.04,VWS V14.00,2013-02-15 21:43:00,
2013-02-15 16:44:00,58.0,29.8,29.99,North,360,9.0,17.0,34,0.00,,SKC,0.04,VWS V14.00,2013-02-15 21:44:00,
2013-02-15 16:45:00,57.8,29.6,29.98,North,360,6.0,17.0,34,0.00,,SKC,0.04,VWS V14.00,2013-02-15 21:45:00,
2013-02-15 16:46:00,57.8,29.6,29.98,North,360,9.0,17.0,34,0.00,,SKC,0.04,VWS V14.00,2013-02-15 21:46:00,
2013-02-15 16:47:00,57.8,29.6,29.98,North,360,12.0,17.0,34,0.00,,SKC,0.04,VWS V14.00,2013-02-15 21:47:00,
2013-02-15 16:48:00,57.8,29.6,29.98,North,360,13.0,17.0,34,0.00,,SKC,0.04,VWS V14.00,2013-02-15 21:48:00,
2013-02-15 16:49:00,57.6,29.5,29.98,North,360,13.0,17.0,34,0.00,,SKC,0.04,VWS V14.00,2013-02-15 21:49:00,
2013-02-15 16:50:00,57.6,29.5,29.98,North,360,10.0,17.0,34,0.00,,SKC,0.04,VWS V14.00,2013-02-15 21:50:00,
2013-02-15 16:51:00,57.6,29.5,29.98,North,360,10.0,11.0,34,0.00,,SKC,0.04,VWS V14.00,2013-02-15 21:51:00,
2013-02-15 16:52:00,57.5,29.4,29.98,North,360,8.0,15.0,34,0.00,,SKC,0.04,VWS V14.00,2013-02-15 21:52:00,
2013-02-15 16:53:00,57.5,29.4,29.98,North,360,10.0,15.0,34,0.00,,SKC,0.04,VWS V14.00,2013-02-15 21:53:00,
2013-02-15 16:54:00,57.5,29.4,29.98,North,360,7.0,15.0,34,0.00,,SKC,0.04,VWS V14.00,2013-02-15 21:54:00,
2013-02-15 16:55:00,57.3,29.2,29.98,North,360,10.0,15.0,34,0.00,,SKC,0.04,VWS V14.00,2013-02-15 21:55:00,
2013-02-15 16:56:00,57.3,29.2,29.98,North,360,9.0,15.0,34,0.00,,SKC,0.04,VWS V14.00,2013-02-15 21:56:00,
2013-02-15 16:57:00,57.3,29.2,29.98,North,360,6.0,15.0,34,0.00,,SKC,0.04,VWS V14.00,2013-02-15 21:57:00,
2013-02-15 16:58:00,57.3,29.2,29.98,North,360,10.0,15.0,34,0.00,,SKC,0.04,VWS V14.00,2013-02-15 21:58:00,
2013-02-15 16:59:00,57.3,29.2,29.98,North,360,6.0,15.0,34,0.00,,SKC,0.04,VWS V14.00,2013-02-15 21:59:00,
2013-02-15 17:00:00,57.3,29.2,29.98,North,360,8.0,15.0,34,0.00,,SKC,0.04,VWS V14.00,2013-02-15 22:00:00,
2013-02-15 17:01:00,57.3,29.2,29.98,North,360,11.0,12.0,34,0.00,,SKC,0.04,VWS V14.00,2013-02-15 22:01:00,
2013-02-15 17:02:00,57.3,29.2,29.98,North,360,9.0,12.0,34,0.00,,SKC,0.04,VWS V14.00,2013-02-15 22:02:00,
2013-02-15 17:03:00,57.3,29.2,29.98,North,360,9.0,14.0,34,0.00,,SKC,0.04,VWS V14.00,2013-02-15 22:03:00,
2013-02-15 17:04:00,57.3,29.2,29.98,North,360,13.0,14.0,34,0.00,,SKC,0.04,VWS V14.00,2013-02-15 22:04:00,
2013-02-15 17:05:00,57.3,29.2,29.98,North,360,11.0,14.0,34,0.00,,SKC,0.04,VWS V14.00,2013-02-15 22:05:00,
2013-02-15 17:06:00,57.3,29.2,29.98,North,360,10.0,14.0,34,0.00,,SKC,0.04,VWS V14.00,2013-02-15 22:06:00,
2013-02-15 17:07:00,57.3,29.2,29.98,North,360,10.0,14.0,34,0.00,,SKC,0.04,VWS V14.00,2013-02-15 22:07:00,
2013-02-15 17:08:00,57.2,29.1,29.98,North,360,7.0,14.0,34,0.00,,SKC,0.04,VWS V14.00,2013-02-15 22:08:00,
2013-02-15 17:09:00,57.2,29.1,29.98,North,360,9.0,14.0,34,0.00,,SKC,0.04,VWS V14.00,2013-02-15 22:09:00,
2013-02-15 17:10:00,57.2,29.1,29.98,North,360,5.0,14.0,34,0.00,,SKC,0.04,VWS V14.00,2013-02-15 22:10:00,
2013-02-15 17:11:00,57.2,29.8,29.98,North,360,10.0,10.0,35,0.00,,SKC,0.04,VWS V14.00,2013-02-15 22:11:00,
2013-02-15 17:12:00,57.2,29.8,29.98,North,360,5.0,10.0,35,0.00,,SKC,0.04,VWS V14.00,2013-02-15 22:12:00,
2013-02-15 17:13:00,57.0,29.6,29.98,North,360,6.0,10.0,35,0.00,,SKC,0.04,VWS V14.00,2013-02-15 22:13:00,
2013-02-15 17:14:00,57.0,29.6,29.98,North,360,12.0,12.0,35,0.00,,SKC,0.04,VWS V14.00,2013-02-15 22:14:00,
2013-02-15 17:15:00,57.0,28.9,29.98,North,360,16.0,16.0,34,0.00,,SKC,0.04,VWS V14.00,2013-02-15 22:15:00,
2013-02-15 17:16:00,57.0,28.9,29.98,North,360,6.0,16.0,34,0.00,,SKC,0.04,VWS V14.00,2013-02-15 22:16:00,
2013-02-15 17:17:00,56.9,28.8,29.98,North,360,12.0,16.0,34,0.00,,SKC,0.04,VWS V14.00,2013-02-15 22:17:00,
2013-02-15 17:18:00,56.9,28.8,29.98,North,360,11.0,16.0,34,0.00,,SKC,0.04,VWS V14.00,2013-02-15 22:18:00,
2013-02-15 17:19:00,56.7,28.7,29.98,North,360,8.0,16.0,34,0.00,,SKC,0.04,VWS V14.00,2013-02-15 22:19:00,
2013-02-15 17:20:00,56.7,28.7,29.98,North,360,10.0,16.0,34,0.00,,SKC,0.04,VWS V14.00,2013-02-15 22:20:00,
2013-02-15 17:21:00,56.7,28.7,29.98,North,360,13.0,16.0,34,0.00,,SKC,0.04,VWS V14.00,2013-02-15 22:21:00,
2013-02-15 17:22:00,56.6,28.6,29.98,North,360,16.0,16.0,34,0.00,,SKC,0.04,VWS V14.00,2013-02-15 22:22:00,
2013-02-15 17:23:00,56.6,28.6,29.98,North,360,13.0,20.0,34,0.00,,SKC,0.04,VWS V14.00,2013-02-15 22:23:00,
2013-02-15 17:24:00,56.6,28.6,29.98,North,360,6.0,20.0,34,0.00,,SKC,0.04,VWS V14.00,2013-02-15 22:24:00,
2013-02-15 17:25:00,56.5,29.2,29.98,North,360,10.0,20.0,35,0.00,,SKC,0.04,VWS V14.00,2013-02-15 22:25:00,
2013-02-15 17:26:00,56.5,29.2,29.98,North,360,11.0,20.0,35,0.00,,SKC,0.04,VWS V14.00,2013-02-15 22:26:00,
2013-02-15 17:27:00,56.5,29.2,29.98,North,360,12.0,20.0,35,0.00,,SKC,0.04,VWS V14.00,2013-02-15 22:27:00,
2013-02-15 17:28:00,56.5,29.2,29.98,North,360,8.0,20.0,35,0.00,,SKC,0.04,VWS V14.00,2013-02-15 22:28:00,
2013-02-15 17:29:00,56.3,29.0,29.98,North,360,5.0,20.0,35,0.00,,SKC,0.04,VWS V14.00,2013-02-15 22:29:00,
2013-02-15 17:30:00,56.3,29.0,29.99,North,360,15.0,20.0,35,0.00,,SKC,0.04,VWS V14.00,2013-02-15 22:30:00,
2013-02-15 17:31:00,56.3,29.0,29.99,North,360,5.0,15.0,35,0.00,,SKC,0.04,VWS V14.00,2013-02-15 22:31:00,
2013-02-15 17:32:00,56.2,29.6,29.99,North,360,9.0,15.0,36,0.00,,SKC,0.04,VWS V14.00,2013-02-15 22:32:00,
2013-02-15 17:33:00,56.2,29.6,29.99,North,360,7.0,15.0,36,0.00,,SKC,0.04,VWS V14.00,2013-02-15 22:33:00,
2013-02-15 17:34:00,56.2,29.6,29.99,North,360,5.0,15.0,36,0.00,,SKC,0.04,VWS V14.00,2013-02-15 22:34:00,
2013-02-15 17:35:00,56.2,29.6,29.99,North,360,5.0,15.0,36,0.00,,SKC,0.04,VWS V14.00,2013-02-15 22:35:00,
2013-02-15 17:36:00,56.0,29.4,29.99,North,360,5.0,15.0,36,0.00,,SKC,0.04,VWS V14.00,2013-02-15 22:36:00,
2013-02-15 17:37:00,56.0,30.1,29.99,North,360,5.0,15.0,37,0.00,,SKC,0.04,VWS V14.00,2013-02-15 22:37:00,
2013-02-15 17:38:00,56.0,30.1,29.99,North,360,6.0,15.0,37,0.00,,SKC,0.04,VWS V14.00,2013-02-15 22:38:00,
2013-02-15 17:39:00,56.0,30.1,29.99,North,360,14.0,15.0,37,0.00,,SKC,0.04,VWS V14.00,2013-02-15 22:39:00,
2013-02-15 17:40:00,55.9,30.0,29.99,North,360,12.0,15.0,37,0.00,,SKC,0.04,VWS V14.00,2013-02-15 22:40:00,
2013-02-15 17:41:00,55.9,30.0,29.99,North,360,6.0,12.0,37,0.00,,SKC,0.04,VWS V14.00,2013-02-15 22:41:00,
2013-02-15 17:42:00,55.9,30.0,29.99,North,360,2.0,12.0,37,0.00,,SKC,0.04,VWS V14.00,2013-02-15 22:42:00,
2013-02-15 17:43:00,55.9,30.0,29.99,North,360,5.0,12.0,37,0.00,,SKC,0.04,VWS V14.00,2013-02-15 22:43:00,
2013-02-15 17:44:00,55.7,29.9,29.99,North,360,3.0,12.0,37,0.00,,SKC,0.04,VWS V14.00,2013-02-15 22:44:00,
2013-02-15 17:45:00,55.7,29.9,29.99,North,360,4.0,12.0,37,0.00,,SKC,0.04,VWS V14.00,2013-02-15 22:45:00,
2013-02-15 17:46:00,55.7,29.9,29.99,North,360,4.0,12.0,37,0.00,,SKC,0.04,VWS V14.00,2013-02-15 22:46:00,
2013-02-15 17:47:00,55.7,29.9,29.99,North,360,6.0,12.0,37,0.00,,SKC,0.04,VWS V14.00,2013-02-15 22:47:00,
2013-02-15 17:48:00,55.7,30.5,29.99,North,360,3.0,12.0,38,0.00,,SKC,0.04,VWS V14.00,2013-02-15 22:48:00,
2013-02-15 17:49:00,55.7,30.5,29.99,North,360,4.0,12.0,38,0.00,,SKC,0.04,VWS V14.00,2013-02-15 22:49:00,
2013-02-15 17:50:00,55.6,30.4,29.99,North,360,6.0,12.0,38,0.00,,SKC,0.04,VWS V14.00,2013-02-15 22:50:00,
2013-02-15 17:51:00,55.6,30.4,29.99,North,360,8.0,11.0,38,0.00,,SKC,0.04,VWS V14.00,2013-02-15 22:51:00,
2013-02-15 17:52:00,55.6,30.4,29.99,North,360,5.0,11.0,38,0.00,,SKC,0.04,VWS V14.00,2013-02-15 22:52:00,
2013-02-15 17:53:00,55.6,30.4,29.99,North,360,6.0,11.0,38,0.00,,SKC,0.04,VWS V14.00,2013-02-15 22:53:00,
2013-02-15 17:54:00,55.6,30.4,29.99,North,360,5.0,11.0,38,0.00,,SKC,0.04,VWS V14.00,2013-02-15 22:54:00,
2013-02-15 17:55:00,55.4,30.2,29.99,North,360,5.0,11.0,38,0.00,,SKC,0.04,VWS V14.00,2013-02-15 22:55:00,
2013-02-15 17:56:00,55.4,30.2,29.99,North,360,12.0,13.0,38,0.00,,SKC,0.04,VWS V14.00,2013-02-15 22:56:00,
2013-02-15 17:57:00,55.4,30.2,29.99,North,360,8.0,13.0,38,0.00,,SKC,0.04,VWS V14.00,2013-02-15 22:57:00,
2013-02-15 17:58:00,55.4,30.9,29.99,North,360,5.0,13.0,39,0.00,,SKC,0.04,VWS V14.00,2013-02-15 22:58:00,
2013-02-15 17:59:00,55.3,30.8,29.99,North,360,6.0,13.0,39,0.00,,SKC,0.04,VWS V14.00,2013-02-15 22:59:00,
2013-02-15 18:00:00,55.3,30.8,29.99,North,360,6.0,13.0,39,0.00,,SKC,0.04,VWS V14.00,2013-02-15 23:00:00,
2013-02-15 18:01:00,55.3,30.8,29.99,North,360,5.0,6.0,39,0.00,,SKC,0.04,VWS V14.00,2013-02-15 23:01:00,
2013-02-15 18:02:00,55.3,30.8,29.99,North,360,9.0,10.0,39,0.00,,SKC,0.04,VWS V14.00,2013-02-15 23:02:00,
2013-02-15 18:03:00,55.3,30.8,29.99,North,360,4.0,10.0,39,0.00,,SKC,0.04,VWS V14.00,2013-02-15 23:03:00,
2013-02-15 18:04:00,55.3,30.8,29.99,North,360,5.0,10.0,39,0.00,,SKC,0.04,VWS V14.00,2013-02-15 23:04:00,
2013-02-15 18:05:00,55.3,30.8,29.99,North,360,7.0,10.0,39,0.00,,SKC,0.04,VWS V14.00,2013-02-15 23:05:00,
2013-02-15 18:06:00,55.1,30.6,29.99,North,360,4.0,11.0,39,0.00,,SKC,0.04,VWS V14.00,2013-02-15 23:06:00,
2013-02-15 18:07:00,55.1,31.2,29.99,North,360,6.0,11.0,40,0.00,,SKC,0.04,VWS V14.00,2013-02-15 23:07:00,
2013-02-15 18:08:00,55.1,31.2,29.99,North,360,10.0,13.0,40,0.00,,SKC,0.04,VWS V14.00,2013-02-15 23:08:00,
2013-02-15 18:09:00,55.1,31.2,29.99,North,360,10.0,14.0,40,0.00,,SKC,0.04,VWS V14.00,2013-02-15 23:09:00,
2013-02-15 18:10:00,55.1,31.2,29.99,North,360,10.0,14.0,40,0.00,,SKC,0.04,VWS V14.00,2013-02-15 23:10:00,
2013-02-15 18:11:00,55.1,31.2,29.99,North,360,8.0,11.0,40,0.00,,SKC,0.04,VWS V14.00,2013-02-15 23:11:00,
2013-02-15 18:12:00,55.0,31.8,29.99,North,360,7.0,11.0,41,0.00,,SKC,0.04,VWS V14.00,2013-02-15 23:12:00,
2013-02-15 18:13:00,55.0,31.8,29.99,North,360,9.0,13.0,41,0.00,,SKC,0.04,VWS V14.00,2013-02-15 23:13:00,
2013-02-15 18:14:00,55.0,31.8,29.99,North,360,11.0,13.0,41,0.00,,SKC,0.04,VWS V14.00,2013-02-15 23:14:00,
2013-02-15 18:15:00,55.0,31.8,30.00,North,360,15.0,19.0,41,0.00,,SKC,0.04,VWS V14.00,2013-02-15 23:15:00,
2013-02-15 18:16:00,54.8,33.3,30.00,North,360,11.0,23.0,44,0.00,,SKC,0.04,VWS V14.00,2013-02-15 23:16:00,
2013-02-15 18:17:00,54.5,35.2,30.00,North,360,13.0,23.0,48,0.00,,SKC,0.04,VWS V14.00,2013-02-15 23:17:00,
2013-02-15 18:18:00,54.4,35.1,30.00,North,360,15.0,23.0,48,0.00,,SKC,0.04,VWS V14.00,2013-02-15 23:18:00,
2013-02-15 18:19:00,54.1,35.4,30.00,North,360,7.0,23.0,49,0.00,,SKC,0.04,VWS V14.00,2013-02-15 23:19:00,
2013-02-15 18:20:00,54.1,35.4,30.00,North,360,7.0,23.0,49,0.00,,SKC,0.04,VWS V14.00,2013-02-15 23:20:00,
2013-02-15 18:21:00,53.8,35.1,30.00,North,360,10.0,13.0,49,0.00,,SKC,0.04,VWS V14.00,2013-02-15 23:21:00,
2013-02-15 18:22:00,53.6,35.9,30.00,North,360,8.0,14.0,51,0.00,,SKC,0.04,VWS V14.00,2013-02-15 23:22:00,
2013-02-15 18:23:00,53.5,35.8,30.00,North,360,14.0,14.0,51,0.00,,SKC,0.04,VWS V14.00,2013-02-15 23:23:00,
2013-02-15 18:24:00,53.3,35.7,30.00,North,360,7.0,14.0,51,0.00,,SKC,0.04,VWS V14.00,2013-02-15 23:24:00,
2013-02-15 18:25:00,53.2,36.5,30.00,North,360,10.0,14.0,53,0.00,,SKC,0.04,VWS V14.00,2013-02-15 23:25:00,
2013-02-15 18:26:00,52.9,36.2,30.00,North,360,10.0,14.0,53,0.00,,SKC,0.04,VWS V14.00,2013-02-15 23:26:00,
2013-02-15 18:27:00,52.8,36.6,30.00,North,360,13.0,16.0,54,0.00,,SKC,0.04,VWS V14.00,2013-02-15 23:27:00,
2013-02-15 18:28:00,52.8,37.1,30.00,North,360,16.0,17.0,55,0.00,,SKC,0.04,VWS V14.00,2013-02-15 23:28:00,
2013-02-15 18:29:00,52.5,37.3,30.00,North,360,9.0,17.0,56,0.00,,SKC,0.04,VWS V14.00,2013-02-15 23:29:00,
2013-02-15 18:30:00,52.3,37.1,30.01,North,360,7.0,17.0,56,0.00,,SKC,0.04,VWS V14.00,2013-02-15 23:30:00,
2013-02-15 18:31:00,52.2,37.4,30.01,North,360,14.0,20.0,57,0.00,,SKC,0.04,VWS V14.00,2013-02-15 23:31:00,
2013-02-15 18:32:00,52.0,37.7,30.01,North,360,18.0,20.0,58,0.00,,SKC,0.04,VWS V14.00,2013-02-15 23:32:00,
2013-02-15 18:33:00,51.9,37.6,30.01,North,360,10.0,20.0,58,0.00,,SKC,0.04,VWS V14.00,2013-02-15 23:33:00,
2013-02-15 18:34:00,51.9,38.5,30.01,North,360,14.0,20.0,60,0.00,,SKC,0.04,VWS V14.00,2013-02-15 23:34:00,
2013-02-15 18:35:00,51.6,38.2,30.01,North,360,10.0,20.0,60,0.00,,SKC,0.04,VWS V14.00,2013-02-15 23:35:00,
2013-02-15 18:36:00,51.4,38.0,30.01,North,360,7.0,20.0,60,0.00,,SKC,0.04,VWS V14.00,2013-02-15 23:36:00,
2013-02-15 18:37:00,51.3,38.7,30.01,North,360,6.0,20.0,62,0.00,,SKC,0.04,VWS V14.00,2013-02-15 23:37:00,
2013-02-15 18:38:00,51.1,38.5,30.01,North,360,5.0,20.0,62,0.00,,SKC,0.04,VWS V14.00,2013-02-15 23:38:00,
2013-02-15 18:39:00,51.1,38.5,30.01,North,360,6.0,20.0,62,0.00,,SKC,0.04,VWS V14.00,2013-02-15 23:39:00,
2013-02-15 18:40:00,51.0,38.5,30.01,North,360,6.0,20.0,62,0.00,,SKC,0.04,VWS V14.00,2013-02-15 23:40:00,
2013-02-15 18:41:00,50.8,38.7,30.01,North,360,6.0,7.0,63,0.00,,SKC,0.04,VWS V14.00,2013-02-15 23:41:00,
2013-02-15 18:42:00,50.7,38.6,30.01,North,360,8.0,9.0,63,0.00,,SKC,0.04,VWS V14.00,2013-02-15 23:42:00,
2013-02-15 18:43:00,50.7,38.6,30.01,North,360,10.0,10.0,63,0.00,,SKC,0.04,VWS V14.00,2013-02-15 23:43:00,
2013-02-15 18:44:00,50.5,38.4,30.01,North,360,10.0,13.0,63,0.00,,SKC,0.04,VWS V14.00,2013-02-15 23:44:00,
2013-02-15 18:45:00,50.5,38.4,30.01,North,360,6.0,13.0,63,0.00,,SKC,0.04,VWS V14.00,2013-02-15 23:45:00,
2013-02-15 18:46:00,50.4,38.3,30.01,North,360,5.0,13.0,63,0.00,,SKC,0.04,VWS V14.00,2013-02-15 23:46:00,
2013-02-15 18:47:00,50.4,38.7,30.01,North,360,9.0,13.0,64,0.00,,SKC,0.04,VWS V14.00,2013-02-15 23:47:00,
2013-02-15 18:48:00,50.2,38.5,30.01,North,360,6.0,13.0,64,0.00,,SKC,0.04,VWS V14.00,2013-02-15 23:48:00,
2013-02-15 18:49:00,50.2,38.5,30.01,North,360,6.0,13.0,64,0.00,,SKC,0.04,VWS V14.00,2013-02-15 23:49:00,
2013-02-15 18:50:00,50.2,38.5,30.01,North,360,3.0,13.0,64,0.00,,SKC,0.04,VWS V14.00,2013-02-15 23:50:00,
2013-02-15 18:51:00,50.1,38.4,30.01,North,360,7.0,10.0,64,0.00,,SKC,0.04,VWS V14.00,2013-02-15 23:51:00,
2013-02-15 18:52:00,50.1,38.4,30.01,NNE,13,3.0,10.0,64,0.00,,SKC,0.04,VWS V14.00,2013-02-15 23:52:00,
2013-02-15 18:53:00,50.1,38.8,30.01,North,360,5.0,10.0,65,0.00,,SKC,0.04,VWS V14.00,2013-02-15 23:53:00,
2013-02-15 18:54:00,50.1,38.4,30.01,North,360,4.0,10.0,64,0.00,,SKC,0.04,VWS V14.00,2013-02-15 23:54:00,
2013-02-15 18:55:00,49.9,38.2,30.01,North,360,5.0,10.0,64,0.00,,SKC,0.04,VWS V14.00,2013-02-15 23:55:00,
2013-02-15 18:56:00,49.9,38.2,30.01,North,360,4.0,10.0,64,0.00,,SKC,0.04,VWS V14.00,2013-02-15 23:56:00,
2013-02-15 18:57:00,49.9,38.6,30.01,North,360,4.0,10.0,65,0.00,,SKC,0.04,VWS V14.00,2013-02-15 23:57:00,
2013-02-15 18:58:00,49.8,38.5,30.01,North,360,4.0,10.0,65,0.00,,SKC,0.04,VWS V14.00,2013-02-15 23:58:00,
2013-02-15 18:59:00,49.8,38.5,30.01,North,360,3.0,10.0,65,0.00,,SKC,0.04,VWS V14.00,2013-02-15 23:59:00,
2013-02-15 19:00:00,49.8,38.5,30.01,North,10,6.0,10.0,65,0.00,,SKC,0.04,VWS V14.00,2013-02-16 00:00:00,
2013-02-15 19:01:00,49.8,38.5,30.01,North,360,7.0,7.0,65,0.00,,SKC,0.04,VWS V14.00,2013-02-16 00:01:00,
2013-02-15 19:02:00,49.8,38.5,30.01,North,360,3.0,7.0,65,0.00,,SKC,0.04,VWS V14.00,2013-02-16 00:02:00,
2013-02-15 19:03:00,49.6,38.3,30.01,North,360,4.0,7.0,65,0.00,,SKC,0.04,VWS V14.00,2013-02-16 00:03:00,
2013-02-15 19:04:00,49.6,38.3,30.01,North,360,4.0,7.0,65,0.00,,SKC,0.04,VWS V14.00,2013-02-16 00:04:00,
2013-02-15 19:05:00,49.6,38.3,30.01,North,360,2.0,7.0,65,0.00,,SKC,0.04,VWS V14.00,2013-02-16 00:05:00,
2013-02-15 19:06:00,49.6,38.3,30.01,North,360,4.0,9.0,65,0.00,,SKC,0.04,VWS V14.00,2013-02-16 00:06:00,
2013-02-15 19:07:00,49.5,38.2,30.01,North,360,5.0,12.0,65,0.00,,SKC,0.04,VWS V14.00,2013-02-16 00:07:00,
2013-02-15 19:08:00,49.5,38.2,30.01,North,360,6.0,12.0,65,0.00,,SKC,0.04,VWS V14.00,2013-02-16 00:08:00,
2013-02-15 19:09:00,49.5,38.6,30.01,North,360,9.0,12.0,66,0.00,,SKC,0.04,VWS V14.00,2013-02-16 00:09:00,
2013-02-15 19:10:00,49.5,38.6,30.01,North,360,2.0,12.0,66,0.00,,SKC,0.04,VWS V14.00,2013-02-16 00:10:00,
2013-02-15 19:11:00,49.5,38.6,30.01,North,360,6.0,9.0,66,0.00,,SKC,0.04,VWS V14.00,2013-02-16 00:11:00,
2013-02-15 19:12:00,49.5,38.6,30.01,North,360,4.0,9.0,66,0.00,,SKC,0.04,VWS V14.00,2013-02-16 00:12:00,
2013-02-15 19:13:00,49.4,38.5,30.01,North,360,7.0,12.0,66,0.00,,SKC,0.04,VWS V14.00,2013-02-16 00:13:00,
2013-02-15 19:14:00,49.4,38.5,30.01,North,360,9.0,12.0,66,0.00,,SKC,0.04,VWS V14.00,2013-02-16 00:14:00,
2013-02-15 19:15:00,49.4,38.5,30.01,North,360,4.0,12.0,66,0.00,,SKC,0.04,VWS V14.00,2013-02-16 00:15:00,
2013-02-15 19:16:00,49.4,38.5,30.01,North,360,4.0,12.0,66,0.00,,SKC,0.04,VWS V14.00,2013-02-16 00:16:00,
2013-02-15 19:17:00,49.4,38.5,30.01,North,360,8.0,12.0,66,0.00,,SKC,0.04,VWS V14.00,2013-02-16 00:17:00,
2013-02-15 19:18:00,49.2,38.3,30.01,North,360,4.0,12.0,66,0.00,,SKC,0.04,VWS V14.00,2013-02-16 00:18:00,
2013-02-15 19:19:00,49.2,38.3,30.01,North,360,4.0,12.0,66,0.00,,SKC,0.04,VWS V14.00,2013-02-16 00:19:00,
2013-02-15 19:20:00,49.2,38.3,30.01,North,360,5.0,12.0,66,0.00,,SKC,0.04,VWS V14.00,2013-02-16 00:20:00,
2013-02-15 19:21:00,49.2,38.3,30.01,North,360,4.0,5.0,66,0.00,,SKC,0.04,VWS V14.00,2013-02-16 00:21:00,
2013-02-15 19:22:00,49.2,38.3,30.01,North,360,2.0,5.0,66,0.00,,SKC,0.04,VWS V14.00,2013-02-16 00:22:00,
2013-02-15 19:23:00,49.2,38.3,30.01,North,360,2.0,5.0,66,0.00,,SKC,0.04,VWS V14.00,2013-02-16 00:23:00,
2013-02-15 19:24:00,49.1,38.6,30.01,North,360,4.0,6.0,67,0.00,,SKC,0.04,VWS V14.00,2013-02-16 00:24:00,
2013-02-15 19:25:00,49.1,38.6,30.01,North,360,5.0,6.0,67,0.00,,SKC,0.04,VWS V14.00,2013-02-16 00:25:00,
2013-02-15 19:26:00,49.1,38.6,30.01,North,360,1.0,6.0,67,0.00,,SKC,0.04,VWS V14.00,2013-02-16 00:26:00,
2013-02-15 19:27:00,49.1,38.6,30.01,North,360,7.0,7.0,67,0.00,,SKC,0.04,VWS V14.00,2013-02-16 00:27:00,
2013-02-15 19:28:00,48.9,38.4,30.01,North,360,3.0,7.0,67,0.00,,SKC,0.04,VWS V14.00,2013-02-16 00:28:00,
2013-02-15 19:29:00,48.9,38.8,30.01,North,360,4.0,7.0,68,0.00,,SKC,0.04,VWS V14.00,2013-02-16 00:29:00,
2013-02-15 19:30:00,48.9,38.8,30.01,North,360,1.0,9.0,68,0.00,,SKC,0.04,VWS V14.00,2013-02-16 00:30:00,
2013-02-15 19:31:00,48.9,38.8,30.01,North,360,5.0,7.0,68,0.00,,SKC,0.04,VWS V14.00,2013-02-16 00:31:00,
2013-02-15 19:32:00,48.8,39.1,30.01,North,360,5.0,10.0,69,0.00,,SKC,0.04,VWS V14.00,2013-02-16 00:32:00,
2013-02-15 19:33:00,48.8,39.1,30.01,North,360,4.0,10.0,69,0.00,,SKC,0.04,VWS V14.00,2013-02-16 00:33:00,
2013-02-15 19:34:00,48.8,39.5,30.01,North,360,0.0,10.0,70,0.00,,SKC,0.04,VWS V14.00,2013-02-16 00:34:00,
2013-02-15 19:35:00,48.6,39.3,30.01,North,360,0.0,10.0,70,0.00,,SKC,0.04,VWS V14.00,2013-02-16 00:35:00,
2013-02-15 19:36:00,48.6,39.3,30.01,North,360,4.0,10.0,70,0.00,,SKC,0.04,VWS V14.00,2013-02-16 00:36:00,
2013-02-15 19:37:00,48.5,39.2,30.01,North,360,9.0,10.0,70,0.00,,SKC,0.04,VWS V14.00,2013-02-16 00:37:00,
2013-02-15 19:38:00,48.5,39.2,30.01,North,360,4.0,10.0,70,0.00,,SKC,0.04,VWS V14.00,2013-02-16 00:38:00,
2013-02-15 19:39:00,48.5,39.5,30.01,North,360,5.0,10.0,71,0.00,,SKC,0.04,VWS V14.00,2013-02-16 00:39:00,
2013-02-15 19:40:00,48.3,39.3,30.01,North,360,5.0,10.0,71,0.00,,SKC,0.04,VWS V14.00,2013-02-16 00:40:00,
2013-02-15 19:41:00,48.3,39.3,30.01,North,360,7.0,10.0,71,0.00,,SKC,0.04,VWS V14.00,2013-02-16 00:41:00,
2013-02-15 19:42:00,48.2,39.2,30.01,North,360,5.0,10.0,71,0.00,,SKC,0.04,VWS V14.00,2013-02-16 00:42:00,
2013-02-15 19:43:00,48.2,39.2,30.01,North,360,4.0,10.0,71,0.00,,SKC,0.04,VWS V14.00,2013-02-16 00:43:00,
2013-02-15 19:44:00,48.0,39.1,30.01,North,360,7.0,10.0,71,0.00,,SKC,0.04,VWS V14.00,2013-02-16 00:44:00,
2013-02-15 19:45:00,48.0,39.1,30.02,North,360,5.0,10.0,71,0.00,,SKC,0.04,VWS V14.00,2013-02-16 00:45:00,
2013-02-15 19:46:00,48.0,39.1,30.02,North,10,9.0,12.0,71,0.00,,SKC,0.04,VWS V14.00,2013-02-16 00:46:00,
2013-02-15 19:47:00,47.9,39.0,30.02,North,360,5.0,12.0,71,0.00,,SKC,0.04,VWS V14.00,2013-02-16 00:47:00,
2013-02-15 19:48:00,47.9,39.3,30.02,NNE,16,7.0,12.0,72,0.00,,SKC,0.04,VWS V14.00,2013-02-16 00:48:00,
2013-02-15 19:49:00,47.7,39.1,30.02,North,360,7.0,12.0,72,0.00,,SKC,0.04,VWS V14.00,2013-02-16 00:49:00,
2013-02-15 19:50:00,47.7,39.1,30.02,North,360,10.0,12.0,72,0.00,,SKC,0.04,VWS V14.00,2013-02-16 00:50:00,
2013-02-15 19:51:00,47.7,39.1,30.02,North,360,9.0,10.0,72,0.00,,SKC,0.04,VWS V14.00,2013-02-16 00:51:00,
2013-02-15 19:52:00,47.6,39.0,30.02,North,360,12.0,12.0,72,0.00,,SKC,0.04,VWS V14.00,2013-02-16 00:52:00,
2013-02-15 19:53:00,47.4,38.8,30.02,North,360,12.0,18.0,72,0.00,,SKC,0.04,VWS V14.00,2013-02-16 00:53:00,
2013-02-15 19:54:00,47.4,38.8,30.02,North,360,13.0,18.0,72,0.00,,SKC,0.04,VWS V14.00,2013-02-16 00:54:00,
2013-02-15 19:55:00,47.4,38.8,30.02,North,360,13.0,18.0,72,0.00,,SKC,0.04,VWS V14.00,2013-02-16 00:55:00,
2013-02-15 19:56:00,47.3,38.7,30.02,North,360,13.0,18.0,72,0.00,,SKC,0.04,VWS V14.00,2013-02-16 00:56:00,
2013-02-15 19:57:00,47.1,38.5,30.02,North,360,15.0,19.0,72,0.00,,SKC,0.04,VWS V14.00,2013-02-16 00:57:00,
2013-02-15 19:58:00,47.1,38.5,30.02,North,360,12.0,19.0,72,0.00,,SKC,0.04,VWS V14.00,2013-02-16 00:58:00,
2013-02-15 19:59:00,47.0,38.5,30.02,North,360,10.0,19.0,72,0.00,,SKC,0.04,VWS V14.00,2013-02-16 00:59:00,
2013-02-15 20:00:00,47.0,38.5,30.02,North,360,10.0,19.0,72,0.00,,SKC,0.04,VWS V14.00,2013-02-16 01:00:00,
2013-02-15 20:01:00,47.0,38.5,30.03,North,360,13.0,13.0,72,0.00,,SKC,0.04,VWS V14.00,2013-02-16 01:01:00,
2013-02-15 20:02:00,46.8,38.3,30.03,North,360,7.0,13.0,72,0.00,,SKC,0.04,VWS V14.00,2013-02-16 01:02:00,
2013-02-15 20:03:00,46.8,38.3,30.03,North,360,9.0,13.0,72,0.00,,SKC,0.04,VWS V14.00,2013-02-16 01:03:00,
2013-02-15 20:04:00,46.7,38.2,30.03,North,360,11.0,14.0,72,0.00,,SKC,0.04,VWS V14.00,2013-02-16 01:04:00,
2013-02-15 20:05:00,46.7,38.2,30.03,North,360,10.0,14.0,72,0.00,,SKC,0.04,VWS V14.00,2013-02-16 01:05:00,
2013-02-15 20:06:00,46.5,38.0,30.03,NNE,17,10.0,16.0,72,0.00,,SKC,0.04,VWS V14.00,2013-02-16 01:06:00,
2013-02-15 20:07:00,46.5,38.0,30.03,North,360,10.0,16.0,72,0.00,,SKC,0.04,VWS V14.00,2013-02-16 01:07:00,
2013-02-15 20:08:00,46.5,38.0,30.03,North,360,7.0,16.0,72,0.00,,SKC,0.04,VWS V14.00,2013-02-16 01:08:00,
2013-02-15 20:09:00,46.4,37.9,30.03,North,360,11.0,16.0,72,0.00,,SKC,0.04,VWS V14.00,2013-02-16 01:09:00,
2013-02-15 20:10:00,46.4,37.9,30.03,NNE,17,11.0,16.0,72,0.00,,SKC,0.04,VWS V14.00,2013-02-16 01:10:00,
2013-02-15 20:11:00,46.2,37.7,30.03,NNE,15,11.0,14.0,72,0.00,,SKC,0.04,VWS V14.00,2013-02-16 01:11:00,
2013-02-15 20:12:00,46.2,37.7,30.03,North,360,10.0,15.0,72,0.00,,SKC,0.04,VWS V14.00,2013-02-16 01:12:00,
2013-02-15 20:13:00,46.2,37.7,30.03,North,360,5.0,15.0,72,0.00,,SKC,0.04,VWS V14.00,2013-02-16 01:13:00,
2013-02-15 20:14:00,46.2,37.7,30.03,North,360,8.0,15.0,72,0.00,,SKC,0.04,VWS V14.00,2013-02-16 01:14:00,
2013-02-15 20:15:00,46.1,37.6,30.02,North,360,13.0,15.0,72,0.00,,SKC,0.04,VWS V14.00,2013-02-16 01:15:00,
2013-02-15 20:16:00,46.1,37.6,30.02,North,11,10.0,15.0,72,0.00,,SKC,0.04,VWS V14.00,2013-02-16 01:16:00,
2013-02-15 20:17:00,46.1,37.6,30.02,North,360,7.0,15.0,72,0.00,,SKC,0.04,VWS V14.00,2013-02-16 01:17:00,
2013-02-15 20:18:00,46.0,37.5,30.02,NNE,15,9.0,15.0,72,0.00,,SKC,0.04,VWS V14.00,2013-02-16 01:18:00,
2013-02-15 20:19:00,46.0,37.5,30.02,North,360,7.0,15.0,72,0.00,,SKC,0.04,VWS V14.00,2013-02-16 01:19:00,
2013-02-15 20:20:00,45.8,37.3,30.02,North,360,7.0,15.0,72,0.00,,SKC,0.04,VWS V14.00,2013-02-16 01:20:00,
2013-02-15 20:21:00,45.8,37.3,30.02,North,360,7.0,9.0,72,0.00,,SKC,0.04,VWS V14.00,2013-02-16 01:21:00,
2013-02-15 20:22:00,45.8,37.3,30.02,North,360,6.0,12.0,72,0.00,,SKC,0.04,VWS V14.00,2013-02-16 01:22:00,
2013-02-15 20:23:00,45.7,37.2,30.02,North,360,6.0,12.0,72,0.00,,SKC,0.04,VWS V14.00,2013-02-16 01:23:00,
2013-02-15 20:24:00,45.7,37.2,30.02,North,360,4.0,12.0,72,0.00,,SKC,0.04,VWS V14.00,2013-02-16 01:24:00,
2013-02-15 20:25:00,45.7,37.2,30.02,North,360,6.0,12.0,72,0.00,,SKC,0.04,VWS V14.00,2013-02-16 01:25:00,
2013-02-15 20:26:00,45.5,37.0,30.02,North,360,3.0,12.0,72,0.00,,SKC,0.04,VWS V14.00,2013-02-16 01:26:00,
2013-02-15 20:27:00,45.5,37.0,30.02,North,360,6.0,12.0,72,0.00,,SKC,0.04,VWS V14.00,2013-02-16 01:27:00,
2013-02-15 20:28:00,45.5,37.0,30.02,North,360,8.0,12.0,72,0.00,,SKC,0.04,VWS V14.00,2013-02-16 01:28:00,
2013-02-15 20:29:00,45.4,36.9,30.02,North,360,9.0,12.0,72,0.00,,SKC,0.04,VWS V14.00,2013-02-16 01:29:00,
2013-02-15 20:30:00,45.4,36.9,30.03,North,11,7.0,12.0,72,0.00,,SKC,0.04,VWS V14.00,2013-02-16 01:30:00,
2013-02-15 20:31:00,45.4,36.9,30.03,North,360,3.0,9.0,72,0.00,,SKC,0.04,VWS V14.00,2013-02-16 01:31:00,
2013-02-15 20:32:00,45.2,36.7,30.03,North,360,5.0,10.0,72,0.00,,SKC,0.04,VWS V14.00,2013-02-16 01:32:00,
2013-02-15 20:33:00,45.2,36.7,30.03,North,360,4.0,10.0,72,0.00,,SKC,0.04,VWS V14.00,2013-02-16 01:33:00,
2013-02-15 20:34:00,45.2,36.7,30.03,North,360,6.0,10.0,72,0.00,,SKC,0.04,VWS V14.00,2013-02-16 01:34:00,
2013-02-15 20:35:00,45.1,36.6,30.03,North,360,6.0,10.0,72,0.00,,SKC,0.04,VWS V14.00,2013-02-16 01:35:00,
2013-02-15 20:36:00,45.1,36.6,30.03,North,360,6.0,10.0,72,0.00,,SKC,0.04,VWS V14.00,2013-02-16 01:36:00,
2013-02-15 20:37:00,45.1,36.6,30.03,North,360,6.0,10.0,72,0.00,,SKC,0.04,VWS V14.00,2013-02-16 01:37:00,
2013-02-15 20:38:00,45.1,36.6,30.03,North,360,6.0,10.0,72,0.00,,SKC,0.04,VWS V14.00,2013-02-16 01:38:00,
2013-02-15 20:39:00,44.9,36.4,30.03,North,360,7.0,10.0,72,0.00,,SKC,0.04,VWS V14.00,2013-02-16 01:39:00,
2013-02-15 20:40:00,44.9,36.4,30.03,North,360,6.0,10.0,72,0.00,,SKC,0.04,VWS V14.00,2013-02-16 01:40:00,
2013-02-15 20:41:00,44.9,36.4,30.03,North,360,7.0,10.0,72,0.00,,SKC,0.04,VWS V14.00,2013-02-16 01:41:00,
2013-02-15 20:42:00,44.8,36.3,30.03,North,360,3.0,10.0,72,0.00,,SKC,0.04,VWS V14.00,2013-02-16 01:42:00,
2013-02-15 20:43:00,44.8,36.0,30.03,North,360,5.0,10.0,71,0.00,,SKC,0.04,VWS V14.00,2013-02-16 01:43:00,
2013-02-15 20:44:00,44.8,36.3,30.03,North,360,5.0,10.0,72,0.00,,SKC,0.04,VWS V14.00,2013-02-16 01:44:00,
2013-02-15 20:45:00,44.6,35.8,30.03,North,360,6.0,10.0,71,0.00,,SKC,0.04,VWS V14.00,2013-02-16 01:45:00,
2013-02-15 20:46:00,44.6,35.8,30.03,North,360,6.0,11.0,71,0.00,,SKC,0.04,VWS V14.00,2013-02-16 01:46:00,
2013-02-15 20:47:00,44.6,35.8,30.03,North,360,4.0,11.0,71,0.00,,SKC,0.04,VWS V14.00,2013-02-16 01:47:00,
2013-02-15 20:48:00,44.6,35.4,30.03,North,360,4.0,11.0,70,0.00,,SKC,0.04,VWS V14.00,2013-02-16 01:48:00,
2013-02-15 20:49:00,44.5,35.3,30.03,North,360,5.0,11.0,70,0.00,,SKC,0.04,VWS V14.00,2013-02-16 01:49:00,
2013-02-15 20:50:00,44.5,35.3,30.03,North,360,6.0,11.0,70,0.00,,SKC,0.04,VWS V14.00,2013-02-16 01:50:00,
2013-02-15 20:51:00,44.5,35.0,30.03,North,360,2.0,7.0,69,0.00,,SKC,0.04,VWS V14.00,2013-02-16 01:51:00,
2013-02-15 20:52:00,44.3,35.2,30.03,North,360,11.0,11.0,70,0.00,,SKC,0.04,VWS V14.00,2013-02-16 01:52:00,
2013-02-15 20:53:00,44.3,34.8,30.03,North,360,10.0,13.0,69,0.00,,SKC,0.04,VWS V14.00,2013-02-16 01:53:00,
2013-02-15 20:54:00,44.3,34.8,30.03,North,360,7.0,13.0,69,0.00,,SKC,0.04,VWS V14.00,2013-02-16 01:54:00,
2013-02-15 20:55:00,44.3,34.4,30.03,North,360,7.0,13.0,68,0.00,,SKC,0.04,VWS V14.00,2013-02-16 01:55:00,
2013-02-15 20:56:00,44.2,34.3,30.03,North,360,8.0,13.0,68,0.00,,SKC,0.04,VWS V14.00,2013-02-16 01:56:00,
2013-02-15 20:57:00,44.2,34.3,30.03,North,360,8.0,13.0,68,0.00,,SKC,0.04,VWS V14.00,2013-02-16 01:57:00,
2013-02-15 20:58:00,44.2,34.3,30.03,North,360,10.0,15.0,68,0.00,,SKC,0.04,VWS V14.00,2013-02-16 01:58:00,
2013-02-15 20:59:00,44.2,34.3,30.03,North,360,11.0,15.0,68,0.00,,SKC,0.04,VWS V14.00,2013-02-16 01:59:00,
2013-02-15 21:00:00,44.2,34.3,30.03,North,360,11.0,15.0,68,0.00,,SKC,0.04,VWS V14.00,2013-02-16 02:00:00,
2013-02-15 21:01:00,44.2,34.3,30.04,North,360,5.0,13.0,68,0.00,,SKC,0.04,VWS V14.00,2013-02-16 02:01:00,
2013-02-15 21:02:00,44.2,34.3,30.04,North,360,7.0,13.0,68,0.00,,SKC,0.04,VWS V14.00,2013-02-16 02:02:00,
2013-02-15 21:03:00,44.2,34.3,30.04,NNE,17,11.0,13.0,68,0.00,,SKC,0.04,VWS V14.00,2013-02-16 02:03:00,
2013-02-15 21:04:00,44.1,34.2,30.04,North,360,7.0,13.0,68,0.00,,SKC,0.04,VWS V14.00,2013-02-16 02:04:00,
2013-02-15 21:05:00,44.1,34.2,30.04,North,360,7.0,13.0,68,0.00,,SKC,0.04,VWS V14.00,2013-02-16 02:05:00,
2013-02-15 21:06:00,44.1,34.2,30.04,NNE,15,11.0,13.0,68,0.00,,SKC,0.04,VWS V14.00,2013-02-16 02:06:00,
2013-02-15 21:07:00,44.1,34.2,30.04,North,360,7.0,13.0,68,0.00,,SKC,0.04,VWS V14.00,2013-02-16 02:07:00,
2013-02-15 21:08:00,44.1,34.2,30.04,North,360,6.0,13.0,68,0.00,,SKC,0.04,VWS V14.00,2013-02-16 02:08:00,
2013-02-15 21:09:00,43.9,34.0,30.04,North,360,6.0,13.0,68,0.00,,SKC,0.04,VWS V14.00,2013-02-16 02:09:00,
2013-02-15 21:10:00,43.9,34.0,30.04,North,360,6.0,13.0,68,0.00,,SKC,0.04,VWS V14.00,2013-02-16 02:10:00,
2013-02-15 21:11:00,43.9,34.0,30.04,North,360,5.0,7.0,68,0.00,,SKC,0.04,VWS V14.00,2013-02-16 02:11:00,
2013-02-15 21:12:00,43.9,34.4,30.04,North,360,5.0,11.0,69,0.00,,SKC,0.04,VWS V14.00,2013-02-16 02:12:00,
2013-02-15 21:13:00,43.8,34.3,30.04,North,360,9.0,11.0,69,0.00,,SKC,0.04,VWS V14.00,2013-02-16 02:13:00,
2013-02-15 21:14:00,43.8,34.3,30.04,North,360,7.0,11.0,69,0.00,,SKC,0.04,VWS V14.00,2013-02-16 02:14:00,
2013-02-15 21:15:00,43.8,34.3,30.02,North,360,9.0,11.0,69,0.00,,SKC,0.04,VWS V14.00,2013-02-16 02:15:00,
2013-02-15 21:16:00,43.8,34.3,30.02,North,360,9.0,11.0,69,0.00,,SKC,0.04,VWS V14.00,2013-02-16 02:16:00,
2013-02-15 21:17:00,43.6,34.1,30.02,North,360,8.0,11.0,69,0.00,,SKC,0.04,VWS V14.00,2013-02-16 02:17:00,
2013-02-15 21:18:00,43.6,34.1,30.02,North,360,9.0,11.0,69,0.00,,SKC,0.04,VWS V14.00,2013-02-16 02:18:00,
2013-02-15 21:19:00,43.6,34.1,30.02,North,360,5.0,11.0,69,0.00,,SKC,0.04,VWS V14.00,2013-02-16 02:19:00,
2013-02-15 21:20:00,43.5,34.0,30.02,North,360,7.0,11.0,69,0.00,,SKC,0.04,VWS V14.00,2013-02-16 02:20:00,
2013-02-15 21:21:00,43.5,34.0,30.02,North,360,7.0,10.0,69,0.00,,SKC,0.04,VWS V14.00,2013-02-16 02:21:00,
2013-02-15 21:22:00,43.5,34.0,30.02,North,360,4.0,10.0,69,0.00,,SKC,0.04,VWS V14.00,2013-02-16 02:22:00,
2013-02-15 21:23:00,43.3,33.8,30.02,North,360,4.0,10.0,69,0.00,,SKC,0.04,VWS V14.00,2013-02-16 02:23:00,
2013-02-15 21:24:00,43.3,34.2,30.02,North,360,5.0,10.0,70,0.00,,SKC,0.04,VWS V14.00,2013-02-16 02:24:00,
2013-02-15 21:25:00,43.3,34.2,30.02,North,360,6.0,10.0,70,0.00,,SKC,0.04,VWS V14.00,2013-02-16 02:25:00,
2013-02-15 21:26:00,43.3,34.2,30.02,North,360,4.0,10.0,70,0.00,,SKC,0.04,VWS V14.00,2013-02-16 02:26:00,
2013-02-15 21:27:00,43.2,34.1,30.02,North,360,7.0,10.0,70,0.00,,SKC,0.04,VWS V14.00,2013-02-16 02:27:00,
2013-02-15 21:28:00,43.2,34.1,30.02,North,360,4.0,10.0,70,0.00,,SKC,0.04,VWS V14.00,2013-02-16 02:28:00,
2013-02-15 21:29:00,43.2,34.1,30.02,North,360,6.0,10.0,70,0.00,,SKC,0.04,VWS V14.00,2013-02-16 02:29:00,
2013-02-15 21:30:00,43.2,34.1,30.02,North,360,7.0,10.0,70,0.00,,SKC,0.04,VWS V14.00,2013-02-16 02:30:00,
2013-02-15 21:31:00,43.1,34.0,30.02,North,360,7.0,8.0,70,0.00,,SKC,0.04,VWS V14.00,2013-02-16 02:31:00,
2013-02-15 21:32:00,43.1,34.0,30.02,North,360,5.0,9.0,70,0.00,,SKC,0.04,VWS V14.00,2013-02-16 02:32:00,
2013-02-15 21:33:00,43.1,34.0,30.02,North,360,4.0,9.0,70,0.00,,SKC,0.04,VWS V14.00,2013-02-16 02:33:00,
2013-02-15 21:34:00,42.9,34.2,30.02,North,360,5.0,9.0,71,0.00,,SKC,0.04,VWS V14.00,2013-02-16 02:34:00,
2013-02-15 21:35:00,42.9,34.2,30.02,North,360,10.0,10.0,71,0.00,,SKC,0.04,VWS V14.00,2013-02-16 02:35:00,
2013-02-15 21:36:00,42.9,34.2,30.02,North,360,5.0,10.0,71,0.00,,SKC,0.04,VWS V14.00,2013-02-16 02:36:00,
2013-02-15 21:37:00,42.9,34.2,30.02,North,360,5.0,10.0,71,0.00,,SKC,0.04,VWS V14.00,2013-02-16 02:37:00,
2013-02-15 21:38:00,42.8,34.1,30.02,North,360,4.0,10.0,71,0.00,,SKC,0.04,VWS V14.00,2013-02-16 02:38:00,
2013-02-15 21:39:00,42.8,34.1,30.02,North,360,4.0,10.0,71,0.00,,SKC,0.04,VWS V14.00,2013-02-16 02:39:00,
2013-02-15 21:40:00,42.8,34.1,30.02,North,360,6.0,10.0,71,0.00,,SKC,0.04,VWS V14.00,2013-02-16 02:40:00,
2013-02-15 21:41:00,42.8,34.1,30.02,North,360,4.0,6.0,71,0.00,,SKC,0.04,VWS V14.00,2013-02-16 02:41:00,
2013-02-15 21:42:00,42.6,33.9,30.02,North,360,1.0,6.0,71,0.00,,SKC,0.04,VWS V14.00,2013-02-16 02:42:00,
2013-02-15 21:43:00,42.6,33.9,30.02,North,360,0.0,6.0,71,0.00,,SKC,0.04,VWS V14.00,2013-02-16 02:43:00,
2013-02-15 21:44:00,42.6,33.9,30.02,North,360,3.0,6.0,71,0.00,,SKC,0.04,VWS V14.00,2013-02-16 02:44:00,
2013-02-15 21:45:00,42.6,33.9,30.02,North,360,1.0,6.0,71,0.00,,SKC,0.04,VWS V14.00,2013-02-16 02:45:00,
2013-02-15 21:46:00,42.5,34.1,30.02,North,360,2.0,6.0,72,0.00,,SKC,0.04,VWS V14.00,2013-02-16 02:46:00,
2013-02-15 21:47:00,42.5,34.1,30.02,North,360,2.0,6.0,72,0.00,,SKC,0.04,VWS V14.00,2013-02-16 02:47:00,
2013-02-15 21:48:00,42.5,33.1,30.02,North,360,2.0,6.0,69,0.00,,SKC,0.04,VWS V14.00,2013-02-16 02:48:00,
2013-02-15 21:49:00,42.3,33.9,30.02,North,360,4.0,6.0,72,0.00,,SKC,0.04,VWS V14.00,2013-02-16 02:49:00,
2013-02-15 21:50:00,42.3,33.9,30.02,North,360,4.0,6.0,72,0.00,,SKC,0.04,VWS V14.00,2013-02-16 02:50:00,
2013-02-15 21:51:00,42.3,33.9,30.02,North,360,5.0,6.0,72,0.00,,SKC,0.04,VWS V14.00,2013-02-16 02:51:00,
2013-02-15 21:52:00,42.2,33.8,30.02,North,360,3.0,6.0,72,0.00,,SKC,0.04,VWS V14.00,2013-02-16 02:52:00,
2013-02-15 21:53:00,42.2,33.8,30.02,North,360,5.0,6.0,72,0.00,,SKC,0.04,VWS V14.00,2013-02-16 02:53:00,
2013-02-15 21:54:00,42.2,33.8,30.02,North,360,4.0,6.0,72,0.00,,SKC,0.04,VWS V14.00,2013-02-16 02:54:00,
2013-02-15 21:55:00,42.2,33.8,30.02,North,360,4.0,6.0,72,0.00,,SKC,0.04,VWS V14.00,2013-02-16 02:55:00,
2013-02-15 21:56:00,42.1,33.7,30.02,North,360,3.0,6.0,72,0.00,,SKC,0.04,VWS V14.00,2013-02-16 02:56:00,
2013-02-15 21:57:00,42.1,33.7,30.02,North,360,3.0,6.0,72,0.00,,SKC,0.04,VWS V14.00,2013-02-16 02:57:00,
2013-02-15 21:58:00,42.1,33.7,30.02,North,360,5.0,6.0,72,0.00,,SKC,0.04,VWS V14.00,2013-02-16 02:58:00,
2013-02-15 21:59:00,42.1,33.7,30.02,North,360,5.0,6.0,72,0.00,,SKC,0.04,VWS V14.00,2013-02-16 02:59:00,
2013-02-15 22:00:00,41.9,33.5,30.02,North,360,4.0,6.0,72,0.00,,SKC,0.04,VWS V14.00,2013-02-16 03:00:00,
2013-02-15 22:01:00,41.9,33.5,30.02,North,360,4.0,4.0,72,0.00,,SKC,0.04,VWS V14.00,2013-02-16 03:01:00,
2013-02-15 22:02:00,41.9,33.5,30.02,North,360,6.0,6.0,72,0.00,,SKC,0.04,VWS V14.00,2013-02-16 03:02:00,
2013-02-15 22:03:00,41.9,33.5,30.02,North,360,4.0,7.0,72,0.00,,SKC,0.04,VWS V14.00,2013-02-16 03:03:00,
2013-02-15 22:04:00,41.9,33.5,30.02,North,360,5.0,7.0,72,0.00,,SKC,0.04,VWS V14.00,2013-02-16 03:04:00,
2013-02-15 22:05:00,41.9,33.5,30.02,North,360,4.0,7.0,72,0.00,,SKC,0.04,VWS V14.00,2013-02-16 03:05:00,
2013-02-15 22:06:00,41.9,33.2,30.02,North,360,4.0,7.0,71,0.00,,SKC,0.04,VWS V14.00,2013-02-16 03:06:00,
2013-02-15 22:07:00,41.8,33.1,30.02,North,360,6.0,7.0,71,0.00,,SKC,0.04,VWS V14.00,2013-02-16 03:07:00,
2013-02-15 22:08:00,41.8,33.1,30.02,North,360,3.0,7.0,71,0.00,,SKC,0.04,VWS V14.00,2013-02-16 03:08:00,
2013-02-15 22:09:00,41.8,33.1,30.02,North,360,4.0,7.0,71,0.00,,SKC,0.04,VWS V14.00,2013-02-16 03:09:00,
2013-02-15 22:10:00,41.8,33.1,30.02,North,360,0.0,7.0,71,0.00,,SKC,0.04,VWS V14.00,2013-02-16 03:10:00,
2013-02-15 22:11:00,41.8,33.1,30.02,North,360,2.0,2.0,71,0.00,,SKC,0.04,VWS V14.00,2013-02-16 03:11:00,
2013-02-15 22:12:00,41.8,33.1,30.02,North,360,3.0,4.0,71,0.00,,SKC,0.04,VWS V14.00,2013-02-16 03:12:00,
2013-02-15 22:13:00,41.8,33.1,30.02,North,360,3.0,5.0,71,0.00,,SKC,0.04,VWS V14.00,2013-02-16 03:13:00,
2013-02-15 22:14:00,41.8,33.1,30.02,North,360,3.0,5.0,71,0.00,,SKC,0.04,VWS V14.00,2013-02-16 03:14:00,
2013-02-15 22:15:00,41.8,33.1,30.02,North,360,4.0,5.0,71,0.00,,SKC,0.04,VWS V14.00,2013-02-16 03:15:00,
2013-02-15 22:16:00,41.6,32.9,30.02,North,360,4.0,9.0,71,0.00,,SKC,0.04,VWS V14.00,2013-02-16 03:16:00,
2013-02-15 22:17:00,41.6,32.9,30.02,North,360,4.0,9.0,71,0.00,,SKC,0.04,VWS V14.00,2013-02-16 03:17:00,
2013-02-15 22:18:00,41.6,32.9,30.02,North,360,1.0,9.0,71,0.00,,SKC,0.04,VWS V14.00,2013-02-16 03:18:00,
2013-02-15 22:19:00,41.6,32.9,30.02,North,360,3.0,9.0,71,0.00,,SKC,0.04,VWS V14.00,2013-02-16 03:19:00,
2013-02-15 22:20:00,41.6,32.9,30.02,North,360,2.0,9.0,71,0.00,,SKC,0.04,VWS V14.00,2013-02-16 03:20:00,
2013-02-15 22:21:00,41.6,32.9,30.02,North,360,5.0,5.0,71,0.00,,SKC,0.04,VWS V14.00,2013-02-16 03:21:00,
2013-02-15 22:22:00,41.6,32.9,30.02,North,360,2.0,5.0,71,0.00,,SKC,0.04,VWS V14.00,2013-02-16 03:22:00,
2013-02-15 22:23:00,41.5,32.8,30.02,North,360,2.0,5.0,71,0.00,,SKC,0.04,VWS V14.00,2013-02-16 03:23:00,
2013-02-15 22:24:00,41.5,32.8,30.02,North,360,2.0,5.0,71,0.00,,SKC,0.04,VWS V14.00,2013-02-16 03:24:00,
2013-02-15 22:25:00,41.5,32.8,30.02,North,360,5.0,6.0,71,0.00,,SKC,0.04,VWS V14.00,2013-02-16 03:25:00,
2013-02-15 22:26:00,41.5,32.8,30.02,North,360,4.0,6.0,71,0.00,,SKC,0.04,VWS V14.00,2013-02-16 03:26:00,
2013-02-15 22:27:00,41.5,32.8,30.02,North,360,1.0,6.0,71,0.00,,SKC,0.04,VWS V14.00,2013-02-16 03:27:00,
2013-02-15 22:28:00,41.5,32.8,30.02,North,360,3.0,6.0,71,0.00,,SKC,0.04,VWS V14.00,2013-02-16 03:28:00,
2013-02-15 22:29:00,41.5,32.8,30.02,North,360,3.0,6.0,71,0.00,,SKC,0.04,VWS V14.00,2013-02-16 03:29:00,
2013-02-15 22:30:00,41.3,32.6,30.02,North,360,4.0,6.0,71,0.00,,SKC,0.04,VWS V14.00,2013-02-16 03:30:00,
2013-02-15 22:40:00,40.3,32.7,29.99,North,360,1.0,3.0,74,0.00,,SKC,0.04,VWS V14.00,2013-02-16 03:40:00,
2013-02-15 22:50:00,40.2,32.6,29.99,North,360,2.0,5.0,74,0.00,,SKC,0.04,VWS V14.00,2013-02-16 03:50:00,
2013-02-15 22:51:00,40.8,32.5,30.01,North,360,0.0,4.0,72,0.00,,SKC,0.04,VWS V14.00,2013-02-16 03:51:00,
2013-02-15 22:52:00,40.8,32.8,30.01,North,360,0.0,4.0,73,0.00,,SKC,0.04,VWS V14.00,2013-02-16 03:52:00,
2013-02-15 22:53:00,40.8,32.8,30.01,North,360,0.0,4.0,73,0.00,,SKC,0.04,VWS V14.00,2013-02-16 03:53:00,
2013-02-15 22:54:00,40.8,32.8,30.01,North,360,0.0,4.0,73,0.00,,SKC,0.04,VWS V14.00,2013-02-16 03:54:00,
2013-02-15 22:55:00,40.8,32.8,30.01,North,360,2.0,4.0,73,0.00,,SKC,0.04,VWS V14.00,2013-02-16 03:55:00,
2013-02-15 22:56:00,40.6,32.6,30.01,North,360,0.0,4.0,73,0.00,,SKC,0.04,VWS V14.00,2013-02-16 03:56:00,
2013-02-15 22:57:00,40.6,32.6,30.01,North,360,3.0,4.0,73,0.00,,SKC,0.04,VWS V14.00,2013-02-16 03:57:00,
2013-02-15 22:58:00,41.3,32.6,30.02,North,360,4.0,6.0,71,0.00,,SKC,0.04,VWS V14.00,2013-02-16 03:58:00,
2013-02-15 22:59:00,40.6,33.0,30.01,North,360,1.0,7.0,74,0.00,,SKC,0.04,VWS V14.00,2013-02-16 03:59:00,
2013-02-15 23:00:00,40.6,33.0,30.01,North,360,1.0,7.0,74,0.00,,SKC,0.04,VWS V14.00,2013-02-16 04:00:00,
2013-02-15 23:01:00,40.6,33.0,30.00,North,360,0.0,3.0,74,0.00,,SKC,0.04,VWS V14.00,2013-02-16 04:01:00,
2013-02-15 23:02:00,40.6,33.0,30.00,North,360,0.0,3.0,74,0.00,,SKC,0.04,VWS V14.00,2013-02-16 04:02:00,
2013-02-15 23:03:00,40.6,33.0,30.00,North,360,0.0,3.0,74,0.00,,SKC,0.04,VWS V14.00,2013-02-16 04:03:00,
2013-02-15 23:04:00,41.3,32.6,30.02,North,360,4.0,6.0,71,0.00,,SKC,0.04,VWS V14.00,2013-02-16 04:04:00,
2013-02-15 23:05:00,40.6,33.0,30.00,North,360,0.0,3.0,74,0.00,,SKC,0.04,VWS V14.00,2013-02-16 04:05:00,
2013-02-15 23:06:00,40.6,33.0,30.00,North,360,0.0,3.0,74,0.00,,SKC,0.04,VWS V14.00,2013-02-16 04:06:00,
2013-02-15 23:07:00,40.6,33.0,30.00,North,360,0.0,3.0,74,0.00,,SKC,0.04,VWS V14.00,2013-02-16 04:07:00,
2013-02-15 23:08:00,40.6,33.0,30.00,North,360,2.0,5.0,74,0.00,,SKC,0.04,VWS V14.00,2013-02-16 04:08:00,
2013-02-15 23:09:00,40.6,33.0,30.00,North,360,0.0,5.0,74,0.00,,SKC,0.04,VWS V14.00,2013-02-16 04:09:00,
2013-02-15 23:10:00,40.6,33.0,30.00,North,360,0.0,5.0,74,0.00,,SKC,0.04,VWS V14.00,2013-02-16 04:10:00,
2013-02-15 23:11:00,41.3,32.6,30.02,North,360,4.0,6.0,71,0.00,,SKC,0.04,VWS V14.00,2013-02-16 04:11:00,
2013-02-15 23:12:00,40.6,33.0,30.00,North,360,0.0,2.0,74,0.00,,SKC,0.04,VWS V14.00,2013-02-16 04:12:00,
2013-02-15 23:13:00,40.6,32.6,30.00,North,360,0.0,2.0,73,0.00,,SKC,0.04,VWS V14.00,2013-02-16 04:13:00,
2013-02-15 23:14:00,40.6,32.6,30.00,North,360,0.0,2.0,73,0.00,,SKC,0.04,VWS V14.00,2013-02-16 04:14:00,
2013-02-15 23:15:00,40.6,32.6,30.00,North,360,1.0,2.0,73,0.00,,SKC,0.04,VWS V14.00,2013-02-16 04:15:00,
2013-02-15 23:16:00,40.6,32.6,30.00,North,360,0.0,3.0,73,0.00,,SKC,0.04,VWS V14.00,2013-02-16 04:16:00,
2013-02-15 23:17:00,40.6,32.6,30.00,North,360,0.0,3.0,73,0.00,,SKC,0.04,VWS V14.00,2013-02-16 04:17:00,
2013-02-15 23:18:00,40.6,32.6,30.00,North,360,1.0,3.0,73,0.00,,SKC,0.04,VWS V14.00,2013-02-16 04:18:00,
2013-02-15 23:19:00,40.6,32.6,30.00,North,360,0.0,4.0,73,0.00,,SKC,0.04,VWS V14.00,2013-02-16 04:19:00,
2013-02-15 23:20:00,40.6,33.0,30.00,North,360,0.0,4.0,74,0.00,,SKC,0.04,VWS V14.00,2013-02-16 04:20:00,
2013-02-15 23:21:00,40.6,33.0,30.00,North,360,0.0,0.0,74,0.00,,SKC,0.04,VWS V14.00,2013-02-16 04:21:00,
2013-02-15 23:22:00,40.6,33.0,30.00,North,360,0.0,0.0,74,0.00,,SKC,0.04,VWS V14.00,2013-02-16 04:22:00,
2013-02-15 23:23:00,40.6,33.0,30.00,North,360,0.0,0.0,74,0.00,,SKC,0.04,VWS V14.00,2013-02-16 04:23:00,
2013-02-15 23:24:00,40.6,33.0,30.00,North,360,3.0,3.0,74,0.00,,SKC,0.04,VWS V14.00,2013-02-16 04:24:00,
2013-02-15 23:25:00,40.6,33.0,30.00,North,360,0.0,5.0,74,0.00,,SKC,0.04,VWS V14.00,2013-02-16 04:25:00,
2013-02-15 23:26:00,40.6,33.0,30.00,North,360,0.0,5.0,74,0.00,,SKC,0.04,VWS V14.00,2013-02-16 04:26:00,
2013-02-15 23:27:00,40.6,33.0,30.00,North,360,0.0,5.0,74,0.00,,SKC,0.04,VWS V14.00,2013-02-16 04:27:00,
2013-02-15 23:28:00,40.5,32.9,30.00,North,360,0.0,5.0,74,0.00,,SKC,0.04,VWS V14.00,2013-02-16 04:28:00,
2013-02-15 23:29:00,40.5,32.9,30.00,North,360,0.0,5.0,74,0.00,,SKC,0.04,VWS V14.00,2013-02-16 04:29:00,
2013-02-15 23:30:00,40.5,32.9,29.99,North,360,0.0,5.0,74,0.00,,SKC,0.04,VWS V14.00,2013-02-16 04:30:00,
2013-02-15 23:31:00,40.5,32.9,29.99,North,360,0.0,0.0,74,0.00,,SKC,0.04,VWS V14.00,2013-02-16 04:31:00,
2013-02-15 23:32:00,40.5,32.9,29.99,North,360,0.0,0.0,74,0.00,,SKC,0.04,VWS V14.00,2013-02-16 04:32:00,
2013-02-15 23:33:00,40.5,32.9,29.99,North,360,0.0,0.0,74,0.00,,SKC,0.04,VWS V14.00,2013-02-16 04:33:00,
2013-02-15 23:34:00,40.5,32.9,29.99,North,360,0.0,0.0,74,0.00,,SKC,0.04,VWS V14.00,2013-02-16 04:34:00,
2013-02-15 23:35:00,40.5,32.9,29.99,North,360,0.0,0.0,74,0.00,,SKC,0.04,VWS V14.00,2013-02-16 04:35:00,
2013-02-15 23:36:00,40.5,32.9,29.99,North,360,0.0,0.0,74,0.00,,SKC,0.04,VWS V14.00,2013-02-16 04:36:00,
2013-02-15 23:37:00,40.3,32.7,29.99,North,360,0.0,0.0,74,0.00,,SKC,0.04,VWS V14.00,2013-02-16 04:37:00,
2013-02-15 23:38:00,40.3,32.7,29.99,North,360,0.0,0.0,74,0.00,,SKC,0.04,VWS V14.00,2013-02-16 04:38:00,
2013-02-15 23:39:00,40.3,32.7,29.99,North,360,0.0,3.0,74,0.00,,SKC,0.04,VWS V14.00,2013-02-16 04:39:00,
2013-02-15 23:40:00,40.3,32.7,29.99,North,360,1.0,3.0,74,0.00,,SKC,0.04,VWS V14.00,2013-02-16 04:40:00,
2013-02-15 23:41:00,40.3,32.7,29.99,North,360,0.0,1.0,74,0.00,,SKC,0.04,VWS V14.00,2013-02-16 04:41:00,
2013-02-15 23:42:00,40.3,32.7,29.99,North,360,0.0,1.0,74,0.00,,SKC,0.04,VWS V14.00,2013-02-16 04:42:00,
2013-02-15 23:43:00,40.3,32.7,29.99,North,360,0.0,1.0,74,0.00,,SKC,0.04,VWS V14.00,2013-02-16 04:43:00,
2013-02-15 23:44:00,40.3,32.7,29.99,North,360,0.0,1.0,74,0.00,,SKC,0.04,VWS V14.00,2013-02-16 04:44:00,
2013-02-15 23:45:00,40.3,32.7,29.99,North,360,0.0,1.0,74,0.00,,SKC,0.04,VWS V14.00,2013-02-16 04:45:00,
2013-02-15 23:46:00,40.3,32.7,29.99,North,360,0.0,3.0,74,0.00,,SKC,0.04,VWS V14.00,2013-02-16 04:46:00,
2013-02-15 23:47:00,40.3,32.7,29.99,North,360,0.0,3.0,74,0.00,,SKC,0.04,VWS V14.00,2013-02-16 04:47:00,
2013-02-15 23:48:00,40.2,32.6,29.99,North,360,5.0,5.0,74,0.00,,SKC,0.04,VWS V14.00,2013-02-16 04:48:00,
2013-02-15 23:49:00,40.2,32.6,29.99,North,360,0.0,5.0,74,0.00,,SKC,0.04,VWS V14.00,2013-02-16 04:49:00,
2013-02-15 23:50:00,40.2,32.6,29.99,North,360,2.0,5.0,74,0.00,,SKC,0.04,VWS V14.00,2013-02-16 04:50:00,
2013-02-15 23:51:00,40.2,32.6,29.99,North,360,2.0,5.0,74,0.00,,SKC,0.04,VWS V14.00,2013-02-16 04:51:00,
2013-02-15 23:52:00,40.2,32.9,29.99,North,360,1.0,5.0,75,0.00,,SKC,0.04,VWS V14.00,2013-02-16 04:52:00,
2013-02-15 23:53:00,40.2,32.9,29.99,North,360,1.0,5.0,75,0.00,,SKC,0.04,VWS V14.00,2013-02-16 04:53:00,
2013-02-15 23:54:00,40.1,32.8,29.99,North,360,0.0,5.0,75,0.00,,SKC,0.04,VWS V14.00,2013-02-16 04:54:00,
2013-02-15 23:55:00,40.1,32.8,29.99,North,360,3.0,5.0,75,0.00,,SKC,0.04,VWS V14.00,2013-02-16 04:55:00,
2013-02-15 23:56:00,40.1,32.8,29.99,North,360,2.0,5.0,75,0.00,,SKC,0.04,VWS V14.00,2013-02-16 04:56:00,
2013-02-15 23:57:00,40.1,32.8,29.99,North,360,0.0,5.0,75,0.00,,SKC,0.04,VWS V14.00,2013-02-16 04:57:00,
2013-02-15 23:58:00,40.1,32.8,29.99,North,360,2.0,5.0,75,0.00,,SKC,0.04,VWS V14.00,2013-02-16 04:58:00,
2013-02-15 23:59:00,40.1,32.8,29.99,North,360,3.0,6.0,75,0.00,,SKC,0.04,VWS V14.00,2013-02-16 04:59:00,